GFSNGP_850_spd_000.txt.gz
Wind_Speed
18 17 14 12 20 21 19 9 12 5 16 27 15 10 13 24 27 29 32 38 41 40 37 33 31 28 25 22 20 17 15 14 11 10 8 7 7 8 11 11 12 15 19 21
13 12 16 8 23 15 12 7 7 11 14 19 3 10 11 23 27 28 34 39 40 39 37 34 31 28 24 21 19 16 14 12 11 9 7 7 8 9 10 11 13 17 20 23
4 7 13 6 19 13 5 8 14 13 21 5 4 6 6 21 30 34 36 39 39 38 36 33 28 23 21 19 16 14 12 11 10 7 7 7 9 10 10 12 16 19 21 24
2 4 3 1 17 22 24 21 21 13 4 5 8 12 10 16 24 28 33 35 35 34 33 27 23 19 17 16 13 12 11 10 8 6 6 8 9 9 10 14 18 21 23 25
3 2 3 3 5 8 10 9 5 6 7 7 19 14 12 6 17 25 29 30 29 28 27 24 21 18 16 13 12 12 11 8 6 5 7 8 8 9 13 17 20 23 25 27
4 3 2 2 2 2 1 3 5 8 12 12 7 4 2 12 16 21 23 24 26 25 22 20 19 16 13 13 13 11 9 6 4 6 7 7 8 11 16 20 22 25 27 27
1 2 6 5 2 1 4 5 3 17 21 12 5 2 25 23 25 25 25 24 22 21 20 18 16 14 14 13 12 9 6 4 5 6 6 7 10 14 19 22 24 27 28 27
3 1 5 1 2 1 3 2 5 15 15 16 24 34 30 26 26 24 25 23 20 20 18 17 15 13 14 12 10 6 4 4 5 5 6 9 12 17 20 24 27 28 29 29
7 5 2 1 0 2 4 7 10 22 24 26 35 33 29 28 26 24 22 21 19 18 19 17 14 11 10 10 7 4 3 4 4 5 7 11 16 19 22 25 27 28 28 29
2 1 1 2 6 4 10 10 17 24 27 29 35 32 31 28 26 23 21 20 18 16 15 16 14 11 9 7 5 4 4 3 4 6 10 13 16 20 23 25 26 26 27 28
3 1 2 4 6 10 13 18 21 22 25 31 35 32 30 26 23 20 19 17 14 13 13 13 12 11 9 7 5 4 2 3 6 9 13 16 18 21 23 23 22 22 23 23
5 9 6 6 17 18 22 25 25 28 29 29 29 29 25 23 19 17 17 15 15 13 12 12 11 10 8 6 4 2 3 5 8 12 15 18 20 21 20 22 22 20 20 20
4 9 7 12 22 24 26 27 27 29 29 29 25 24 22 22 18 16 14 14 13 12 12 11 11 9 6 4 3 2 4 8 11 14 17 20 21 23 25 24 22 22 21 21
11 17 14 22 15 26 27 28 29 28 26 25 24 21 20 19 18 15 14 13 13 13 11 11 10 8 6 3 1 4 7 10 12 16 18 20 20 21 23 25 27 27 23 22
19 7 15 20 30 30 30 32 31 29 27 24 21 19 17 17 17 16 15 14 13 12 11 10 8 7 4 1 3 6 9 11 14 17 18 18 19 21 22 24 26 27 27 26
12 15 24 33 35 34 35 33 33 30 26 24 21 19 17 16 16 16 14 13 11 11 10 9 7 4 2 3 5 8 10 13 16 17 17 18 20 22 23 24 25 25 26 28
26 20 28 33 36 36 35 32 29 29 26 23 21 20 19 18 16 16 15 13 10 9 8 7 5 3 2 4 7 9 12 14 16 17 18 19 21 22 23 23 23 24 25 26
16 19 27 36 42 38 33 30 28 26 24 22 21 19 17 15 14 15 13 12 10 9 7 5 3 2 4 6 9 11 13 16 17 18 19 20 21 21 21 21 22 24 26 26
13 20 26 34 36 35 31 29 26 24 23 21 20 18 16 14 13 13 11 10 8 6 5 3 1 3 5 8 11 13 15 17 18 18 20 21 21 21 21 22 23 24 25 28
19 25 29 35 33 32 32 28 26 24 21 20 19 18 17 15 12 11 10 9 7 5 4 2 3 5 7 9 12 15 17 18 19 19 20 21 21 21 21 21 23 25 27 27
26 30 35 37 35 32 29 28 26 24 21 17 16 16 14 14 12 9 9 7 7 5 3 2 5 7 9 12 14 16 18 18 19 20 21 21 21 21 21 22 25 27 27 27
32 37 38 37 35 32 27 24 22 21 20 18 16 14 13 14 13 12 10 5 5 2 2 4 6 9 12 14 16 17 18 19 20 21 21 21 21 21 22 24 26 27 27 26
39 41 40 37 35 32 27 22 20 18 18 16 15 15 13 13 11 8 7 6 3 2 4 6 9 11 13 15 17 18 19 20 20 20 21 21 21 23 24 26 27 27 26 25
42 40 39 36 33 30 28 24 21 19 18 17 15 13 10 11 10 7 5 4 2 3 6 8 10 12 15 17 18 19 19 20 20 20 21 22 23 24 25 25 26 25 24 22
41 39 36 33 30 28 27 25 22 21 19 18 16 14 12 9 5 6 4 1 3 5 7 9 12 14 17 18 18 19 20 20 21 22 23 23 24 24 25 25 24 23 22 21
39 36 32 29 27 27 26 24 22 21 18 18 16 13 9 7 5 3 2 2 4 6 9 12 14 16 17 18 19 19 20 21 22 23 23 23 24 24 23 22 21 20 19 18
35 32 30 28 26 24 22 20 20 20 17 14 12 12 8 6 4 1 1 3 6 9 12 14 16 17 18 19 19 20 20 21 22 23 22 22 21 20 20 19 18 17 17 16

GFSNGP_850_spd_003.txt.gz
Wind_Speed
16 17 11 10 11 21 22 24 13 11 14 19 23 17 3 8 19 26 31 35 38 38 37 35 33 30 28 25 22 19 17 15 14 13 12 11 10 10 11 13 15 16 17 19
7 17 22 17 17 18 25 18 20 10 19 16 24 17 6 19 23 25 30 35 36 36 36 35 33 31 26 22 20 17 15 14 13 12 11 10 9 10 12 14 14 15 19 21
9 3 10 7 24 20 22 17 15 13 15 10 11 7 2 15 24 29 32 36 37 37 36 35 32 28 24 21 18 16 14 12 12 12 10 9 9 12 13 13 14 17 20 24
3 2 1 5 10 17 17 13 11 11 15 17 6 2 3 12 22 25 30 34 35 36 35 32 28 23 20 18 16 14 13 13 12 10 8 8 11 11 11 13 16 20 23 26
1 2 3 5 6 11 8 8 16 17 20 4 4 5 4 4 14 20 26 30 32 32 31 29 25 22 20 17 15 14 13 12 9 7 8 9 10 11 13 15 19 22 25 27
4 3 3 1 9 14 11 6 19 21 15 9 12 5 3 6 13 17 20 22 26 27 28 27 24 20 18 17 15 14 12 9 7 8 7 9 10 12 15 18 21 24 25 26
2 2 5 3 3 12 6 5 8 28 20 20 7 2 16 15 17 18 20 23 26 28 28 24 22 19 16 15 14 12 10 8 6 7 8 9 11 14 18 21 23 25 25 25
2 1 3 1 3 6 3 0 8 16 15 15 22 26 26 24 26 26 28 29 28 28 25 21 19 16 16 15 13 11 8 6 6 7 8 10 12 16 19 22 24 25 26 26
6 4 3 4 3 2 2 5 6 18 21 24 32 31 31 31 30 30 30 28 25 24 24 20 16 13 14 13 11 9 6 5 5 6 9 12 15 18 20 22 23 25 26 28
2 2 2 2 1 3 4 7 10 20 26 28 35 32 32 30 29 28 26 25 22 21 20 20 18 15 11 11 9 6 5 4 5 7 10 13 16 18 20 21 23 25 27 28
3 3 3 5 4 8 12 15 22 23 27 33 36 34 32 30 27 25 23 21 19 18 18 18 16 13 12 9 6 5 5 5 6 9 12 14 16 18 19 20 22 23 23 24
5 6 4 4 13 13 19 22 22 26 29 31 32 34 31 28 25 23 22 20 18 16 15 15 14 12 10 7 6 5 4 5 8 10 12 15 17 18 18 20 22 21 22 22
2 5 4 12 17 17 21 22 24 27 30 32 29 28 26 25 21 19 17 16 15 14 14 14 13 11 8 7 5 4 4 6 8 11 14 16 18 20 24 23 23 23 23 23
7 12 11 18 12 19 23 25 27 30 29 28 27 24 22 22 20 17 16 14 14 14 13 12 11 10 8 5 4 4 5 7 10 13 15 17 18 21 23 25 28 27 23 23
15 6 6 17 25 26 26 29 31 30 28 26 22 20 18 18 18 17 16 15 14 13 13 12 11 8 6 4 4 4 6 9 12 14 16 18 20 22 23 24 26 26 27 25
10 11 19 27 31 31 31 32 33 31 27 25 22 19 18 17 17 17 16 14 13 14 13 11 9 8 6 3 4 6 8 11 14 16 18 19 21 23 24 25 25 25 26 27
22 17 24 30 33 34 34 33 31 30 26 24 22 21 20 19 19 18 17 15 12 11 10 9 8 6 3 4 6 8 10 13 16 18 19 20 22 23 24 24 24 25 25 26
14 14 23 32 40 38 35 31 29 27 25 24 22 21 19 17 17 17 16 14 13 12 10 8 6 4 4 5 7 10 13 16 18 19 19 21 22 23 23 23 24 25 26 26
10 15 24 31 34 35 34 32 29 26 25 23 22 20 17 16 15 15 14 13 11 9 8 7 5 4 5 8 10 13 15 17 18 19 21 22 22 22 22 23 24 24 26 28
17 21 25 33 33 33 33 29 27 25 24 23 21 20 18 17 15 14 13 12 10 8 7 5 4 5 7 10 12 15 16 18 19 21 22 23 22 23 23 22 24 25 27 27
23 26 30 36 36 33 31 29 27 26 24 20 18 18 17 16 14 12 11 10 9 8 5 4 5 7 10 12 14 16 18 19 21 22 22 22 23 23 23 25 26 27 28 28
27 31 36 37 36 34 29 27 25 24 23 21 18 17 17 16 15 14 11 6 6 5 4 4 6 9 12 14 16 18 19 20 21 21 21 22 23 24 25 26 27 28 27 28
30 35 38 37 36 34 30 26 23 21 21 19 18 16 14 13 12 9 8 7 5 3 3 6 8 12 13 15 17 19 19 20 20 21 22 23 24 25 26 27 28 27 26 25
34 38 39 36 34 33 31 26 23 21 19 18 16 14 12 13 12 9 6 6 3 3 6 8 10 12 15 17 18 18 19 20 21 22 22 23 24 25 25 26 25 24 24 22
37 38 37 37 34 32 29 27 25 23 21 19 18 16 13 10 6 7 5 2 3 5 7 9 11 14 16 17 18 19 20 21 22 23 24 24 24 24 23 22 22 22 21 20
39 40 37 33 31 30 28 27 24 23 21 20 18 15 11 8 7 5 3 3 4 6 8 11 13 15 17 18 19 20 22 22 23 23 23 22 22 21 21 21 21 20 18 17
39 37 34 31 27 26 24 23 22 22 19 16 15 14 11 8 5 3 3 3 5 7 10 13 15 17 18 19 20 21 22 23 23 23 22 21 19 19 20 20 18 18 17 16

GFSNGP_850_spd_006.txt.gz
Wind_Speed
20 22 11 6 12 17 21 20 11 19 19 17 9 17 13 20 10 16 22 26 31 37 37 36 33 31 29 27 24 22 20 18 17 16 14 13 12 11 11 12 14 16 17 18
10 15 19 15 18 16 21 24 24 20 21 14 17 29 23 17 20 19 22 27 35 37 37 35 33 31 29 25 22 19 18 16 15 15 14 12 11 10 11 12 14 16 17 20
6 9 8 10 22 21 15 20 19 17 25 9 15 6 6 14 17 20 26 32 36 37 35 34 32 30 27 22 20 18 16 15 15 13 12 10 10 10 11 12 14 16 19 22
5 4 3 2 5 22 24 11 21 21 8 7 4 8 8 7 15 21 28 32 33 34 34 32 29 26 23 20 18 17 17 15 13 11 10 9 9 10 11 13 15 18 21 24
3 3 5 3 2 5 11 12 15 20 18 10 2 4 3 0 8 16 22 28 30 31 31 29 27 24 21 21 19 18 15 13 11 10 9 8 8 10 12 14 17 20 23 26
4 3 4 3 1 9 7 5 17 18 17 8 4 4 1 7 10 16 18 21 26 27 28 27 27 24 22 21 18 16 14 12 10 9 7 7 9 11 13 16 19 23 24 25
4 3 5 2 2 10 2 5 5 23 19 10 5 1 3 6 13 15 15 19 22 26 29 28 27 23 21 19 17 15 13 12 9 5 5 8 9 11 15 18 21 23 23 24
0 2 3 3 4 3 3 5 4 8 12 15 11 11 14 14 17 19 23 25 26 30 30 27 24 21 20 18 16 15 12 8 5 4 6 7 10 13 17 20 21 23 24 25
6 4 3 2 5 8 9 7 2 9 18 21 20 19 21 22 24 26 27 30 30 31 30 25 20 15 17 17 15 12 8 5 3 4 6 9 12 15 17 20 22 23 25 27
3 2 3 3 2 5 5 2 5 10 21 23 27 26 28 29 30 30 30 31 30 28 26 24 19 16 13 15 12 8 5 3 3 5 8 11 13 16 18 20 22 23 25 27
4 6 7 6 3 2 7 10 18 21 24 27 32 32 32 32 30 29 29 27 23 22 22 22 20 17 14 11 8 5 4 3 4 6 9 12 14 17 18 18 20 22 23 25
4 4 2 1 7 9 14 17 19 24 26 27 29 32 30 29 26 26 25 24 22 20 19 20 17 14 12 9 6 4 2 3 5 8 11 14 16 16 15 18 20 21 21 21
2 2 2 8 12 12 15 17 19 23 27 30 28 29 27 27 24 23 22 20 18 17 16 16 14 12 10 7 4 2 3 5 7 10 13 15 16 18 21 20 21 22 22 22
7 10 7 13 8 15 17 19 21 24 26 26 27 25 25 25 23 19 18 17 16 15 14 13 12 9 7 5 2 2 5 7 9 11 13 15 17 19 21 24 26 26 22 22
16 8 5 14 20 21 21 24 27 28 27 27 23 23 21 22 21 19 17 16 15 13 13 11 9 7 5 3 3 4 6 8 11 13 14 16 18 19 22 23 24 25 25 24
14 9 14 21 26 27 28 29 32 31 28 26 24 21 20 19 19 18 16 13 11 12 10 9 7 5 4 3 4 5 8 10 13 14 16 17 19 21 22 23 23 24 25 26
21 15 20 26 30 30 31 31 31 31 28 26 23 21 20 19 18 17 17 14 10 10 9 7 6 5 4 4 5 7 9 11 14 16 18 19 21 22 23 23 23 24 23 23
12 11 19 25 34 34 32 31 30 28 26 24 22 20 19 17 17 18 16 14 12 11 9 7 6 4 4 5 7 9 11 14 17 18 19 21 22 22 22 22 23 23 24 24
10 9 18 25 32 33 33 33 30 27 25 23 22 21 18 16 15 15 13 11 10 8 8 7 5 4 5 7 8 11 14 16 18 19 21 22 22 22 22 22 23 23 24 26
12 14 19 28 30 32 33 30 28 26 23 23 23 21 20 17 15 14 13 12 10 8 6 5 4 5 6 9 11 14 16 18 20 22 22 22 22 22 22 22 23 25 26 27
17 20 24 30 32 31 30 29 28 27 25 22 19 19 18 17 15 12 11 10 9 7 6 5 5 6 8 10 13 15 17 20 22 21 21 22 22 22 23 24 25 26 27 27
19 24 29 32 34 33 30 27 25 26 25 22 18 18 17 17 15 14 11 6 7 6 4 3 5 8 10 12 15 17 20 21 20 20 21 21 22 24 24 25 26 26 26 25
22 25 31 34 35 34 30 27 25 23 23 20 19 17 15 14 13 11 9 9 7 3 3 5 7 10 11 15 17 19 19 19 20 20 21 22 23 24 25 25 25 24 23 22
25 30 34 34 33 32 32 28 25 22 20 19 17 15 14 15 14 11 7 7 3 3 4 6 9 12 14 17 18 18 18 19 20 21 21 23 23 23 23 22 22 22 21 20
29 33 35 36 35 33 31 30 27 24 22 21 19 17 15 12 7 8 6 4 3 3 5 8 11 14 16 17 17 18 19 20 21 22 23 22 22 21 20 20 21 21 20 20
33 37 38 35 34 33 31 30 28 26 23 23 21 17 14 10 8 7 4 2 2 4 7 10 13 15 16 17 18 19 21 21 22 22 22 22 21 19 19 20 20 18 18 17
36 38 37 35 32 30 28 27 26 25 22 19 19 17 12 10 8 5 2 1 3 6 9 12 14 15 17 18 20 21 21 22 23 22 21 20 18 18 19 20 18 17 16 14

GFSNGP_850_spd_009.txt.gz
Wind_Speed
21 23 17 12 13 18 20 23 12 15 16 18 13 10 11 20 26 17 13 12 17 24 33 37 37 36 34 33 31 30 29 27 24 22 19 17 15 12 10 8 9 11 13 16
18 18 19 21 18 18 22 21 23 20 24 18 13 15 11 22 28 21 16 15 19 27 35 36 36 35 34 32 31 28 26 24 22 20 18 15 12 9 8 8 9 12 14 16
13 7 9 6 13 21 19 18 13 16 20 10 7 6 14 24 19 13 17 19 22 31 35 35 34 34 34 31 29 26 24 22 20 18 16 12 9 7 6 8 10 13 15 17
8 7 3 2 4 13 20 20 21 16 12 12 13 22 25 19 11 8 16 22 27 33 34 33 32 31 30 28 27 25 22 21 19 15 12 9 7 5 6 9 11 13 16 18
3 4 6 2 6 1 8 7 20 19 17 14 8 4 13 6 3 11 16 22 28 31 32 32 31 29 28 26 25 23 21 18 15 12 9 6 4 5 7 9 12 14 17 20
3 4 4 3 5 5 2 2 4 19 14 9 8 3 3 3 5 11 14 20 26 30 31 30 31 29 28 27 23 21 18 16 13 10 6 3 4 6 8 10 13 16 18 19
4 4 6 4 4 5 3 5 8 6 10 11 5 3 2 7 11 15 17 22 26 30 32 32 30 28 26 24 22 19 16 13 10 6 3 3 5 7 9 12 14 16 17 18
2 2 5 1 2 1 3 10 7 2 9 14 13 12 14 15 18 21 24 28 31 34 33 30 28 27 25 22 19 16 13 10 7 3 2 4 6 8 11 13 15 17 18 19
6 5 3 5 8 12 13 11 6 3 11 17 20 21 20 21 21 24 25 28 30 34 34 30 26 20 20 18 16 14 11 7 4 2 2 4 7 9 12 14 16 18 20 23
1 2 5 8 7 8 8 5 1 6 17 18 25 24 25 24 25 27 28 32 34 34 32 29 22 17 13 16 14 10 7 4 3 1 3 5 9 11 13 14 16 19 22 24
5 6 8 9 6 4 4 8 13 16 16 21 24 25 27 28 29 30 33 34 31 29 27 25 21 18 16 14 10 7 5 3 2 2 4 7 9 12 13 15 18 20 22 22
4 3 3 3 3 4 9 13 15 19 24 23 24 29 29 30 30 32 31 29 25 23 22 22 19 17 14 11 8 5 3 2 1 4 6 9 10 11 13 15 17 19 19 20
2 1 2 4 7 7 11 14 16 21 25 30 29 29 28 30 28 26 25 22 21 20 19 19 16 14 13 9 6 4 2 1 3 6 9 11 13 15 17 16 19 20 20 20
9 6 3 10 5 11 14 17 20 24 25 26 30 30 29 28 26 24 22 20 19 18 18 16 14 12 10 7 5 2 0 3 6 8 11 13 14 16 18 21 24 25 20 20
12 12 3 9 14 17 17 22 27 27 28 28 26 27 26 27 25 23 21 19 18 16 16 14 12 10 8 6 3 1 3 6 8 11 13 14 15 17 19 21 23 23 23 21
15 10 8 14 21 22 24 27 30 31 28 27 26 25 23 22 22 21 19 16 15 17 15 13 11 9 6 3 1 3 6 8 10 12 14 15 17 19 21 22 22 22 23 23
17 12 15 20 26 27 28 29 31 35 33 29 26 24 23 22 22 21 20 17 14 14 13 10 8 6 3 0 2 5 7 10 12 14 15 17 19 20 21 21 22 22 22 22
14 14 17 21 32 32 30 30 31 30 29 26 24 23 22 21 22 22 20 18 16 15 12 9 6 3 1 2 4 7 9 12 14 15 17 19 20 20 20 21 21 22 23 22
11 9 15 19 28 30 31 31 30 28 26 24 24 23 21 20 20 20 18 15 13 10 10 7 4 1 2 4 7 9 11 13 15 17 18 19 19 19 20 21 22 22 23 24
10 12 15 22 28 29 32 30 29 28 26 25 25 24 23 21 19 18 16 15 12 9 7 5 2 2 4 6 8 11 13 15 17 18 18 19 19 20 20 21 22 23 24 24
13 15 18 26 29 29 30 30 29 28 27 24 23 23 22 21 17 14 14 12 11 8 5 3 1 3 5 8 10 12 14 17 18 18 19 20 20 20 21 22 22 23 23 22
15 19 23 28 30 32 31 29 27 27 27 25 22 21 21 21 18 16 12 6 8 6 4 2 2 4 7 9 11 14 17 18 18 18 19 19 20 21 21 22 21 21 21 22
18 21 26 30 33 34 32 29 27 26 26 23 22 21 18 17 14 11 10 9 8 5 2 2 4 6 9 11 14 16 17 17 18 18 19 20 20 21 21 20 19 21 21 21
21 25 30 32 34 34 33 30 27 25 23 21 19 17 15 17 15 12 8 9 6 3 1 3 6 8 11 14 16 16 17 18 18 18 19 20 20 20 19 18 19 20 20 19
22 27 31 35 37 35 33 31 29 26 24 23 21 18 16 13 7 11 9 7 4 1 2 4 8 11 13 15 16 17 18 18 19 20 20 20 19 18 17 17 18 20 18 18
24 30 35 36 35 35 33 33 31 29 27 26 23 19 16 12 10 10 8 5 2 1 3 6 10 12 14 15 17 18 18 19 20 19 19 19 18 17 16 17 18 18 16 14
28 33 36 36 34 32 32 30 29 28 25 23 22 20 15 12 11 8 5 3 0 3 6 9 11 13 14 16 18 19 20 20 20 20 19 18 18 17 17 18 18 17 15 13

GFSNGP_850_spd_012.txt.gz
Wind_Speed
20 23 22 23 26 20 22 28 17 28 20 23 15 15 16 17 17 19 12 17 8 8 13 18 23 29 35 36 36 35 33 31 31 30 27 24 22 18 15 11 9 8 9 11
16 20 23 23 23 21 18 24 26 28 27 25 22 14 16 20 20 19 21 16 9 11 16 21 28 33 36 36 35 33 31 31 29 27 25 22 19 15 11 9 8 9 10 12
8 14 22 9 7 11 7 12 20 20 24 12 8 10 14 20 25 20 16 9 12 15 18 25 30 33 35 35 33 32 30 29 27 25 22 19 14 11 8 7 8 9 11 13
8 12 4 5 5 10 13 16 17 22 23 17 14 19 26 26 19 12 5 11 15 19 25 27 30 32 33 33 32 29 28 26 24 22 18 15 11 8 6 7 8 10 11 13
3 4 11 4 8 6 4 6 5 18 21 18 14 9 13 2 3 2 9 14 18 23 26 29 31 32 32 32 30 28 26 24 20 16 14 11 8 6 6 7 9 10 12 15
1 4 4 7 6 2 2 3 12 11 13 12 4 3 4 8 10 12 13 19 24 27 28 30 31 31 30 30 28 25 23 20 17 14 11 8 7 6 6 6 9 11 14 15
6 5 6 4 5 4 5 7 16 14 2 9 5 3 5 6 11 14 16 21 26 28 30 30 31 30 29 28 25 22 20 17 15 12 10 7 5 4 5 7 10 12 14 15
4 4 3 3 3 3 4 11 10 6 1 8 5 6 9 13 14 16 22 26 28 29 29 28 28 27 27 24 22 20 17 15 13 11 7 4 2 3 6 9 11 12 14 15
5 3 2 3 8 8 7 8 6 2 5 9 13 10 12 15 16 19 22 26 28 31 30 28 25 21 23 22 20 18 16 14 10 7 5 2 2 5 8 10 11 13 16 18
3 3 5 5 5 6 9 4 3 4 10 12 16 16 17 18 19 20 22 26 29 30 30 29 24 21 18 21 19 16 14 11 8 5 2 1 4 6 9 11 13 15 16 18
5 9 9 5 4 4 5 5 9 12 12 15 20 19 20 20 21 23 26 28 30 30 30 28 24 21 20 19 17 14 11 8 6 3 1 3 6 8 10 12 14 16 17 19
2 1 2 3 1 2 5 7 10 16 19 19 21 24 24 25 25 28 30 31 30 29 27 27 24 22 21 17 13 9 8 6 4 1 3 5 8 10 12 13 15 17 19 19
2 1 2 2 4 5 9 10 13 18 20 25 25 28 27 30 30 31 31 29 27 27 26 25 23 21 18 14 11 8 6 4 2 2 5 7 9 11 14 16 19 19 18 18
12 6 2 7 3 9 12 15 17 21 23 26 29 29 31 32 31 29 28 27 26 26 25 23 20 17 14 11 8 6 3 2 2 4 7 9 11 13 16 19 22 21 18 18
13 13 5 7 11 14 15 20 23 25 26 27 27 30 30 31 30 28 27 26 25 23 21 18 16 14 12 9 6 3 2 3 4 7 9 11 13 15 18 19 19 19 20 19
13 12 9 11 17 19 21 24 26 27 27 28 28 28 28 28 28 27 25 22 21 21 19 16 14 12 9 6 4 2 2 4 6 9 10 12 15 17 18 18 18 18 18 19
13 10 14 17 22 23 24 25 26 29 29 29 29 28 27 27 26 25 23 20 17 17 16 13 11 9 7 5 3 2 4 6 9 10 12 15 17 17 17 18 18 19 20 20
13 11 17 16 25 27 27 27 31 30 30 29 28 27 26 25 25 25 22 20 18 17 14 12 9 7 5 2 1 3 6 8 10 12 15 16 16 17 18 18 19 19 20 21
13 6 11 14 24 28 29 29 30 29 29 28 26 25 23 23 23 21 20 18 16 14 14 11 8 5 2 1 3 6 8 10 12 14 15 15 16 17 18 18 19 20 20 20
12 8 13 17 24 26 29 30 31 30 28 27 26 26 25 23 21 21 20 18 15 11 11 8 6 3 0 3 5 8 9 12 14 15 15 16 16 17 18 19 19 19 19 20
12 12 15 20 27 27 29 32 32 31 29 26 25 26 25 24 22 19 18 16 14 12 9 7 4 0 3 5 7 9 12 14 14 14 15 16 17 18 19 19 19 18 19 20
13 15 19 25 28 30 32 32 30 29 28 28 26 25 25 24 22 19 15 10 13 11 7 4 1 2 5 7 9 12 14 14 14 16 17 17 18 19 19 19 18 17 18 19
14 17 22 28 31 34 34 32 30 29 29 27 25 24 22 21 19 17 15 14 11 8 5 3 2 4 6 9 11 13 14 15 16 17 17 18 19 19 19 18 17 17 18 18
15 19 25 29 32 35 35 33 30 28 26 25 22 20 20 21 19 15 11 12 9 5 4 2 3 6 9 11 13 14 15 16 17 18 18 19 19 18 18 17 16 17 17 16
18 21 25 30 35 36 34 33 31 29 27 26 24 21 18 16 10 14 13 10 7 4 3 3 5 9 11 13 14 15 16 18 18 19 19 19 18 18 17 16 15 17 17 16
19 23 28 34 36 36 36 35 34 32 30 29 27 23 20 15 14 13 12 8 5 3 2 4 7 11 12 14 15 16 17 18 19 19 19 18 18 17 16 16 16 17 17 15
22 26 31 32 33 34 34 32 32 32 29 27 27 24 18 16 15 12 9 6 4 1 3 7 10 11 13 15 17 18 18 19 19 19 18 18 17 17 17 17 17 17 16 14

GFSNGP_850_spd_015.txt.gz
Wind_Speed
17 22 20 21 24 24 20 20 17 31 24 24 19 15 18 30 26 18 13 14 16 6 8 13 19 23 24 28 28 32 36 35 33 33 30 28 26 22 18 15 12 9 8 8
12 21 20 19 23 18 17 19 19 25 29 24 20 10 8 13 18 15 12 18 18 9 12 17 19 21 25 31 34 35 35 35 34 31 28 25 21 17 14 12 9 7 7 9
6 10 20 9 4 6 8 11 9 9 18 17 12 11 15 21 22 18 24 21 8 12 16 16 20 26 33 37 38 38 37 33 31 29 25 21 17 14 12 10 7 6 7 10
6 11 3 3 2 6 10 16 10 15 18 17 13 12 17 23 24 21 14 8 12 15 17 21 26 31 35 36 34 32 30 31 29 26 21 17 16 12 10 7 5 6 9 11
3 6 17 4 6 3 4 8 11 11 14 9 7 8 2 10 4 4 11 14 16 19 22 26 29 33 34 31 30 28 27 25 21 18 18 15 13 11 7 4 5 7 9 11
1 4 4 6 10 1 3 2 15 13 11 6 5 4 3 9 9 15 18 17 23 24 25 29 31 30 29 30 28 26 25 22 20 17 15 13 10 6 3 4 5 8 10 12
5 4 7 14 7 2 4 7 14 13 11 7 4 5 7 8 13 13 17 21 23 24 27 26 26 27 29 28 26 24 22 21 19 16 13 9 6 3 2 4 6 8 10 11
4 4 6 2 5 4 6 10 10 10 6 7 11 9 12 14 17 18 22 22 23 27 26 23 24 25 26 24 23 22 20 18 15 12 9 6 3 1 3 5 6 8 10 11
5 3 5 8 11 12 9 10 9 6 2 6 11 10 11 17 16 18 20 22 22 25 26 23 22 20 23 24 21 18 15 13 11 9 5 3 1 2 4 6 8 9 11 12
5 2 6 11 7 3 7 7 4 1 4 6 14 13 13 14 16 18 20 22 23 25 24 24 21 20 19 20 17 15 13 11 8 5 3 1 1 3 6 7 8 10 12 14
9 14 12 3 5 3 3 3 5 6 6 11 15 15 15 16 16 19 21 23 23 24 25 25 22 21 19 17 15 13 10 8 6 4 1 1 3 5 7 9 10 13 15 18
5 5 6 5 3 3 3 5 6 9 11 12 14 18 17 17 17 20 23 24 25 26 25 25 22 20 18 15 12 9 8 6 4 2 0 2 5 8 9 10 13 16 17 19
10 0 3 4 2 1 3 6 9 11 12 15 14 18 21 22 19 22 24 26 27 26 23 22 20 19 16 13 10 8 6 5 3 2 1 4 6 8 9 14 18 20 22 19
8 6 4 5 2 4 6 9 13 14 15 16 18 19 21 27 27 26 25 25 24 22 21 20 19 16 14 11 9 7 5 4 2 1 3 6 8 11 13 16 18 17 16 18
9 10 9 5 7 9 10 13 16 17 18 18 18 22 25 28 27 25 24 23 21 20 20 17 15 14 12 10 8 6 3 1 1 4 6 8 11 14 16 16 16 17 18 16
9 10 10 9 11 13 15 15 18 20 19 20 22 23 24 24 25 24 22 20 19 19 17 16 14 13 11 9 6 3 1 2 4 6 9 11 14 15 14 15 16 16 17 17
8 8 14 15 16 17 18 18 19 22 23 24 25 24 25 25 24 24 23 20 17 17 16 14 13 11 9 6 3 1 2 5 7 9 11 14 15 14 15 16 16 16 17 17
10 10 11 13 17 20 20 20 22 25 26 26 26 26 25 25 25 24 22 20 19 17 15 13 11 8 6 4 1 2 4 7 9 11 14 15 14 15 16 16 15 16 18 18
14 11 9 14 17 23 25 25 26 28 27 28 27 26 24 23 23 22 21 19 17 16 14 12 9 7 4 1 2 4 6 9 11 13 14 14 15 15 15 15 16 17 16 17
10 10 9 13 19 25 26 26 28 28 28 28 28 26 25 23 23 21 20 18 15 13 12 11 8 5 2 2 4 6 9 11 13 14 14 15 15 15 15 16 16 16 16 16
7 8 11 16 21 24 26 28 31 31 30 27 26 25 25 24 22 21 19 17 15 14 11 9 6 3 2 4 7 9 11 13 14 14 15 16 16 16 16 16 17 17 16 17
6 8 12 16 21 24 26 30 30 30 30 29 26 25 25 24 23 21 17 13 14 13 10 7 4 3 4 6 9 11 13 14 14 15 17 17 17 18 18 18 18 17 16 17
7 8 12 18 22 25 28 29 29 29 29 27 25 25 23 22 21 20 18 15 13 11 8 5 3 3 6 9 11 13 14 15 16 18 18 18 18 19 19 19 18 17 16 17
8 10 15 20 23 27 31 30 29 28 25 25 24 23 23 24 21 17 12 14 13 9 6 3 2 5 8 11 13 14 15 17 18 19 19 19 19 19 19 18 17 16 16 17
11 12 15 21 26 31 32 31 29 28 26 26 25 23 22 20 15 16 15 13 11 7 4 3 5 8 10 12 13 15 17 18 19 20 19 19 19 19 18 17 17 17 17 16
11 13 16 21 28 31 32 32 32 31 29 28 26 24 22 18 14 14 14 11 8 5 3 4 6 9 11 13 15 17 18 19 19 20 19 19 18 18 18 17 17 16 16 15
12 15 20 23 25 29 32 33 33 33 29 29 28 26 22 17 17 15 12 10 7 4 4 5 8 10 12 14 16 17 17 18 18 19 19 19 19 19 18 17 17 16 15 14

GFSNGP_850_spd_018.txt.gz
Wind_Speed
9 13 13 13 16 16 16 18 13 24 26 28 26 22 20 23 27 19 14 14 9 10 8 10 11 12 26 32 33 31 31 34 37 38 38 36 34 29 25 24 20 15 10 8
9 15 16 15 17 18 18 19 18 21 25 20 20 10 9 12 14 12 14 13 15 12 7 10 15 24 24 24 21 24 31 37 38 37 36 34 31 27 23 19 15 11 8 6
4 9 11 6 5 5 9 12 11 10 15 20 16 7 7 10 14 14 16 18 16 8 14 18 19 20 20 20 23 32 37 38 38 37 32 25 28 23 21 16 10 6 5 6
4 9 2 2 8 6 8 14 13 10 12 10 13 15 11 12 12 13 14 16 7 13 17 16 16 18 24 29 34 37 38 36 30 28 25 25 21 19 14 10 7 4 4 8
2 2 8 3 3 3 2 6 6 7 8 3 2 3 9 21 13 6 9 14 14 13 13 15 20 24 31 34 32 29 27 28 27 28 27 21 17 15 11 7 4 4 7 9
1 3 3 3 4 7 5 4 3 5 8 4 10 3 2 14 12 16 16 13 12 12 14 19 25 28 28 27 26 30 30 28 26 21 20 19 14 10 7 3 3 5 6 7
6 3 7 7 1 6 2 5 13 10 9 9 3 3 5 9 11 12 14 17 18 21 25 26 25 28 33 32 29 23 22 22 22 21 17 13 10 7 3 2 2 3 5 7
3 3 6 0 3 2 3 11 12 9 5 11 11 10 13 16 17 19 22 22 23 28 28 27 31 29 29 29 29 28 27 25 22 18 14 10 6 3 2 1 2 4 6 8
7 5 7 7 8 6 6 9 9 4 5 7 14 12 15 18 20 21 24 25 25 27 28 22 20 22 27 27 27 27 24 21 18 13 9 6 5 4 2 1 3 5 7 10
3 3 4 7 6 5 7 7 4 1 7 8 16 16 18 19 17 19 22 25 25 26 27 26 24 25 27 27 23 20 17 15 12 10 9 7 4 2 2 4 6 8 11 14
5 9 8 7 7 5 6 4 4 6 7 8 15 17 19 20 20 21 23 22 23 25 28 28 26 25 22 20 17 16 15 13 11 9 6 4 3 4 5 7 9 12 14 16
4 3 2 1 6 4 2 3 3 8 13 11 12 16 18 20 22 23 22 22 25 27 26 26 23 21 19 17 13 11 11 9 7 5 4 4 5 5 7 9 12 14 15 16
12 4 4 4 4 2 2 5 7 9 11 15 14 16 18 21 20 20 22 24 25 25 24 22 20 19 16 13 9 8 7 7 5 4 4 5 6 7 9 11 13 15 15 17
11 11 6 5 3 2 4 7 10 12 14 14 16 17 18 21 22 23 25 24 23 22 21 19 17 15 12 8 6 6 5 4 3 3 4 6 7 9 11 14 15 15 14 15
18 12 10 7 5 5 8 12 14 15 17 18 16 20 22 24 25 24 23 22 20 19 19 16 13 12 9 7 5 4 3 2 2 4 5 7 9 11 13 14 14 16 16 16
5 12 12 11 9 10 13 16 17 19 18 19 21 23 23 24 25 24 22 19 18 19 16 13 11 10 7 5 4 2 1 2 4 6 7 9 12 13 13 14 15 16 16 17
10 7 10 12 14 15 17 16 18 20 21 22 23 23 23 23 23 23 21 19 16 15 13 11 9 9 7 4 2 1 2 3 5 7 10 12 13 13 14 15 15 16 16 17
18 13 12 11 17 16 18 18 19 20 23 24 24 24 24 24 23 22 20 18 16 15 13 11 9 7 5 3 0 2 4 5 7 9 12 13 13 13 14 15 16 17 17 17
11 14 9 8 11 15 19 20 21 23 24 24 24 24 23 21 20 20 18 16 15 13 13 11 9 6 4 2 2 4 5 7 9 12 13 13 14 14 15 16 16 16 17 17
6 7 6 7 11 15 21 20 22 22 24 25 25 24 23 21 20 19 17 16 13 11 11 10 7 5 4 3 3 5 7 10 12 13 13 15 15 15 16 16 16 16 17 16
2 2 5 10 11 14 17 19 23 26 27 26 24 23 22 22 21 19 18 17 15 13 11 9 7 5 3 4 5 7 10 12 13 14 15 16 16 16 16 16 16 17 17 16
5 2 5 11 14 17 19 21 25 27 28 27 24 22 23 23 21 19 15 11 13 13 11 9 6 4 4 5 7 10 12 14 14 15 16 17 17 17 17 17 17 17 15 14
6 4 5 10 14 17 20 23 25 28 28 27 25 24 24 23 21 20 19 16 14 12 10 7 5 4 5 7 10 12 13 14 15 16 17 17 17 17 17 16 16 15 14 14
6 4 6 8 13 18 22 24 26 27 26 24 22 22 22 23 21 17 13 14 15 12 9 6 4 4 6 9 11 13 14 16 16 17 17 17 17 16 15 15 15 14 14 14
7 6 6 9 14 20 23 25 26 26 26 24 24 23 20 18 15 17 15 15 13 10 7 5 4 5 8 10 11 13 15 16 16 16 16 16 16 16 15 15 15 15 15 14
7 6 6 10 16 19 23 26 28 28 27 27 25 22 21 20 16 15 15 14 11 9 6 4 4 6 9 10 12 13 14 15 15 16 17 17 17 17 16 15 15 14 14 13
9 8 8 12 15 17 22 27 29 30 28 27 25 23 22 20 16 16 15 13 10 8 5 4 5 7 9 11 12 13 13 14 15 16 16 17 17 16 15 14 13 12 12 11

GFSNGP_850_spd_021.txt.gz
Wind_Speed
6 8 5 7 10 11 11 16 11 24 22 27 24 22 25 16 9 15 19 18 25 23 14 16 16 19 16 25 30 37 38 37 33 36 35 37 36 35 34 30 28 26 24 19
6 10 8 6 11 14 15 18 19 23 27 20 20 24 24 16 13 13 14 13 15 17 20 15 10 9 15 23 27 33 35 32 35 36 36 37 36 32 28 27 27 22 19 14
4 5 7 3 6 10 5 8 9 9 14 16 17 9 12 16 15 14 16 15 16 13 9 10 8 8 22 16 23 28 31 32 34 34 34 33 32 30 26 23 17 15 12 9
3 5 1 1 5 7 9 11 10 11 14 12 15 1 12 17 19 14 10 9 8 10 14 11 11 16 21 27 28 27 29 31 31 32 29 26 22 21 22 19 16 10 7 8
2 2 6 3 4 5 5 7 4 6 8 10 10 4 4 14 13 11 7 9 12 13 10 10 12 16 17 23 23 26 29 30 27 24 24 24 23 21 18 14 11 12 8 6
1 2 3 3 2 5 4 4 4 6 5 5 9 1 2 8 7 9 10 9 10 11 13 12 12 13 15 17 19 21 23 26 26 29 26 24 21 17 16 13 9 5 4 4
4 3 6 7 4 9 2 4 1 3 3 4 2 1 1 3 7 9 8 8 9 10 12 14 14 14 16 19 23 27 26 25 24 22 19 19 19 16 12 7 7 5 3 4
3 4 7 6 4 3 5 3 4 2 2 6 9 9 9 12 10 10 12 14 15 19 22 22 19 22 25 26 24 21 21 21 20 18 18 16 13 12 9 6 3 2 3 6
7 5 8 5 8 7 7 9 6 3 6 7 12 12 13 14 15 18 17 17 20 21 21 20 21 22 22 23 19 20 22 23 22 19 16 13 10 7 5 3 2 3 4 7
1 5 4 4 0 5 8 6 4 4 8 11 15 16 17 17 17 17 15 19 21 21 21 20 19 19 20 20 20 21 22 20 18 14 12 9 6 3 2 0 2 4 7 9
5 9 3 1 3 6 5 2 1 5 9 10 15 18 18 18 19 19 18 18 18 20 21 22 21 21 20 20 19 18 16 14 11 9 7 6 4 2 0 2 4 7 9 11
5 6 3 3 6 5 4 2 3 6 11 11 14 18 18 19 19 18 19 20 20 21 23 23 21 20 19 17 15 13 14 13 11 8 6 4 2 0 3 5 8 11 12 12
10 12 11 7 5 4 3 3 5 8 9 15 15 17 20 20 18 19 20 22 24 24 24 23 22 20 18 16 13 11 10 10 8 6 4 2 2 2 4 7 10 10 10 11
24 15 7 9 6 3 3 5 8 10 11 12 16 16 18 20 20 20 22 25 23 24 24 22 21 19 16 13 11 10 9 8 5 4 3 3 4 6 9 10 10 10 10 11
10 8 14 9 7 6 6 8 12 14 15 16 16 17 19 22 23 24 24 22 22 22 22 20 17 17 14 11 9 8 6 5 3 2 3 5 7 9 10 10 11 12 12 12
14 8 7 9 9 10 11 14 15 17 17 18 18 19 21 23 27 26 24 22 23 22 20 17 14 14 12 9 6 5 3 2 2 3 5 7 9 10 11 11 12 13 13 14
13 13 11 12 13 14 17 16 16 18 20 19 20 21 23 23 24 24 23 20 18 17 15 13 11 11 9 6 3 1 0 2 4 5 8 10 11 11 12 12 13 13 14 14
15 18 15 13 13 16 18 18 18 20 20 21 23 24 25 25 24 25 23 21 19 17 14 12 9 8 6 4 2 1 2 4 6 8 10 11 12 12 13 13 14 14 14 13
10 10 12 13 10 14 17 19 19 21 21 23 25 25 24 22 21 21 20 19 17 15 14 12 9 6 5 3 1 3 4 6 8 10 12 12 12 13 14 13 14 14 14 15
7 7 8 8 9 14 19 19 20 21 21 23 24 25 24 22 21 20 18 16 13 11 11 11 9 6 4 1 3 4 6 8 10 12 12 14 14 14 14 14 14 14 14 14
9 4 2 5 8 11 14 16 19 21 21 24 24 24 23 22 21 20 20 19 16 14 12 9 7 5 3 3 4 6 8 10 12 12 13 15 15 15 15 14 14 15 14 13
9 6 1 5 7 10 13 16 20 20 24 25 25 24 24 23 22 19 15 12 14 13 11 9 6 4 4 4 6 8 10 12 12 14 15 15 15 15 14 14 14 13 12 11
9 6 3 4 7 10 12 16 17 20 24 25 26 25 23 21 21 21 20 17 14 12 10 8 6 5 4 5 8 10 11 12 14 14 15 15 14 14 13 13 12 12 11 11
11 8 5 4 7 10 14 16 17 20 23 24 23 20 19 21 20 17 14 14 14 13 10 8 6 5 5 7 9 10 12 13 13 14 13 13 13 13 12 12 12 12 11 11
11 9 7 6 7 11 14 16 18 21 23 23 21 21 18 17 16 17 16 15 14 12 10 8 6 5 6 8 9 10 12 12 12 12 12 13 14 13 13 12 13 13 12 11
10 8 7 7 8 10 13 17 21 23 25 26 24 22 19 17 17 15 16 14 13 12 9 7 5 5 7 8 9 11 11 11 11 11 12 13 13 13 13 13 12 12 12 11
12 9 8 8 9 10 13 18 21 25 26 26 26 27 23 18 18 17 16 15 13 11 9 6 5 6 7 8 9 10 10 10 10 10 10 12 13 14 14 13 12 11 11 10

GFSNGP_850_spd_024.txt.gz
Wind_Speed
5 7 5 6 8 8 9 14 8 18 17 25 23 20 21 16 27 24 15 18 14 16 18 28 29 23 22 24 24 21 23 30 32 32 31 31 33 33 31 31 31 34 31 26
5 6 8 7 11 12 14 16 17 20 24 23 27 21 15 14 19 22 21 19 20 17 16 15 19 17 16 13 13 18 26 27 28 30 32 32 34 33 31 31 31 26 23 20
4 4 5 5 9 11 5 7 7 8 12 12 14 13 5 13 17 20 20 17 17 16 11 9 9 9 9 8 14 22 26 29 32 34 33 32 29 25 26 27 26 22 17 15
4 5 1 3 1 5 8 7 9 9 13 12 11 9 3 11 14 14 13 12 5 3 4 5 5 7 9 10 16 21 23 27 29 28 29 25 24 26 23 22 22 21 22 18
2 3 6 4 3 5 6 7 5 7 8 11 14 2 3 12 11 11 10 7 3 0 1 2 4 7 7 10 13 15 18 18 22 22 21 22 22 24 26 23 18 15 14 10
2 1 3 4 0 4 4 4 4 7 8 6 7 3 2 11 9 7 6 4 3 3 3 3 7 8 9 15 17 22 25 26 24 24 26 26 24 21 18 16 14 9 6 5
4 3 7 7 4 6 2 4 7 8 11 5 3 2 2 5 6 6 5 4 5 5 6 8 8 11 15 17 20 21 22 23 24 25 25 23 20 18 17 13 10 9 7 6
4 4 7 7 5 3 4 6 8 9 8 6 6 7 4 3 5 7 8 8 8 10 14 12 11 13 18 19 20 21 21 22 21 20 19 17 15 15 11 8 7 5 4 4
7 5 6 4 8 14 11 13 12 8 8 8 11 10 7 7 8 9 9 12 12 13 13 13 15 19 20 21 20 21 20 21 20 19 16 13 10 8 6 5 4 3 4 6
1 4 6 17 13 7 10 11 11 8 8 11 13 14 13 10 10 10 10 12 12 12 13 13 14 14 16 17 18 19 17 16 14 12 11 10 8 7 5 4 3 3 6 9
5 8 12 5 5 7 10 9 8 6 7 10 13 17 16 14 12 12 13 13 14 14 14 14 15 18 16 15 14 14 14 13 12 10 9 8 6 4 2 3 4 6 8 10
4 8 6 8 7 9 11 10 7 6 9 10 13 17 18 17 15 15 14 13 14 13 14 16 15 14 13 12 10 10 12 12 11 8 7 5 3 2 2 5 8 9 9 10
7 13 13 16 16 13 10 9 6 7 8 11 14 16 19 18 16 15 15 15 16 16 16 18 16 14 13 11 9 7 6 8 7 6 4 2 2 2 4 6 8 9 10 11
14 13 13 17 12 9 8 7 6 7 8 10 12 15 17 18 18 17 18 18 16 17 17 16 14 15 13 11 9 8 8 7 5 4 2 2 2 4 7 8 8 9 10 11
16 11 14 15 11 10 9 9 9 9 11 13 13 15 18 19 19 19 19 19 17 18 17 16 15 14 12 10 9 7 6 5 4 2 1 3 5 7 9 9 10 11 11 11
21 13 9 8 9 11 11 12 12 14 15 12 15 16 17 18 20 20 21 20 22 21 18 16 14 13 12 10 8 6 5 4 2 1 3 5 8 9 9 10 11 12 12 12
17 13 11 14 12 11 14 14 14 15 16 17 17 17 19 21 21 23 22 21 18 17 16 14 12 12 11 8 6 5 3 1 2 4 6 8 10 10 10 11 12 12 12 12
11 15 17 19 15 14 15 17 16 17 19 16 16 20 22 24 25 25 23 22 21 19 16 14 12 11 9 8 5 2 2 3 5 7 9 11 11 11 12 13 13 13 13 12
9 9 6 8 12 14 13 18 18 18 20 17 21 24 23 24 24 23 23 23 22 20 18 15 13 10 8 5 3 3 4 6 7 9 11 11 11 13 13 13 13 13 13 13
10 6 4 3 5 6 10 15 17 18 20 20 23 24 24 23 23 22 21 20 17 15 14 14 12 9 6 5 4 4 6 7 9 11 11 12 13 14 14 13 13 13 13 14
12 11 8 5 4 5 6 11 14 16 19 20 23 24 23 22 22 21 22 21 19 16 15 13 10 8 7 5 5 5 8 10 11 11 12 13 14 14 13 13 13 13 13 13
11 10 8 5 5 4 5 8 13 15 19 20 22 22 23 22 22 22 19 16 17 17 15 13 11 9 6 5 5 7 9 10 11 12 13 14 13 13 13 13 12 12 12 12
11 10 8 6 5 6 7 10 13 14 17 19 21 22 22 21 22 23 22 20 17 16 15 13 11 8 6 6 7 9 10 11 12 12 13 13 13 13 13 12 12 13 13 12
12 9 7 6 6 7 9 11 14 15 15 17 19 20 20 21 22 21 17 15 16 16 15 12 10 8 7 7 8 9 10 11 12 12 12 12 13 13 13 14 14 13 13 13
12 11 9 7 5 6 8 10 12 14 16 19 21 20 20 18 18 19 19 16 16 16 14 12 9 8 8 8 9 9 11 11 11 11 11 11 11 12 12 12 13 13 12 11
10 10 9 8 7 6 8 10 13 15 18 22 24 23 22 19 17 16 18 16 16 16 14 12 9 8 8 8 8 10 10 10 10 10 9 10 11 12 13 13 13 12 11 11
11 11 10 9 8 7 8 10 13 15 19 22 24 25 25 24 21 20 19 18 18 16 14 12 10 9 8 8 9 10 10 9 8 8 9 11 13 14 14 13 13 12 11 11

GFSNGP_850_spd_027.txt.gz
Wind_Speed
4 6 4 6 5 7 8 8 6 5 9 18 19 18 21 18 18 21 27 26 21 20 19 18 20 22 26 26 25 23 22 19 18 19 21 24 26 27 30 31 31 31 30 32
4 4 5 5 9 10 10 11 14 17 22 24 29 18 17 10 15 19 23 23 21 17 15 17 15 16 15 16 16 15 15 12 12 16 21 23 26 28 30 29 26 23 26 27
4 5 6 6 11 12 5 6 10 9 13 6 10 11 11 11 14 17 18 18 20 16 13 14 15 15 13 10 10 11 11 11 13 16 19 23 26 27 27 24 23 25 24 22
3 4 1 5 4 6 12 7 11 10 11 13 10 17 7 8 13 14 16 17 16 15 14 12 11 12 9 3 11 9 9 10 14 17 19 20 20 19 21 23 24 24 22 17
1 2 7 4 4 6 6 6 8 13 12 13 10 7 3 8 11 11 13 12 12 12 11 10 9 9 5 3 2 6 8 8 10 11 14 17 22 22 23 23 21 19 17 16
3 2 4 3 1 4 4 4 5 9 6 6 7 3 2 7 9 10 9 9 9 9 9 7 7 6 3 8 11 14 17 19 18 19 23 25 24 25 23 19 17 15 13 9
4 3 7 6 5 5 2 4 2 7 10 8 4 4 2 3 6 11 10 7 7 7 8 8 8 7 9 11 13 14 15 15 17 20 20 20 21 19 17 14 12 9 6 5
4 4 7 6 5 3 4 10 10 11 11 9 8 6 3 3 4 9 10 8 9 9 10 10 9 10 15 17 16 17 20 21 22 20 18 16 15 15 14 10 8 7 4 3
7 5 4 7 7 12 16 13 12 13 10 7 7 9 6 6 6 7 8 9 8 8 10 12 13 14 17 19 17 18 19 19 19 19 18 14 11 11 10 8 6 5 4 4
0 4 7 13 17 12 7 11 12 11 9 7 8 10 10 9 9 8 8 7 7 8 11 13 12 13 14 16 16 17 18 17 16 14 13 11 9 8 6 4 2 2 4 6
4 7 13 11 7 5 8 11 12 10 7 6 8 11 13 12 11 9 10 8 8 8 9 10 11 13 14 14 14 13 13 12 11 10 9 8 7 6 4 2 1 3 6 8
3 6 8 15 12 15 13 13 12 10 7 7 8 11 14 14 13 11 11 11 9 9 11 13 12 13 12 11 8 6 7 8 7 6 6 5 3 2 3 5 7 10 11 11
5 19 26 28 27 21 18 14 10 8 7 8 9 12 15 15 13 12 12 12 12 12 11 12 11 10 10 9 6 4 4 6 5 4 2 2 2 3 6 8 10 11 10 10
16 14 11 14 14 11 11 11 9 7 6 7 8 12 14 15 15 15 14 13 12 12 12 11 9 9 9 7 5 4 3 3 2 2 2 2 4 5 7 9 9 9 10 11
9 14 17 20 18 16 13 11 10 9 7 9 10 12 15 16 16 15 15 15 13 14 14 11 10 9 8 6 4 3 1 1 1 2 4 5 7 8 10 11 11 12 12 11
25 23 19 15 12 10 11 13 14 12 11 11 12 13 12 13 15 15 16 16 16 17 14 11 10 9 8 6 5 4 4 4 4 4 5 7 9 11 11 11 11 13 13 13
18 17 15 12 14 15 13 11 13 12 13 14 14 12 15 17 16 17 18 17 16 15 13 11 10 10 9 8 7 5 4 4 5 6 8 10 11 12 11 12 13 14 13 13
13 16 16 17 20 19 15 13 14 14 15 14 14 14 16 18 18 20 20 19 19 18 15 13 11 11 10 8 6 5 5 5 6 8 10 11 12 12 13 14 14 14 14 13
9 12 12 12 11 12 15 15 14 14 15 16 17 17 16 17 19 20 21 21 20 19 18 16 13 12 10 8 7 5 5 6 8 10 12 13 13 14 14 14 14 14 14 14
8 8 8 5 4 5 7 8 10 14 15 17 17 17 19 18 20 21 21 20 18 16 16 15 14 12 10 8 6 5 6 8 10 12 13 13 14 14 14 15 15 14 14 14
11 10 10 6 6 6 6 7 10 13 14 16 16 17 19 19 20 21 22 21 19 18 16 15 14 12 10 7 6 7 8 10 12 13 14 15 15 15 14 14 14 14 13 13
13 11 10 9 7 6 4 3 7 10 11 14 16 17 19 20 21 21 20 18 19 19 17 16 14 12 9 8 7 8 10 12 13 14 14 15 14 14 14 15 14 14 14 14
14 13 11 9 8 6 6 5 5 7 9 11 13 16 18 19 21 23 22 21 20 18 16 16 14 12 10 9 8 9 11 12 13 14 14 13 14 14 15 15 14 14 14 14
14 13 11 10 8 7 5 5 7 9 10 10 12 15 17 20 21 20 18 18 17 17 17 16 15 13 11 9 9 10 12 13 14 14 13 12 12 12 13 14 14 14 14 14
14 15 14 12 9 7 6 6 6 8 11 13 16 19 18 17 19 16 19 18 17 17 18 17 15 12 11 10 10 11 12 13 13 12 11 11 10 11 13 14 14 14 12 12
14 14 13 13 13 11 9 8 8 8 10 13 16 20 19 19 19 15 16 18 17 17 18 17 15 12 11 10 10 11 12 12 11 10 10 10 11 13 15 15 15 14 14 13
11 12 13 11 10 11 11 10 9 9 10 12 15 19 21 21 22 24 20 17 17 18 18 17 14 12 10 10 11 12 12 11 10 9 9 11 13 14 14 14 13 13 13 13

GFSNGP_850_spd_030.txt.gz
Wind_Speed
4 4 3 4 4 8 8 6 6 3 6 11 14 14 20 23 18 19 23 23 22 19 18 18 18 19 20 19 19 18 19 19 21 20 16 13 13 17 19 19 21 25 27 27
4 3 4 5 9 9 11 11 12 13 19 18 23 17 13 14 15 17 16 18 19 19 18 19 19 19 17 16 14 10 8 10 12 10 9 10 12 15 17 19 21 22 21 21
4 3 5 5 8 12 7 6 9 8 13 7 9 7 12 17 14 17 16 17 17 18 18 18 18 17 15 13 13 13 9 12 8 7 6 7 11 14 15 17 18 18 19 22
2 4 1 3 4 6 11 5 11 6 9 9 11 17 15 9 13 13 13 13 15 16 16 16 16 15 13 11 10 6 3 2 2 3 4 6 7 8 9 11 15 17 21 20
2 2 6 3 3 6 5 3 9 13 13 15 12 10 5 5 9 10 9 10 13 14 14 14 15 15 12 9 7 5 6 7 8 8 9 11 12 13 15 18 20 20 20 18
2 2 3 4 0 4 3 1 2 8 7 4 3 3 3 4 7 8 7 11 14 14 13 13 15 13 11 11 9 11 9 8 8 8 11 14 16 18 19 19 21 19 16 12
4 3 6 6 4 4 1 3 4 4 8 8 4 6 2 1 5 9 12 13 14 15 15 16 16 15 15 14 15 13 13 13 15 15 15 18 20 20 18 16 14 12 10 8
5 4 7 6 6 4 3 6 9 9 9 10 10 8 5 4 3 8 11 14 15 13 14 14 13 13 16 18 16 16 17 17 18 17 18 17 15 15 13 12 12 11 8 6
7 5 4 3 4 8 14 14 7 10 10 9 8 8 8 8 7 7 9 9 9 9 11 11 12 12 14 16 15 16 16 16 16 17 16 14 12 12 12 9 7 7 5 3
1 3 6 13 17 17 9 6 10 11 10 8 8 9 11 10 10 9 8 8 8 7 7 9 10 10 12 13 12 12 13 13 12 11 11 10 9 8 6 6 4 3 2 3
4 5 9 0 7 8 8 11 14 13 10 7 8 11 12 12 12 10 8 7 7 8 7 8 9 9 10 10 10 9 10 10 9 8 8 7 6 6 4 3 3 4 5 7
4 3 4 10 20 20 22 19 17 15 12 8 9 11 13 14 12 11 10 10 10 9 9 10 9 10 10 9 7 5 6 7 7 6 5 4 4 3 3 4 7 9 10 10
2 8 14 18 24 21 20 20 18 15 11 9 10 12 14 14 13 12 11 11 10 10 10 10 9 9 9 8 6 4 3 4 4 4 3 4 4 5 7 9 11 12 11 10
10 9 11 11 12 19 17 14 13 12 10 9 9 12 13 15 15 14 13 12 12 11 11 10 9 8 8 6 4 3 2 2 2 2 3 4 6 8 9 10 10 10 11 11
6 8 15 24 27 21 17 14 14 13 11 10 10 11 14 15 15 14 15 14 13 12 12 11 9 8 7 5 4 3 1 0 2 4 5 6 8 9 10 11 12 12 13 14
19 20 19 14 17 14 13 12 14 14 13 12 12 12 12 13 14 14 15 16 16 15 13 12 10 8 7 6 5 3 1 2 4 6 7 8 10 12 13 13 14 14 15 14
17 17 20 17 15 13 13 14 15 13 13 13 12 13 15 18 17 16 17 17 16 15 14 12 10 9 8 7 5 3 4 5 6 7 8 10 12 13 13 14 15 15 15 14
11 14 16 18 20 19 16 16 14 14 14 13 14 15 17 19 17 17 18 19 18 19 17 14 12 9 8 7 6 6 6 6 7 8 10 12 13 13 15 15 16 16 15 14
8 12 13 12 12 13 12 11 14 15 14 14 16 17 17 16 17 17 18 20 20 20 18 16 13 11 9 8 8 7 7 7 8 9 11 13 14 15 16 16 16 16 16 15
7 9 9 8 7 7 6 6 8 10 13 14 16 17 18 17 19 20 20 20 18 17 16 15 13 12 11 10 9 8 8 8 9 10 13 13 15 16 17 17 16 16 15 14
8 9 9 10 9 8 6 5 8 9 11 14 15 17 16 16 19 20 21 21 19 18 16 15 13 12 11 10 9 9 9 9 10 12 13 15 16 16 16 16 16 15 14 13
11 10 10 9 8 8 7 6 5 6 9 10 13 15 14 18 18 19 18 16 18 19 18 16 14 13 12 11 10 9 9 9 11 12 14 15 15 15 15 16 15 15 14 14
13 13 13 12 10 9 7 5 4 4 5 7 10 11 13 16 16 19 19 19 20 18 16 16 15 15 14 11 10 9 9 10 12 13 14 14 13 13 14 14 14 14 14 14
12 12 12 12 12 10 8 6 5 4 4 5 7 9 12 16 15 15 15 16 18 17 16 16 16 16 14 11 10 9 9 11 12 13 13 12 11 12 13 14 15 15 16 16
12 12 13 12 12 12 11 9 8 7 6 8 9 10 14 16 15 13 15 16 17 17 16 17 17 16 13 11 9 9 10 10 11 11 11 10 11 12 14 15 16 16 16 15
13 12 12 13 14 14 12 12 10 8 9 9 9 12 16 17 16 18 16 15 16 15 16 17 17 15 12 11 10 9 10 10 10 10 9 10 11 12 14 14 14 15 15 16
10 11 11 10 11 13 13 12 11 9 8 9 10 10 13 17 18 20 21 20 16 15 16 17 16 14 13 11 10 10 10 10 10 9 9 10 11 13 13 12 13 15 16 17

GFSNGP_850_spd_033.txt.gz
Wind_Speed
2 2 3 3 4 8 7 4 5 3 6 7 9 9 14 18 12 14 14 14 17 17 17 16 16 17 17 17 15 14 13 10 10 18 21 25 22 22 26 16 14 15 15 16
3 1 4 5 8 8 11 7 9 9 17 15 22 8 10 12 10 13 12 14 14 14 14 16 17 17 16 14 14 15 14 10 12 10 8 9 10 13 12 12 12 13 13 15
4 1 4 6 11 14 6 5 10 9 11 4 7 4 12 11 9 11 14 13 13 14 15 16 15 14 13 14 14 11 9 6 6 5 4 4 5 7 7 8 8 9 10 11
3 2 1 4 4 7 14 6 12 7 8 9 11 16 11 6 7 12 11 9 11 12 12 14 12 11 12 11 10 10 8 6 4 4 3 2 2 4 7 7 8 10 12 14
2 3 6 2 3 6 6 1 11 13 13 16 12 7 0 1 7 9 7 9 10 11 13 13 12 13 12 13 12 11 11 10 10 8 7 6 6 8 11 12 14 16 15 15
2 2 4 4 2 5 3 1 3 9 8 6 2 3 2 1 4 5 10 11 11 13 16 17 17 15 15 16 16 16 14 13 12 11 9 9 11 13 15 17 18 17 17 14
4 3 6 6 3 6 3 3 2 4 7 6 3 6 3 4 4 8 11 11 11 12 15 19 20 17 17 19 20 19 17 16 16 15 15 15 15 16 15 15 16 14 12 10
4 3 8 5 5 5 3 2 6 4 5 7 8 7 8 8 8 11 12 11 11 10 11 13 14 15 18 18 19 18 18 19 18 17 17 15 14 14 12 11 11 11 10 9
7 6 5 5 2 3 7 12 3 5 7 7 6 8 10 12 11 12 11 8 8 8 8 12 13 13 16 17 15 14 15 17 16 16 15 15 13 12 11 10 9 8 6 5
1 4 7 13 7 6 5 2 5 9 10 9 7 8 12 14 15 15 13 10 7 7 7 8 11 11 12 13 12 12 13 13 13 11 11 11 10 9 8 7 6 5 3 2
4 5 7 2 3 4 6 11 12 13 14 11 9 10 14 16 18 16 15 13 12 9 8 8 10 10 10 9 9 7 8 10 9 9 9 8 7 7 6 5 5 5 4 4
4 6 2 5 9 14 16 16 15 15 16 13 10 11 14 17 17 17 15 16 15 12 10 11 9 10 10 9 8 5 6 7 7 6 6 5 5 5 4 5 5 5 5 6
5 4 8 13 15 10 10 17 13 11 12 12 10 11 15 18 19 17 18 17 15 13 13 12 10 10 9 9 7 6 5 5 4 3 3 3 3 4 5 8 10 11 11 9
6 7 9 6 6 16 20 19 15 13 11 10 10 11 14 17 19 20 19 17 17 16 15 13 12 11 9 8 6 5 4 3 3 2 2 3 5 7 9 10 10 10 11 11
9 7 11 18 20 21 19 15 13 12 11 11 10 10 14 18 19 19 18 18 18 17 16 15 13 12 10 8 6 5 3 2 1 1 3 5 7 8 10 11 11 12 13 13
10 13 14 13 16 14 12 11 12 10 11 12 12 12 13 15 16 18 19 20 21 20 18 16 14 13 10 8 7 5 4 2 1 3 5 6 8 10 11 12 13 14 14 14
10 8 12 14 14 14 12 12 14 13 12 12 11 12 15 18 20 21 21 20 19 17 17 16 14 13 11 8 7 6 4 2 3 4 6 8 10 11 12 14 15 15 14 13
7 8 10 13 16 17 15 13 14 14 13 11 12 15 18 21 22 22 21 21 22 21 20 17 15 13 11 9 8 6 4 3 4 6 8 10 12 12 14 15 15 15 14 13
4 8 10 10 10 11 12 10 7 10 14 14 15 16 17 18 19 20 21 23 24 22 21 19 17 14 12 10 9 7 5 5 6 7 9 11 12 13 14 15 15 14 14 13
3 5 6 8 7 9 10 6 5 5 7 11 13 16 18 18 19 21 22 24 23 19 19 18 16 14 13 11 9 7 6 6 7 8 10 11 13 14 14 14 14 14 14 13
5 5 7 8 8 8 9 9 9 9 8 9 11 13 15 16 19 21 23 24 21 20 19 17 16 15 13 12 10 8 8 7 8 9 10 11 13 13 13 13 14 14 14 13
9 9 10 10 10 10 9 7 7 7 7 7 9 11 14 16 18 20 22 20 20 20 20 19 17 15 14 13 11 9 8 8 8 9 10 11 11 11 11 12 13 13 13 14
8 9 10 11 11 11 9 7 6 7 6 6 8 11 13 15 17 22 22 21 20 20 19 18 17 16 15 14 11 10 9 8 8 9 10 11 10 9 10 11 12 13 14 14
7 7 9 10 10 10 9 9 7 6 7 7 6 7 9 12 16 19 16 15 16 17 18 18 17 17 16 14 12 10 9 8 8 9 10 9 8 9 10 12 13 13 13 13
8 9 9 8 9 10 10 10 9 7 6 7 8 8 8 9 12 17 18 17 15 16 17 18 17 17 15 14 12 11 9 9 8 9 9 8 8 9 10 12 13 12 12 13
7 7 8 10 11 12 12 11 10 9 8 7 6 7 9 11 15 16 20 18 16 14 17 18 18 18 15 14 13 11 10 9 9 9 9 8 8 9 10 11 11 12 13 15
6 8 8 8 9 11 12 11 10 9 8 8 7 7 8 10 15 17 18 18 22 18 17 18 17 16 15 14 12 11 9 9 9 10 9 8 8 9 11 11 12 13 15 15

GFSNGP_850_spd_036.txt.gz
Wind_Speed
2 2 4 3 6 13 11 10 6 1 7 7 7 8 9 9 9 7 8 8 9 10 10 11 10 8 9 9 9 10 10 7 7 8 9 10 12 13 14 14 16 16 15 16
2 3 6 8 11 12 16 16 16 15 18 16 18 5 6 10 7 6 7 7 6 7 7 8 10 10 10 10 10 10 10 8 6 6 8 8 8 9 9 9 14 18 22 14
1 1 4 8 16 19 11 9 14 12 10 6 8 6 9 8 3 4 5 4 5 5 8 9 10 9 10 10 10 10 8 6 4 4 5 5 5 5 4 3 3 5 5 5
1 2 4 3 3 3 17 11 17 12 13 12 12 11 8 4 2 2 1 2 6 6 8 8 7 8 9 8 9 10 10 8 7 6 6 6 6 5 5 4 2 4 5 8
2 3 8 5 5 6 6 1 15 16 16 17 10 5 6 5 1 3 4 6 6 9 11 9 10 10 11 11 11 11 12 12 13 12 11 12 11 9 9 8 9 10 10 10
2 2 3 3 2 6 4 4 3 11 10 7 3 4 1 8 5 7 6 7 9 11 13 12 13 14 15 17 16 16 15 15 15 16 15 16 16 14 13 13 14 13 12 10
8 5 7 6 1 5 4 4 3 4 5 3 4 3 5 9 9 10 8 9 10 10 12 14 14 15 17 18 20 18 18 18 19 19 19 18 17 15 13 12 11 10 7 6
6 5 8 6 5 4 4 3 1 2 3 4 7 8 9 11 12 12 10 9 9 8 9 10 10 11 15 17 17 16 17 18 18 18 17 15 13 13 11 9 8 9 8 8
8 5 1 6 1 2 3 5 3 4 4 5 6 8 11 15 15 14 12 10 8 7 8 9 9 9 11 13 12 13 14 15 14 14 14 13 12 11 10 9 7 6 5 4
4 8 13 7 6 5 1 2 2 5 7 8 7 7 11 16 18 18 15 12 10 9 8 8 9 9 9 11 10 10 11 12 12 10 10 9 8 8 7 6 5 4 3 4
6 6 3 6 5 4 2 6 10 12 12 12 11 9 11 18 20 20 19 16 14 12 11 10 9 9 9 9 8 7 7 8 9 8 7 6 5 5 4 3 2 3 4 5
5 6 7 4 9 6 8 7 9 14 14 13 13 12 12 17 21 22 22 19 18 16 15 13 11 10 9 8 7 5 5 6 7 6 5 4 3 3 3 4 5 5 5 5
3 8 5 4 7 10 9 10 13 14 14 13 13 12 13 16 21 21 22 21 22 19 16 16 14 12 10 9 8 7 6 5 4 3 2 1 1 2 5 7 7 9 9 10
8 6 5 7 3 6 14 18 18 15 13 12 11 12 13 16 19 22 23 22 20 20 19 18 16 14 13 11 9 8 7 6 4 3 2 1 2 3 5 7 9 11 11 11
9 9 8 10 14 16 16 16 15 14 12 12 11 11 13 16 19 21 21 21 21 21 21 21 19 16 15 13 11 10 8 7 5 4 3 2 3 6 8 10 10 12 13 13
8 9 11 13 13 13 13 12 12 12 11 11 12 13 13 14 16 19 21 23 25 25 23 22 20 17 16 14 13 11 9 8 5 5 3 3 6 8 10 11 12 13 14 14
5 6 8 9 11 12 11 12 13 14 14 14 11 11 13 16 18 21 22 22 22 21 20 22 21 19 18 15 13 11 10 8 7 5 3 5 7 9 11 12 13 14 14 14
5 5 7 10 12 13 13 12 12 13 15 13 13 13 15 18 21 22 22 22 22 23 23 22 23 19 18 16 14 12 10 9 7 5 5 7 9 10 12 13 14 14 14 13
3 3 6 6 7 8 11 10 8 8 8 12 14 14 14 16 18 19 21 23 25 26 26 24 24 20 19 17 15 13 11 10 8 6 7 8 10 11 13 13 13 14 14 13
3 1 4 5 6 8 9 8 6 6 4 6 10 13 14 16 17 19 21 24 24 24 25 24 23 20 20 18 15 13 12 10 8 8 8 9 10 12 12 12 13 13 13 13
3 2 2 4 7 7 8 8 8 8 8 6 6 8 11 13 16 19 21 24 24 24 21 23 21 22 20 18 16 14 12 10 9 9 9 10 11 12 11 11 11 12 12 13
4 4 5 5 6 7 8 8 8 7 8 7 6 7 10 12 15 17 21 23 24 24 24 24 23 21 19 17 16 14 12 11 10 10 10 11 11 11 10 10 11 12 13 13
3 5 6 7 7 8 9 9 8 7 7 6 6 7 9 12 14 16 20 21 24 26 24 22 21 20 19 18 16 14 12 11 11 10 11 11 11 10 9 9 10 12 12 13
5 6 7 8 8 9 9 9 9 8 8 8 8 7 8 9 12 14 16 17 23 25 21 19 21 21 20 17 17 14 13 12 11 11 11 11 11 10 9 9 10 11 12 12
5 5 6 7 8 9 10 10 10 10 9 8 8 8 8 8 9 9 14 18 21 18 19 17 19 20 19 18 17 15 14 13 12 12 12 12 11 10 10 10 10 11 12 13
5 5 6 8 9 10 11 11 10 10 10 9 8 8 7 8 9 10 13 18 20 21 21 21 20 22 19 18 17 15 14 13 12 12 12 12 11 11 11 11 11 12 14 15
5 6 7 8 10 11 11 12 11 10 10 10 9 9 8 7 8 11 14 17 20 22 23 21 21 22 18 18 17 16 15 13 12 13 12 12 11 11 12 12 12 13 15 16

GFSNGP_850_spd_039.txt.gz
Wind_Speed
3 1 3 4 7 13 13 12 7 3 11 13 9 2 2 2 3 3 3 5 5 5 6 7 7 7 10 10 10 10 9 8 6 5 5 7 8 9 10 11 11 11 11 11
2 4 6 9 11 11 16 17 18 15 14 10 14 10 2 4 3 3 4 4 5 5 6 8 9 10 9 8 7 6 6 5 3 3 6 7 9 11 10 9 8 8 7 7
1 2 3 10 18 19 15 11 17 15 12 8 4 2 4 6 2 1 2 2 3 5 7 7 8 7 6 5 6 5 4 5 4 6 7 7 7 6 5 6 7 6 6 6
1 3 5 2 3 2 19 13 15 14 11 7 6 6 6 4 3 4 3 2 2 3 3 4 5 4 4 3 4 4 5 6 7 8 6 6 6 5 6 7 7 8 10 10
3 6 10 10 6 5 7 8 18 17 15 14 9 5 7 6 6 6 6 4 2 3 5 7 6 5 6 6 6 6 8 9 9 9 9 9 9 10 11 11 12 12 12 10
3 3 4 4 3 5 5 4 4 12 8 6 5 4 3 11 8 7 6 6 5 6 9 8 9 9 10 11 10 12 13 14 15 15 14 14 15 15 15 14 14 12 10 9
8 5 6 3 5 6 4 4 6 6 4 4 4 1 6 9 9 9 9 9 8 8 8 9 10 10 11 13 14 15 15 16 17 17 17 16 16 15 14 13 11 9 8 8
7 5 7 9 6 4 6 7 6 6 5 3 0 3 6 8 11 12 12 11 8 8 6 7 8 8 10 12 13 12 13 13 13 14 14 13 11 12 11 10 8 8 7 6
6 4 4 6 4 5 1 1 2 4 2 2 2 4 8 11 13 13 13 12 10 8 8 6 6 6 7 9 10 9 9 10 9 9 10 10 8 8 7 6 6 5 5 5
3 7 10 6 8 3 2 2 4 5 3 4 5 6 8 12 15 15 16 14 13 11 9 8 7 7 7 8 8 7 6 7 7 6 7 6 6 5 4 4 3 4 6 7
8 9 1 8 10 8 7 5 4 6 8 10 10 10 10 12 17 18 18 17 16 14 12 10 9 8 8 8 7 6 5 5 5 4 4 3 2 2 2 3 4 6 7 8
5 7 12 3 14 10 6 4 6 7 9 12 14 14 12 14 16 20 22 23 20 17 16 14 12 11 11 10 8 7 6 5 5 4 3 2 1 1 2 5 6 8 8 9
8 4 3 8 7 5 5 6 8 10 12 13 13 15 15 15 17 20 23 24 23 21 18 17 15 13 13 12 10 9 8 7 6 5 4 3 3 5 7 7 9 10 10 12
6 6 4 3 3 5 6 10 15 16 17 16 14 14 14 15 17 20 22 24 24 23 22 20 18 16 15 14 12 11 10 9 7 6 5 5 6 7 8 9 10 13 14 14
7 7 6 6 6 9 13 15 16 16 14 13 14 15 14 15 16 18 19 22 24 24 24 23 21 20 17 15 13 12 11 10 8 8 7 7 8 8 9 11 12 14 16 17
8 6 6 7 9 11 11 11 11 12 11 13 15 15 14 14 15 16 19 23 25 28 26 24 23 20 18 16 15 14 13 12 11 9 8 8 9 9 10 12 14 16 17 17
3 2 5 7 6 7 9 10 13 14 14 14 15 14 16 15 16 17 19 22 22 23 22 23 23 22 22 19 17 15 15 13 12 10 9 9 10 10 12 13 16 17 17 17
3 1 5 7 8 10 11 11 12 13 13 14 15 16 16 15 16 17 19 21 21 22 22 22 22 23 23 21 19 17 16 14 13 11 10 10 10 11 13 15 16 17 17 17
6 5 5 3 4 6 8 10 10 10 9 10 11 14 14 15 15 17 18 19 22 23 24 24 24 24 23 21 19 17 17 15 13 11 11 11 11 12 14 15 16 16 17 16
8 5 5 5 4 4 6 8 9 8 8 7 8 12 15 15 14 16 17 20 21 22 21 23 25 23 23 23 20 19 18 16 13 12 12 11 12 13 14 15 15 15 15 15
6 5 5 5 5 5 6 8 8 8 8 9 9 10 11 12 13 14 17 20 20 20 21 24 25 22 24 21 21 19 18 16 15 13 12 12 13 13 14 14 14 14 14 14
3 2 2 4 6 7 9 10 11 10 10 10 9 9 10 11 12 14 17 19 18 22 24 25 22 22 23 21 20 19 19 17 15 14 13 13 13 14 14 14 13 14 14 14
1 1 3 5 6 7 9 10 10 10 10 10 10 9 9 9 11 14 16 17 18 20 22 24 23 23 22 20 20 20 19 17 16 15 13 13 13 14 14 14 14 14 14 14
2 4 5 6 7 8 9 9 9 9 9 9 9 10 10 10 10 11 14 15 15 18 21 21 21 25 21 21 20 20 19 17 16 15 13 13 14 14 14 14 14 14 14 14
4 5 6 6 7 8 9 10 10 11 10 10 10 9 9 10 11 11 11 11 11 15 17 19 21 24 22 19 19 19 18 17 16 15 14 14 14 14 14 14 14 14 15 16
5 5 6 7 8 9 11 11 11 11 11 11 10 11 11 10 9 10 9 8 8 13 16 20 24 26 22 18 18 19 18 17 17 15 15 15 14 15 14 15 14 15 16 17
7 7 8 9 9 10 11 11 12 11 11 12 12 11 11 11 9 8 8 8 10 12 15 19 23 22 20 18 18 20 19 18 17 16 15 14 14 15 14 15 15 16 17 18

GFSNGP_850_spd_042.txt.gz
Wind_Speed
4 4 4 2 6 10 9 7 4 1 5 12 10 7 10 10 9 5 5 4 5 5 7 9 10 10 11 8 7 6 6 5 4 6 4 5 5 5 6 8 8 8 10 10
2 4 3 5 7 8 11 12 11 10 6 1 4 6 9 7 5 5 5 4 4 5 8 8 8 7 4 4 5 2 3 3 3 1 1 2 2 4 5 7 6 7 7 8
1 3 3 6 15 16 10 8 13 12 9 2 2 6 6 4 6 7 6 5 4 4 7 3 3 4 3 1 2 3 3 4 3 1 1 2 5 5 5 6 6 8 8 9
1 2 2 5 3 4 18 11 10 10 6 4 8 5 5 7 8 9 6 4 4 2 2 3 3 3 3 1 3 3 3 4 4 4 3 5 6 6 8 8 10 10 11 11
3 4 7 6 4 4 6 9 14 11 7 4 1 2 4 9 9 8 7 7 3 2 2 5 5 6 6 6 6 5 6 6 8 8 8 9 9 12 14 12 13 12 13 12
3 3 3 3 4 3 3 2 2 14 7 9 8 3 3 12 12 11 8 7 6 5 4 6 6 7 10 11 10 11 11 12 12 12 12 13 15 15 15 13 13 12 11 10
5 3 6 3 7 3 2 2 5 10 11 10 4 2 7 11 11 9 8 9 7 5 5 6 7 7 10 12 13 13 13 14 14 15 15 14 14 13 11 11 11 10 9 8
4 4 7 8 4 1 5 10 11 11 11 10 7 4 5 9 12 12 12 11 9 6 6 5 6 6 9 10 11 11 11 11 11 12 11 11 10 9 9 9 7 7 7 7
6 5 5 11 5 9 8 9 8 11 11 9 8 3 5 9 12 14 13 12 10 8 7 7 7 6 7 8 9 9 9 9 8 8 7 7 6 5 5 5 5 5 7 8
2 4 4 9 8 7 5 6 8 9 8 6 5 3 4 8 13 16 16 15 13 12 10 9 8 7 7 7 8 7 6 6 6 5 5 4 2 1 2 4 5 7 9 10
5 6 1 6 14 13 9 7 7 5 5 5 6 7 8 9 13 17 19 19 17 16 14 12 10 10 10 10 8 8 7 5 5 4 3 1 0 2 3 5 7 9 10 11
4 9 10 3 14 12 11 7 6 5 6 6 8 10 12 14 14 16 21 22 22 20 17 15 14 13 12 12 10 9 8 7 6 5 3 3 2 3 5 7 9 10 12 12
4 5 11 15 15 14 9 8 7 7 8 10 11 12 13 16 16 17 20 24 26 23 20 19 17 17 14 14 13 11 10 8 7 7 6 5 5 6 7 8 11 12 12 13
6 9 6 7 6 7 7 6 7 10 12 13 14 14 14 14 15 19 23 23 23 25 24 23 20 20 17 16 15 13 11 10 10 9 8 7 7 8 9 11 13 14 15 15
11 11 7 10 7 5 6 7 9 11 12 12 13 14 14 14 15 18 20 22 22 24 27 26 24 23 20 18 17 15 13 12 12 10 9 8 8 9 10 12 14 14 16 17
11 7 6 5 5 5 6 6 7 9 10 11 12 13 14 13 14 15 16 20 22 24 27 27 25 24 22 20 18 17 15 14 13 11 10 10 10 10 11 13 14 15 17 18
8 5 4 2 1 4 6 7 9 11 14 15 13 13 14 14 15 16 16 19 21 20 21 24 23 24 23 23 21 19 17 15 14 13 12 12 11 11 12 13 15 16 16 17
4 3 2 0 1 2 4 6 9 11 12 13 13 13 14 14 14 14 15 17 19 21 20 20 22 24 25 25 23 21 19 17 15 14 14 13 12 12 12 14 15 16 16 16
7 6 6 4 2 2 2 4 7 8 10 10 10 9 10 11 12 14 15 17 19 21 20 20 21 24 25 26 23 22 20 18 16 15 14 14 13 12 13 14 15 15 16 15
7 5 2 1 3 4 5 6 8 9 9 9 9 8 9 10 12 13 15 18 18 19 16 19 22 24 25 26 22 24 22 19 17 16 15 14 13 13 13 14 14 15 15 14
7 4 1 3 5 4 6 6 7 8 8 8 9 9 9 10 10 11 13 16 14 16 16 18 22 23 26 23 23 25 21 19 18 16 15 14 13 13 13 14 15 14 14 14
3 2 3 4 5 7 8 9 10 10 10 10 9 9 9 8 9 10 12 14 14 15 17 20 22 23 24 22 24 25 20 19 17 16 16 14 13 14 14 14 15 14 14 14
3 3 5 6 6 7 8 10 10 11 11 11 11 10 10 11 11 10 10 11 13 14 17 19 18 20 20 23 24 23 19 18 17 16 15 14 13 14 14 15 15 14 14 14
5 6 7 8 7 7 8 9 9 10 10 11 11 11 11 11 9 10 11 12 12 13 13 13 15 18 21 24 23 22 17 17 17 16 15 14 13 14 14 15 15 14 14 15
5 6 6 6 7 7 9 9 9 9 9 10 11 11 11 11 12 11 11 10 9 9 10 9 12 16 20 22 23 21 15 16 16 16 14 13 13 14 14 16 16 15 15 15
7 6 6 7 8 8 10 10 10 10 10 10 11 11 11 11 11 11 10 9 7 6 4 8 12 15 20 22 22 19 16 15 16 16 14 12 15 14 14 16 15 16 16 16
8 7 7 7 7 8 10 10 10 10 11 12 12 12 12 12 11 11 10 8 7 6 5 8 11 15 17 18 20 19 18 15 15 15 14 16 15 14 15 16 15 15 17 18

GFSNGP_850_spd_045.txt.gz
Wind_Speed
2 3 3 4 7 15 11 7 7 4 8 8 10 9 16 19 17 16 12 9 8 9 11 13 14 14 11 8 6 6 6 5 7 7 6 4 4 3 3 6 6 5 5 5
3 4 4 4 7 8 12 11 7 6 5 6 15 11 17 21 20 15 13 10 9 10 10 12 12 6 3 3 2 3 2 2 3 2 3 3 2 0 0 2 1 4 4 5
3 3 1 7 14 15 8 7 15 12 14 2 3 7 16 16 16 13 13 12 11 9 8 8 4 2 2 2 3 3 3 2 2 2 3 3 3 3 3 4 4 5 8 9
2 3 1 6 1 8 17 7 11 7 7 8 10 12 13 11 12 13 14 13 11 7 3 2 1 3 3 4 5 4 2 3 3 3 4 4 5 6 7 8 8 9 10 10
3 3 6 3 3 5 7 8 13 14 9 5 10 12 4 9 10 13 13 11 9 5 4 3 4 5 6 5 4 4 5 5 6 7 7 8 9 11 11 10 11 11 12 11
2 2 4 2 2 2 2 4 1 17 12 11 11 3 4 14 14 15 13 10 8 7 6 4 5 7 8 8 7 9 10 11 11 11 12 13 13 13 12 10 10 10 9 9
4 2 6 6 3 4 3 3 2 11 20 17 5 6 5 14 13 12 10 10 10 8 6 6 7 7 9 10 10 11 13 13 13 14 14 14 12 10 9 9 9 8 8 7
4 4 7 4 4 4 3 2 6 12 15 14 13 9 9 11 12 13 12 12 11 9 8 7 7 7 9 10 10 11 11 11 11 11 11 10 9 8 7 7 6 6 6 7
7 5 6 11 3 7 7 8 6 10 10 12 12 10 7 6 9 11 11 11 12 10 9 8 8 8 9 10 10 10 10 9 9 8 8 7 6 5 4 3 4 4 5 7
0 3 5 11 10 9 8 8 9 9 12 11 9 9 7 3 5 12 15 15 14 14 12 10 10 9 8 9 10 10 9 8 8 6 5 4 3 2 0 1 3 5 7 9
4 5 6 6 15 14 11 9 10 10 9 7 7 7 8 10 10 11 16 18 19 17 15 13 11 10 10 11 11 11 10 9 8 7 6 5 4 3 2 3 4 7 9 11
5 9 10 9 15 17 14 13 11 9 7 6 7 8 10 13 14 15 16 19 23 22 19 17 16 15 14 14 13 12 11 10 9 9 8 7 5 5 4 5 6 9 11 12
8 10 8 10 13 18 16 13 10 8 7 7 8 10 11 12 15 17 18 20 24 25 22 21 20 19 18 17 16 15 13 12 12 11 10 9 8 7 6 7 8 10 12 13
13 16 12 16 10 16 12 10 8 7 8 9 10 11 12 14 13 17 20 20 19 22 25 25 23 22 20 19 17 16 15 14 14 13 12 11 9 8 8 8 9 11 13 14
19 12 11 13 11 10 8 7 6 7 8 8 10 11 12 13 14 15 16 18 18 19 22 26 27 27 23 22 21 19 17 16 15 14 13 12 11 10 9 10 11 12 13 14
3 7 11 11 9 6 5 5 5 5 7 9 11 11 12 13 13 13 15 17 20 24 23 25 28 29 26 24 23 22 20 17 17 16 15 14 13 11 10 10 12 13 14 15
10 7 8 8 7 5 3 3 3 6 8 11 12 12 12 12 12 14 13 16 18 18 18 20 21 25 27 26 26 25 23 21 19 18 17 15 13 12 11 11 12 13 14 14
1 5 5 5 5 4 3 1 2 5 6 8 10 10 10 10 11 11 12 14 16 16 17 16 17 21 25 26 27 26 25 24 20 19 17 16 14 13 12 12 12 13 13 13
4 6 7 7 5 3 2 2 3 4 4 6 7 7 6 7 8 10 11 12 14 16 15 14 17 20 23 24 26 26 26 25 21 19 18 17 15 13 13 13 12 13 13 12
6 4 5 5 3 1 0 2 3 5 6 6 6 7 7 6 7 9 11 14 15 15 14 15 18 20 22 24 28 28 26 25 22 19 19 17 15 14 13 13 12 13 13 12
5 3 3 3 3 2 3 4 5 5 5 6 5 6 7 7 7 7 9 11 12 16 16 16 18 19 21 23 28 26 24 26 26 19 19 17 15 14 13 13 13 13 13 13
2 2 3 2 3 3 4 5 6 7 8 8 8 8 7 7 8 8 8 10 10 12 13 15 17 18 21 23 26 24 22 23 23 17 18 17 15 14 13 13 13 14 14 13
5 3 3 4 4 4 6 7 8 8 9 9 10 10 10 10 9 10 9 10 10 11 11 12 15 18 17 22 24 21 21 23 22 16 16 15 14 13 13 13 13 14 14 14
3 2 4 8 8 6 6 7 8 9 10 10 10 10 11 10 8 8 9 11 12 12 11 10 11 12 14 18 19 19 20 23 22 16 15 16 13 12 12 13 14 14 14 14
2 6 5 6 6 7 7 7 8 8 8 9 9 10 10 11 12 11 10 10 10 9 8 8 10 11 15 16 16 18 19 22 20 14 14 13 12 11 11 14 15 15 15 15
5 6 7 7 7 7 7 8 8 7 7 8 9 10 10 10 10 11 11 10 8 7 5 5 6 9 11 12 13 16 18 20 19 16 13 13 12 13 14 16 16 15 16 16
8 9 9 8 8 8 8 8 8 8 8 9 10 11 11 11 11 11 10 10 9 6 5 4 4 6 8 9 11 14 17 19 19 17 14 12 13 13 16 16 14 15 16 16

GFSNGP_850_spd_048.txt.gz
Wind_Speed
3 2 4 4 6 17 16 15 9 9 9 6 9 10 18 21 19 21 20 18 16 14 13 13 14 15 16 14 11 10 10 11 11 11 9 8 6 5 5 4 4 3 3 3
4 4 4 4 7 11 18 15 12 4 6 7 13 11 14 20 22 24 22 18 16 14 13 13 13 14 12 7 6 7 8 8 7 7 6 7 6 5 4 3 1 0 0 1
4 3 2 7 13 14 11 10 16 11 16 3 5 12 20 23 26 25 22 19 16 14 12 11 11 10 8 6 5 5 5 4 4 5 5 6 5 4 4 3 3 4 5 5
2 2 2 6 2 7 15 10 16 10 8 12 10 13 17 24 27 23 20 19 16 13 11 8 7 6 6 7 8 7 5 4 4 5 5 5 6 6 6 6 6 7 8 8
3 3 7 5 3 5 6 8 16 17 11 9 12 9 7 19 19 19 18 16 13 10 9 7 6 5 7 8 8 7 5 5 6 7 7 8 8 9 10 10 9 9 8 8
1 3 5 3 2 4 5 5 3 15 11 9 13 8 3 17 16 16 16 14 12 11 10 7 6 6 7 8 8 8 7 7 8 9 10 11 12 12 11 9 8 8 7 6
4 3 6 7 5 3 2 4 6 6 19 21 8 7 11 11 14 13 14 13 13 12 9 7 7 8 9 9 10 11 11 12 12 12 13 13 11 10 9 7 6 5 4 4
4 3 7 3 2 5 4 3 4 2 13 22 19 11 10 12 13 14 14 14 14 13 11 10 9 10 10 10 10 11 12 12 12 11 11 10 8 7 6 5 3 2 2 4
7 5 5 6 7 8 5 4 1 3 7 15 17 14 12 9 9 10 12 12 13 13 12 12 12 11 10 11 10 10 11 11 11 10 9 8 7 5 3 2 0 2 4 6
2 5 8 11 12 10 8 6 4 5 9 12 12 11 9 7 8 5 12 15 15 17 16 16 14 12 11 10 10 11 11 11 10 9 8 7 6 5 4 3 3 5 6 8
5 5 6 12 13 15 13 10 8 9 9 10 10 11 11 12 13 10 7 11 18 19 18 16 14 13 13 13 12 12 12 12 11 10 9 9 8 6 5 5 6 6 7 9
4 7 10 19 18 18 18 14 12 12 12 10 8 8 9 11 12 14 15 16 17 21 21 19 17 16 16 15 15 14 15 14 13 12 11 11 9 8 7 7 7 8 9 10
6 20 20 24 9 10 18 14 13 11 9 8 8 9 10 12 13 15 17 18 20 20 20 21 20 20 19 18 18 18 17 15 15 14 14 13 12 11 9 9 9 10 10 11
23 23 15 19 9 14 16 15 12 9 8 8 9 10 12 13 14 16 17 18 18 19 21 22 23 23 21 21 20 19 17 17 17 16 15 15 14 12 12 11 11 11 12 12
21 27 22 14 13 17 15 12 10 8 8 8 10 11 12 14 15 15 15 16 17 19 19 21 23 25 24 23 23 22 21 21 19 18 18 17 16 14 13 12 12 12 12 13
16 16 7 14 17 12 10 8 7 7 8 9 11 12 13 15 15 15 15 17 18 20 20 21 22 22 23 25 25 25 24 22 21 20 19 19 18 16 15 14 14 13 13 14
19 20 4 7 9 9 6 5 4 4 5 9 13 13 13 13 14 14 14 14 15 16 16 18 19 19 22 25 28 29 28 27 26 24 21 20 19 18 16 16 15 14 14 15
12 7 5 11 8 6 5 4 3 3 4 6 7 9 8 9 11 11 12 14 15 15 15 16 16 17 19 22 27 30 30 28 28 26 24 21 20 18 17 16 15 15 14 15
4 3 3 5 5 4 4 3 1 2 4 5 5 7 7 7 7 8 9 12 13 14 11 12 14 17 18 21 24 27 28 29 27 28 26 20 20 20 18 17 16 15 15 15
6 3 4 5 5 4 3 2 2 4 5 6 6 6 7 8 8 7 8 10 11 13 13 14 16 17 19 19 22 26 28 27 30 31 27 25 21 19 18 17 16 15 16 16
3 2 3 4 2 2 1 2 2 3 4 5 6 6 5 7 8 8 8 7 8 11 13 16 18 18 19 20 22 24 28 27 27 26 26 25 20 17 17 18 17 16 16 16
2 1 3 5 1 1 2 3 4 4 4 5 6 6 6 6 7 8 9 10 9 10 11 12 13 16 19 20 24 23 22 22 22 21 23 23 20 16 20 18 17 16 16 16
6 3 4 2 2 3 4 5 4 4 5 5 6 7 8 9 9 8 7 8 10 11 11 12 13 14 14 16 18 18 18 20 20 19 21 24 17 17 18 16 16 16 15 16
9 8 7 2 2 5 5 5 5 5 5 6 8 8 8 7 7 8 10 11 12 12 11 11 11 13 13 13 15 16 17 19 18 18 21 23 16 16 16 15 16 14 14 15
8 2 4 5 4 6 6 6 6 6 6 6 7 8 10 11 11 11 10 10 10 10 10 10 10 11 13 14 12 12 13 15 17 18 22 22 17 15 15 16 15 14 16 18
10 10 8 8 7 7 7 7 7 6 6 6 7 8 9 10 10 11 11 11 10 9 9 8 7 7 8 9 9 11 12 13 15 17 21 21 16 16 17 16 16 16 18 19
12 12 8 8 9 8 8 8 7 7 7 8 8 9 9 10 10 11 11 10 10 8 7 7 6 5 4 6 7 8 10 12 14 17 20 20 19 17 16 17 16 17 17 17

GFSNGP_850_spd_051.txt.gz
Wind_Speed
4 4 5 6 7 17 18 16 8 5 14 11 6 7 16 20 19 21 22 22 21 20 18 16 16 16 16 17 16 14 12 12 12 12 12 11 9 8 7 6 5 4 3 2
3 2 4 4 8 11 18 20 19 17 16 4 11 11 13 25 25 25 25 25 22 20 18 17 16 15 15 14 11 9 10 9 9 9 10 10 9 8 6 5 5 3 1 1
3 4 3 7 12 12 7 7 16 15 22 6 6 8 19 26 31 30 28 26 24 21 17 16 14 14 13 11 9 7 7 7 6 6 6 6 7 6 6 5 3 3 3 2
2 3 2 6 4 6 12 14 12 11 4 9 12 15 16 24 30 26 27 24 22 19 17 15 13 12 10 9 8 8 7 6 5 5 6 6 7 7 6 5 5 5 6 8
3 2 7 5 1 4 5 6 10 18 17 17 17 16 14 14 25 28 28 22 19 16 15 13 12 10 9 10 10 8 8 7 7 8 8 7 8 8 8 7 8 8 7 7
1 2 4 4 2 2 3 4 2 5 12 9 14 8 5 17 17 18 20 18 18 16 15 13 11 10 9 9 9 9 8 8 9 10 9 9 9 10 10 9 7 7 7 5
4 3 7 7 6 4 2 5 9 8 12 15 7 10 11 16 18 15 15 16 16 15 13 11 11 10 9 9 9 9 9 10 11 11 12 12 11 11 9 9 7 5 4 4
3 3 7 3 2 4 5 7 9 12 9 13 16 12 12 13 13 14 15 16 16 15 14 12 11 10 10 9 10 11 12 13 13 13 13 12 10 9 8 6 4 2 0 2
7 5 5 5 10 9 10 11 8 7 6 7 13 12 12 11 10 10 10 11 12 14 14 14 13 11 11 11 12 13 13 13 13 13 12 11 9 8 6 4 3 2 3 3
1 5 10 21 20 15 14 11 8 5 1 6 10 10 10 9 8 7 7 9 12 14 16 15 14 12 11 13 13 13 14 14 14 13 12 10 9 8 7 6 4 4 5 6
6 7 13 16 14 15 15 13 10 6 5 7 10 11 4 5 10 10 9 6 7 13 15 15 15 14 15 15 15 14 14 15 14 13 12 11 11 10 9 8 7 6 7 8
5 7 9 17 17 23 18 20 14 12 11 10 8 8 9 10 11 13 15 14 13 10 10 16 17 16 17 17 17 16 17 17 16 14 14 14 13 12 10 10 9 8 9 9
7 23 26 30 30 26 23 18 15 12 11 10 8 7 8 9 10 12 15 17 19 19 19 16 19 20 18 19 19 19 19 17 17 17 16 16 15 13 12 11 11 10 11 11
25 23 20 23 19 22 19 17 16 14 11 10 9 9 10 11 12 14 15 16 16 18 19 20 20 21 20 20 21 20 20 19 20 18 18 17 16 15 15 15 14 12 13 13
20 18 18 25 30 22 15 17 16 13 11 9 9 10 11 12 13 14 15 16 17 18 19 21 21 21 22 22 23 23 22 23 23 20 19 18 18 18 18 17 16 14 14 14
30 18 21 16 18 15 17 14 11 10 8 8 8 10 11 14 15 16 15 16 18 18 17 19 21 19 19 21 23 25 25 25 24 23 22 22 21 21 20 18 18 17 16 15
17 22 24 24 12 13 11 6 8 7 6 6 7 11 13 12 12 12 13 14 16 15 15 16 17 17 19 20 22 24 27 27 28 27 26 25 23 22 20 19 19 18 17 16
16 17 14 11 9 6 4 7 5 5 4 4 5 8 8 10 10 10 11 12 13 13 13 14 15 17 19 21 22 24 26 28 30 31 32 30 27 24 22 21 20 19 17 17
14 11 7 1 3 5 5 4 3 2 1 3 5 5 5 6 8 9 9 9 10 10 10 12 14 16 17 18 20 23 25 28 30 31 30 30 27 26 25 21 20 19 18 18
12 10 9 3 2 2 0 2 3 4 5 6 7 7 6 5 7 8 7 7 8 9 10 12 14 15 17 18 20 22 24 27 28 29 30 32 28 26 29 26 20 20 19 18
12 9 7 4 1 4 4 4 4 4 4 4 5 6 6 6 7 8 8 8 7 8 10 12 14 17 18 19 21 22 24 24 26 28 28 30 27 26 28 26 20 19 18 19
12 10 7 5 2 3 4 5 5 4 5 5 5 6 6 6 7 7 9 9 11 11 12 11 12 14 16 19 21 22 23 21 20 23 24 24 24 25 25 28 24 18 19 18
13 11 7 5 4 5 4 6 5 5 6 6 5 6 7 8 9 8 7 7 9 11 13 14 14 14 14 15 16 16 16 17 18 18 20 20 21 22 24 22 16 17 17 17
14 14 12 10 9 9 4 7 7 6 6 5 6 6 7 7 8 9 10 11 11 11 11 12 13 13 14 13 13 12 12 14 15 17 18 18 20 21 22 19 16 15 17 18
12 8 3 7 6 4 7 8 8 7 7 6 6 7 9 9 9 9 10 11 11 10 11 11 11 10 11 11 11 11 11 12 13 14 16 18 18 20 23 19 17 18 17 16
11 12 13 10 10 9 9 9 8 7 7 7 7 8 9 9 10 11 11 11 11 11 10 9 9 9 9 8 9 9 10 11 13 14 16 16 17 19 21 19 17 18 17 18
11 11 13 13 11 8 9 9 9 7 7 7 7 8 8 8 9 10 11 11 11 11 10 9 9 8 8 7 7 7 9 9 10 11 12 14 16 19 21 17 18 19 19 18

GFSNGP_850_spd_054.txt.gz
Wind_Speed
3 2 3 4 7 14 16 21 10 17 17 17 14 11 10 11 14 18 22 23 24 22 20 18 17 16 16 15 15 15 14 11 12 12 13 12 12 10 9 8 8 7 6 5
4 3 4 4 7 9 17 19 17 21 24 17 11 12 12 17 22 26 27 27 25 22 20 19 17 16 15 15 14 12 9 9 10 10 11 11 12 10 10 8 8 6 4 3
4 2 2 6 14 14 6 7 16 16 23 4 9 13 21 22 25 31 31 29 26 24 20 18 17 16 16 15 13 10 9 9 9 9 8 8 8 9 8 6 5 4 5 4
3 1 1 5 3 6 13 11 12 11 13 9 16 22 25 24 23 30 30 28 27 22 20 18 17 16 15 13 11 9 8 8 7 6 7 8 8 8 8 6 6 6 5 7
3 3 7 3 1 4 5 5 4 13 15 22 21 17 20 22 15 17 25 25 24 19 17 17 16 15 13 11 11 10 10 9 9 9 9 9 9 9 8 7 7 8 8 7
2 1 4 5 1 3 3 4 3 5 7 10 5 4 11 21 18 16 19 21 21 20 18 17 15 13 12 11 11 11 11 10 9 10 10 10 9 9 9 9 9 8 7 5
4 2 6 6 5 3 2 4 11 9 15 12 5 11 10 13 13 14 14 16 18 17 15 14 13 12 11 10 10 9 10 10 10 11 11 11 11 11 10 10 9 7 5 3
2 3 6 3 1 3 4 8 13 16 15 15 11 11 10 9 10 11 12 14 15 14 15 14 12 12 11 10 9 9 10 10 11 13 13 13 12 11 11 10 8 6 4 2
6 5 4 3 7 11 12 18 15 15 15 9 4 8 5 7 7 7 7 8 10 12 12 13 12 12 11 10 11 11 11 12 13 13 13 13 12 12 11 9 8 6 4 4
3 4 5 18 15 12 19 24 22 15 11 6 5 7 5 4 5 6 6 5 6 10 12 13 12 12 11 12 12 12 13 13 13 14 14 14 14 13 11 9 7 6 5 5
6 6 16 7 16 22 31 28 23 18 11 7 6 10 8 4 5 6 7 6 5 6 9 10 11 11 12 13 14 14 14 15 16 16 15 14 13 12 11 10 9 9 8 8
4 1 5 16 32 35 34 30 27 19 17 12 10 11 10 8 8 8 9 10 10 11 12 11 10 10 14 15 16 16 18 18 18 17 16 16 15 14 13 12 12 10 9 9
10 26 28 32 29 30 29 31 31 20 19 16 13 11 10 10 9 9 11 13 15 15 15 14 13 14 17 16 17 18 19 18 18 19 19 17 17 16 14 13 14 13 12 11
28 25 20 20 24 28 33 33 27 20 17 16 14 12 10 10 10 11 12 13 14 15 17 18 19 19 18 20 20 19 18 18 20 20 19 19 18 17 17 17 16 14 14 14
21 24 30 30 29 30 28 24 19 20 17 14 12 11 10 10 11 12 13 14 15 16 17 18 20 20 19 20 22 22 22 21 21 22 22 20 20 20 20 20 19 17 17 16
29 27 27 27 31 30 28 17 17 19 16 13 10 9 9 11 12 14 16 17 17 16 16 17 18 17 18 20 20 22 23 23 24 24 24 25 24 24 23 22 21 20 19 16
23 23 27 29 26 20 14 11 11 14 11 8 7 7 8 12 10 10 11 13 14 15 14 15 15 15 17 20 20 21 22 24 26 27 28 29 27 27 25 23 23 21 19 17
16 20 19 19 19 10 8 5 2 7 6 4 3 3 6 8 7 8 7 8 10 11 11 12 13 13 15 17 19 21 22 23 25 27 28 31 33 33 33 29 24 22 19 19
18 17 16 16 12 5 4 3 3 3 2 1 2 5 7 8 6 8 7 7 7 6 8 10 11 13 14 15 17 20 22 23 25 27 29 30 32 32 31 30 30 25 20 20
21 16 13 12 11 6 5 5 4 4 5 5 6 7 8 9 8 7 7 6 6 6 6 8 9 11 12 14 16 18 20 23 24 26 28 29 30 32 30 29 29 28 26 21
22 18 15 12 10 6 5 6 8 8 6 5 5 6 6 7 7 7 7 7 7 8 9 8 9 11 13 16 18 19 21 23 24 25 25 26 27 29 28 28 27 26 24 22
21 19 16 13 11 6 6 6 8 8 6 6 6 7 7 7 7 7 7 7 8 10 11 11 11 12 13 14 16 17 18 20 22 22 22 23 24 25 24 24 23 22 25 24
21 20 18 16 13 9 6 6 5 6 7 7 7 7 7 7 7 6 5 7 8 9 11 10 12 14 14 14 14 14 15 15 15 16 17 18 18 19 19 20 20 19 19 15
17 20 19 16 12 11 11 8 7 9 9 8 8 7 7 6 8 8 9 10 10 10 10 10 10 12 13 11 11 11 12 12 13 13 14 14 15 16 16 16 16 16 17 13
16 18 18 15 12 8 7 2 7 8 12 9 8 8 8 8 7 8 9 10 10 10 10 10 10 10 10 11 10 10 11 12 12 12 13 14 14 14 15 14 15 17 15 17
17 19 18 19 21 13 10 9 9 11 10 9 8 8 8 8 8 9 9 10 11 11 11 11 10 10 10 10 10 9 9 9 10 11 11 12 13 15 13 14 16 17 16 15
17 18 18 18 18 18 17 14 12 9 10 9 8 8 8 8 9 10 10 10 11 11 11 11 11 10 10 10 11 10 9 9 9 9 10 10 10 10 11 14 17 18 17 15

GFSNGP_850_spd_057.txt.gz
Wind_Speed
2 4 4 4 6 11 14 18 12 16 10 15 9 7 13 19 13 14 20 24 26 27 25 24 21 19 18 17 16 16 17 17 15 15 15 15 14 13 12 11 10 9 8 7
2 2 3 4 7 9 15 17 19 23 25 16 28 25 22 27 21 17 23 27 29 28 25 24 22 20 18 17 17 16 15 13 11 12 14 14 14 13 11 11 9 8 6 6
2 4 4 6 6 9 4 5 13 15 20 11 12 13 18 24 28 28 26 30 31 29 28 25 22 19 18 16 15 14 12 11 11 11 11 11 11 11 11 10 9 7 8 7
1 3 2 4 1 1 9 7 8 11 14 15 18 26 30 27 26 26 26 30 31 29 27 24 21 19 17 16 14 13 12 10 10 10 9 9 10 11 11 10 8 9 9 9
3 2 6 2 1 3 3 4 3 9 14 19 22 17 28 25 27 25 13 18 26 27 24 22 21 18 16 15 14 13 12 10 10 9 9 9 10 11 11 11 10 10 12 11
2 2 4 4 2 3 2 3 3 7 10 12 9 3 7 14 11 21 16 15 19 24 22 23 20 17 15 14 13 13 12 11 10 10 11 10 11 12 12 12 12 13 12 10
3 2 5 5 4 5 1 3 9 11 16 11 4 10 16 19 13 11 14 13 16 20 21 20 17 16 14 14 13 11 12 12 12 13 13 13 14 14 14 14 14 14 11 8
2 2 4 3 2 3 6 16 20 23 21 24 21 13 12 11 8 6 7 9 12 15 16 15 15 14 13 12 11 11 12 12 13 14 15 15 15 15 15 15 14 12 9 7
6 5 2 5 6 5 13 21 24 28 27 23 22 12 9 6 2 2 3 5 8 10 11 12 13 12 11 9 11 11 12 13 13 15 16 16 16 15 15 14 12 10 8 7
2 2 8 15 3 18 29 30 31 28 29 22 21 15 9 6 4 3 4 4 4 5 7 10 12 12 10 11 12 12 12 13 14 15 16 16 16 16 15 13 11 10 8 8
5 6 23 1 26 38 38 36 33 29 27 26 20 18 10 6 5 5 5 5 4 2 2 7 9 10 10 9 11 12 12 13 15 15 16 16 15 14 13 12 12 11 10 9
4 13 11 21 30 35 34 32 29 30 34 28 19 19 15 11 9 10 9 10 10 10 10 8 11 12 12 10 9 12 14 16 16 17 17 16 16 16 15 14 14 13 12 11
9 23 28 29 23 20 21 36 36 34 29 28 19 18 17 17 14 11 10 11 12 12 13 13 13 15 14 14 12 13 16 16 16 18 19 19 18 18 17 16 16 15 15 13
20 16 18 15 27 35 30 31 29 30 23 20 18 17 16 14 13 11 11 12 13 14 15 15 17 18 16 17 17 18 17 16 17 17 19 19 20 19 18 19 19 17 16 15
18 23 25 26 27 29 31 31 29 25 19 16 16 17 16 14 13 12 12 13 14 14 14 15 17 17 17 19 20 22 23 22 21 20 20 21 21 21 21 21 21 19 19 19
25 25 21 22 28 29 30 24 22 21 20 18 16 15 13 13 12 12 15 16 16 15 15 16 16 14 17 19 20 21 22 21 22 23 24 24 25 24 24 24 24 23 22 20
23 22 27 27 30 31 29 20 18 16 14 15 17 13 12 10 9 11 11 12 12 11 12 13 13 14 16 18 19 20 20 21 23 24 25 26 27 28 29 28 27 25 23 20
16 19 20 19 23 24 21 15 12 11 9 8 8 9 8 7 6 7 8 7 7 8 9 10 10 11 12 14 16 18 19 19 20 22 22 24 26 28 31 31 32 32 31 27
16 18 19 17 17 18 16 13 9 8 8 6 5 5 8 6 6 7 6 5 4 5 6 7 7 8 9 11 13 15 17 19 19 21 22 23 25 27 29 31 32 31 29 30
17 16 16 15 15 15 15 12 12 10 11 9 7 7 8 7 7 7 6 5 4 4 5 6 6 7 7 8 10 12 14 17 18 20 22 25 26 26 26 27 28 28 28 28
18 16 15 14 14 14 14 12 10 11 6 7 6 5 6 6 6 5 4 6 6 6 6 7 6 6 7 9 12 13 14 16 18 19 21 22 23 22 23 23 24 25 25 25
21 18 16 14 14 13 14 14 11 12 11 7 7 6 7 6 6 6 4 4 5 6 8 8 9 10 9 9 10 10 11 12 14 16 18 18 19 20 20 19 19 20 21 21
22 18 17 17 14 13 11 11 9 9 11 11 8 9 11 8 7 5 4 6 7 7 7 7 7 8 10 10 9 9 10 10 11 12 13 14 15 15 15 14 14 15 16 17
20 16 19 18 14 11 10 9 13 15 12 11 10 8 9 8 8 7 7 8 8 8 8 7 6 6 7 7 7 8 8 9 10 10 11 12 12 12 12 12 12 12 14 15
22 19 19 19 16 16 15 11 9 7 6 9 11 12 10 9 8 8 8 8 9 9 9 8 7 6 6 7 7 7 8 9 10 10 10 10 11 12 11 11 12 13 13 14
22 21 19 17 16 15 13 14 8 5 4 10 9 10 9 9 8 8 8 8 8 9 10 10 9 7 7 7 8 7 7 7 7 7 9 10 10 10 11 12 11 11 12 14
19 20 21 18 13 12 12 12 15 6 7 10 11 10 8 8 8 8 9 9 9 10 10 10 10 10 9 9 8 7 7 7 8 7 8 8 8 9 9 9 10 11 12 13

GFSNGP_850_spd_060.txt.gz
Wind_Speed
4 4 2 2 10 15 15 19 13 18 18 19 15 15 23 26 22 16 13 15 18 20 21 23 23 22 21 20 19 19 19 19 20 20 19 19 17 17 17 16 16 15 14 14
2 2 2 4 9 10 15 19 19 23 23 19 25 18 18 20 20 20 20 16 19 20 24 26 26 25 23 21 20 19 19 19 19 18 16 15 16 15 15 15 14 13 12 10
2 2 3 6 9 11 7 8 10 17 20 16 16 20 22 24 23 22 20 21 20 25 28 28 28 26 24 21 20 20 19 18 17 16 14 13 14 13 14 14 14 12 11 9
2 4 4 3 2 2 7 7 9 13 15 15 16 20 25 26 24 25 23 20 18 21 26 30 30 27 24 23 21 20 19 18 17 15 13 13 13 13 13 13 12 11 11 10
2 2 5 3 2 1 1 5 3 5 10 15 19 20 18 8 13 18 22 20 18 20 23 27 30 28 25 23 21 20 19 17 15 14 12 11 11 12 13 14 13 11 11 12
2 1 2 2 1 1 2 5 13 13 14 16 17 9 11 20 25 20 13 16 20 18 20 24 27 28 26 23 21 20 18 16 14 13 12 11 12 13 14 13 12 12 14 13
4 3 3 3 4 3 4 3 15 14 16 17 10 15 28 26 22 17 13 13 16 14 16 21 25 25 23 21 20 17 16 16 15 14 14 14 14 15 15 14 14 15 15 13
2 4 3 11 2 4 4 9 13 17 16 21 22 23 22 22 19 14 10 9 10 11 15 18 20 20 20 19 16 17 16 16 15 15 16 16 15 16 16 16 17 17 16 14
3 2 5 9 2 5 9 15 16 20 22 20 23 23 21 22 18 13 7 4 4 7 10 14 16 17 18 16 16 16 16 13 15 16 17 18 18 18 19 19 18 18 16 14
4 4 8 9 7 7 17 18 20 19 20 20 23 26 24 20 17 12 9 6 5 6 8 10 13 15 16 16 15 14 12 15 16 17 18 20 20 19 19 19 19 18 17 15
5 6 17 3 12 24 27 23 19 18 21 24 24 27 24 21 17 13 9 7 6 5 4 5 8 11 15 15 15 15 15 16 16 17 19 20 20 19 19 19 18 16 15 15
3 4 13 23 23 26 24 23 25 26 29 24 21 25 23 21 17 17 16 13 14 13 11 10 10 11 14 15 15 12 13 15 17 18 19 20 20 20 20 20 20 19 18 17
8 12 20 25 25 20 20 32 32 30 28 31 29 23 22 21 19 20 19 19 17 16 15 16 16 16 17 18 19 19 18 14 15 17 20 20 21 21 21 20 20 20 20 19
14 12 16 12 15 22 20 24 25 28 28 26 25 24 21 19 19 18 17 17 17 17 17 18 19 19 18 18 20 20 20 16 17 16 20 20 21 21 20 21 21 20 19 18
8 14 20 23 21 21 21 21 22 20 20 19 18 18 17 18 18 17 16 17 17 17 17 18 19 18 19 20 21 21 23 23 22 21 20 22 22 22 22 22 22 22 21 21
15 16 15 15 20 20 20 20 19 20 20 18 17 17 18 17 17 16 15 17 18 18 18 19 19 17 20 21 21 23 24 24 24 24 24 24 24 25 25 25 25 25 24 22
16 13 14 20 20 21 21 19 17 17 16 15 17 19 19 21 19 14 12 14 15 16 17 17 16 18 19 19 21 22 23 23 23 24 24 25 26 27 28 29 30 31 32 30
18 19 20 21 23 22 20 17 17 15 13 13 13 11 11 10 13 11 8 10 12 11 11 12 12 13 15 16 17 20 21 21 22 22 21 22 23 24 26 28 30 30 31 32
20 22 22 20 21 22 22 19 16 13 11 11 9 8 7 8 10 9 7 8 8 8 8 8 9 9 10 12 14 15 17 19 20 21 21 20 21 23 24 26 28 29 30 31
22 22 22 22 20 20 22 20 17 15 11 10 9 7 6 8 10 11 9 8 8 7 7 7 7 8 8 9 10 12 13 15 16 18 19 20 21 22 23 24 24 25 26 26
25 24 24 22 20 20 21 21 19 18 12 9 9 7 7 6 8 8 7 8 10 11 10 8 8 8 8 9 11 12 12 13 14 15 16 18 19 21 22 23 23 23 23 23
25 25 24 19 20 22 20 20 19 15 13 10 7 4 4 6 8 7 5 5 7 8 9 9 10 11 11 10 9 10 11 13 14 15 16 17 18 19 20 21 21 21 21 20
23 23 22 18 20 21 21 18 17 18 13 10 8 7 7 7 8 7 6 7 7 7 7 6 6 8 9 9 10 10 10 11 12 13 14 14 16 16 17 17 17 17 17 16
21 22 23 20 19 20 21 19 17 18 19 18 9 2 3 4 6 8 7 7 7 7 6 5 5 5 6 6 5 7 8 9 10 11 12 12 13 14 14 14 14 13 13 14
22 22 23 22 19 18 18 17 18 19 17 14 11 6 4 5 6 6 9 6 6 7 6 6 5 4 4 4 5 5 6 7 7 9 10 10 10 11 12 13 13 12 13 14
18 21 22 21 19 17 18 18 18 19 16 10 5 6 6 6 4 4 4 5 5 5 6 5 5 5 4 4 5 5 5 5 6 6 7 7 9 10 10 11 12 13 11 10
16 20 22 23 20 19 18 19 18 17 17 14 11 6 5 5 4 3 3 4 5 5 5 6 6 6 6 5 5 5 4 5 6 6 6 7 7 7 8 8 9 9 9 10

GFSNGP_850_spd_063.txt.gz
Wind_Speed
4 5 3 3 11 15 13 17 13 13 15 14 13 14 19 22 20 19 17 15 14 12 11 13 15 17 19 20 20 19 18 17 17 18 19 19 19 19 19 18 18 19 18 17
1 2 2 5 6 8 14 16 16 17 17 16 17 12 17 21 21 21 20 19 16 14 16 17 18 20 21 20 20 18 17 17 17 18 18 18 17 17 16 17 18 17 16 16
2 1 3 6 8 10 8 8 7 11 11 12 12 13 16 18 19 20 20 19 18 16 18 20 21 21 22 22 21 19 18 18 18 18 17 17 16 15 15 15 15 15 14 14
0 2 3 4 1 1 3 4 5 6 6 8 10 15 20 14 12 18 18 19 19 18 17 20 20 22 24 23 22 21 19 18 18 17 17 16 15 14 14 14 13 14 13 13
2 4 3 3 3 1 2 6 8 7 8 12 14 17 3 13 21 20 19 19 17 14 13 16 21 24 26 25 23 22 21 19 19 19 17 16 15 13 13 13 13 12 12 13
2 2 3 7 4 1 3 6 8 9 10 13 16 7 8 26 25 22 19 16 12 12 14 13 18 25 25 24 25 24 21 20 19 18 17 16 13 12 12 13 13 12 13 12
6 4 1 5 3 2 5 3 7 9 11 14 9 13 22 23 23 20 21 18 14 13 12 12 18 23 23 25 24 22 20 19 19 18 16 14 13 13 14 14 14 13 13 13
3 3 6 6 3 4 3 3 10 12 14 18 20 22 22 23 21 20 21 19 14 10 10 12 16 18 19 21 21 20 19 19 18 17 16 15 15 15 16 16 15 15 16 16
3 2 5 4 4 3 4 11 14 18 19 19 22 23 23 24 23 19 18 16 13 9 8 8 11 13 16 17 19 18 18 18 17 15 15 16 17 18 18 18 18 18 18 17
4 5 2 8 3 4 11 15 18 17 18 18 22 24 26 24 23 20 16 13 11 9 7 7 7 10 13 15 16 16 17 17 16 18 17 19 19 20 20 20 20 19 19 18
6 9 11 3 6 13 18 19 19 18 19 21 23 25 24 25 23 20 19 15 10 8 7 6 5 4 8 12 15 16 17 17 15 14 17 19 20 21 21 19 19 19 19 17
3 8 12 15 15 22 25 22 18 22 27 25 23 26 26 27 24 21 19 19 17 15 15 13 11 11 10 12 14 16 16 18 15 17 19 19 21 21 21 21 20 20 21 19
5 13 18 24 23 20 18 22 24 26 27 30 29 26 25 27 25 22 18 20 21 20 20 19 19 18 17 17 18 20 22 21 19 18 18 19 21 21 21 21 22 22 22 21
12 13 12 5 14 25 24 26 27 27 26 25 25 23 23 23 21 18 17 17 20 19 19 18 20 21 19 20 20 21 21 21 22 20 20 19 21 21 21 21 22 22 21 20
8 9 18 24 22 21 22 26 26 26 27 28 25 23 20 19 19 17 18 18 18 19 18 18 21 20 18 22 19 20 22 23 23 22 21 22 20 20 23 24 24 22 21 21
10 13 16 16 22 25 25 27 24 25 26 27 25 24 25 23 23 22 20 23 20 17 18 20 20 18 19 21 21 20 22 22 24 25 26 24 23 23 23 24 24 26 27 26
13 13 16 21 19 23 25 26 24 24 27 27 26 25 24 23 24 24 25 25 23 16 18 20 19 19 20 21 21 22 21 22 23 25 26 28 29 29 28 28 28 29 29 27
14 17 18 20 25 25 26 24 24 25 26 27 26 24 22 19 18 16 15 17 18 15 15 15 14 15 16 16 18 19 20 20 22 24 23 23 24 25 26 27 28 29 29 29
14 17 21 21 22 25 25 27 26 24 23 22 24 23 22 20 17 16 13 15 12 10 14 11 10 11 12 12 14 15 16 18 20 22 22 21 21 21 21 22 24 25 26 27
22 23 24 25 25 25 24 24 25 23 23 21 21 20 20 20 19 16 14 15 11 11 11 10 9 9 9 10 10 12 13 15 16 17 18 19 19 19 19 20 20 22 23 25
24 24 24 26 27 25 23 23 26 26 23 22 20 17 17 19 16 14 14 11 13 13 14 12 11 11 9 9 11 11 11 12 13 15 16 16 17 18 19 20 21 22 23 24
21 22 23 25 27 28 24 24 26 27 24 22 20 17 14 15 16 14 10 10 10 10 10 8 10 11 12 12 10 10 10 12 13 14 15 16 17 17 18 19 20 21 21 21
19 21 24 25 26 29 28 26 26 24 23 21 20 16 16 17 17 14 10 9 10 8 8 6 7 8 9 9 9 12 12 11 12 12 13 13 14 16 16 17 17 17 17 17
20 21 21 22 23 26 27 24 20 21 22 22 20 19 18 14 18 15 10 10 8 9 7 6 6 5 5 5 5 6 8 10 10 10 11 11 12 13 13 14 15 14 14 14
19 19 18 21 25 26 26 25 23 21 20 20 19 16 17 17 15 13 13 11 9 8 7 5 5 4 3 3 4 4 5 6 7 8 8 9 9 10 10 11 11 12 12 11
16 12 12 19 24 26 26 26 26 22 20 20 18 16 12 10 9 12 12 11 9 7 7 5 5 4 3 3 4 3 4 5 5 5 4 5 6 7 8 9 9 10 11 11
15 13 10 13 18 27 28 26 24 22 20 21 18 15 11 7 4 9 9 8 6 7 6 6 5 5 4 4 4 5 4 4 4 5 5 5 6 6 6 6 6 6 7 7

GFSNGP_850_spd_066.txt.gz
Wind_Speed
4 5 5 2 6 9 7 8 4 6 8 6 7 6 10 15 19 19 18 18 17 16 13 13 14 12 14 16 20 19 19 18 16 15 15 16 18 20 21 20 20 21 19 18
2 2 3 0 4 5 6 7 10 10 12 6 13 17 13 12 15 17 17 19 19 18 16 15 18 18 19 19 20 20 19 18 16 16 17 17 19 20 19 18 18 18 18 18
2 2 4 5 6 8 4 2 1 5 1 5 6 7 11 16 11 14 18 20 20 18 17 20 21 23 22 22 21 20 19 18 17 17 17 18 19 18 15 15 15 15 15 14
1 2 1 3 4 5 2 4 4 3 6 9 11 14 16 12 15 17 19 21 21 19 15 19 19 23 24 22 23 22 20 19 17 17 17 18 17 16 15 14 13 14 14 14
2 3 3 3 2 3 2 4 7 6 7 10 13 14 8 16 21 21 22 23 22 17 15 12 12 21 25 26 24 24 22 20 19 18 18 18 16 14 14 13 12 12 13 13
2 1 2 5 4 3 2 4 5 6 6 6 13 4 4 23 25 23 23 25 24 20 17 17 13 18 25 28 26 26 24 22 19 19 18 18 15 15 12 11 11 13 12 13
4 2 2 4 3 1 3 2 4 6 7 10 4 7 22 25 25 24 20 25 24 19 13 11 12 18 25 26 26 25 23 20 20 19 18 16 15 13 11 12 13 13 12 13
1 1 4 8 1 3 3 5 8 10 13 17 18 22 22 23 27 28 24 23 23 19 15 12 13 19 22 24 23 21 21 20 20 18 18 14 13 13 13 14 15 14 13 13
2 3 6 5 6 6 6 8 11 16 18 18 21 22 24 27 29 26 25 21 25 19 15 12 9 13 16 16 18 17 18 19 18 18 17 14 14 13 15 15 16 15 15 14
3 1 3 3 2 7 13 15 18 18 19 19 23 25 28 28 28 28 26 21 24 21 15 12 8 6 9 11 11 13 16 17 19 17 16 15 15 15 15 17 16 17 17 16
3 7 7 14 12 17 23 21 20 18 20 22 24 25 26 29 30 30 28 23 22 23 18 11 9 7 9 8 8 10 13 16 17 15 16 15 15 15 15 16 17 17 16 15
2 7 2 4 15 19 16 20 25 25 27 25 24 27 27 29 27 29 27 26 22 24 21 19 16 14 12 12 11 12 14 14 16 15 16 16 14 13 14 16 17 18 18 18
0 9 10 12 7 5 20 18 22 22 25 28 26 28 26 28 27 26 25 22 21 23 23 21 21 20 21 20 18 18 18 18 18 18 19 19 17 16 15 18 19 18 18 18
4 8 4 6 13 21 18 20 23 23 21 22 22 23 25 24 24 22 22 20 20 22 23 20 19 21 19 20 21 20 20 20 21 20 20 19 20 19 16 17 18 18 19 19
2 6 8 14 16 18 20 22 24 23 24 26 25 25 24 25 25 24 26 26 24 23 22 21 19 20 19 20 22 20 21 22 21 22 21 20 18 20 19 18 19 18 17 20
8 10 13 16 20 21 21 24 23 24 23 24 26 27 27 27 26 24 23 22 25 26 26 25 22 19 20 21 25 22 21 20 21 22 22 23 22 21 23 23 24 21 20 19
10 14 17 19 21 25 27 27 26 25 27 27 27 28 28 27 26 24 22 20 21 24 27 25 26 26 21 21 25 25 23 20 20 22 23 23 25 26 23 23 24 26 27 25
9 12 15 18 21 24 27 29 30 30 26 28 28 27 27 25 26 24 22 22 21 21 19 21 21 21 21 20 19 22 23 21 20 23 22 23 23 24 26 27 27 27 26 26
14 17 19 20 21 24 26 28 29 28 25 25 28 30 28 26 23 24 22 21 19 17 15 17 18 18 16 14 15 17 18 18 18 20 21 21 20 20 21 22 22 23 23 24
18 20 19 20 21 23 27 28 28 26 25 28 31 31 29 25 23 24 22 18 16 15 17 17 16 15 14 13 13 13 14 16 19 20 21 21 20 19 19 18 18 18 19 19
23 23 20 20 23 26 27 28 28 28 27 27 30 30 29 25 22 21 20 19 15 13 17 18 18 17 16 14 13 13 12 12 13 15 16 17 17 17 17 16 16 16 17 17
21 20 19 21 24 26 25 25 26 26 28 26 28 27 27 25 20 21 21 17 16 13 16 13 13 15 17 15 15 12 11 11 12 13 13 13 14 14 15 15 16 16 15 16
22 21 21 21 22 24 24 23 24 25 27 28 27 27 25 23 22 19 20 15 14 13 13 12 10 10 13 13 10 10 12 13 12 11 12 13 13 14 14 13 13 13 14 15
24 22 19 18 16 17 21 25 26 24 24 24 24 24 23 24 22 19 17 14 11 11 11 9 8 10 8 7 7 7 8 9 9 9 9 9 9 10 11 11 11 12 14 14
25 23 20 13 12 13 18 26 31 32 28 24 24 25 20 17 18 17 16 13 10 9 9 9 8 7 5 5 6 6 6 6 6 7 8 9 10 9 8 9 9 9 10 9
28 27 22 18 17 14 15 28 30 28 28 27 24 24 20 15 14 11 8 8 8 5 8 8 7 7 5 5 5 5 5 6 6 6 6 5 4 5 6 7 8 8 9 8
35 28 24 24 23 21 21 27 25 25 25 26 25 22 19 14 12 8 5 6 4 7 8 6 6 6 6 5 4 4 4 4 4 4 4 4 4 4 5 5 5 6 6 6

GFSNGP_850_spd_069.txt.gz
Wind_Speed
4 5 2 1 4 7 6 5 5 3 3 1 4 6 5 7 9 10 11 13 15 14 15 18 18 16 14 16 21 22 22 22 21 20 19 17 16 17 18 20 20 21 20 20
3 2 4 2 4 3 5 4 5 3 5 3 7 9 12 14 12 13 15 18 19 19 18 14 21 20 17 16 19 21 22 23 22 20 18 18 18 18 19 20 20 19 19 20
2 1 0 4 6 5 2 2 3 5 1 4 5 9 12 12 12 14 16 19 21 22 21 19 15 24 23 20 19 21 23 23 23 21 19 17 17 18 18 18 18 18 18 16
2 3 1 4 1 1 6 5 4 7 4 5 4 8 10 15 16 15 18 21 24 25 23 19 14 14 27 24 22 23 24 24 24 22 20 18 18 17 17 17 16 15 14 14
3 3 2 2 2 2 3 1 4 4 6 11 15 5 8 12 21 20 20 21 22 25 25 22 18 15 21 30 26 24 24 26 25 23 21 19 18 17 17 16 15 13 13 13
1 2 4 3 0 3 4 1 5 9 8 10 15 4 3 22 29 27 25 23 23 24 27 23 17 18 16 27 28 28 25 25 26 25 21 20 19 17 15 14 12 11 12 12
1 1 2 3 5 3 3 2 8 11 10 11 3 7 23 26 26 25 26 25 21 21 25 22 17 14 17 21 27 27 24 23 25 24 23 21 19 17 15 13 11 12 12 12
2 1 3 8 3 1 4 9 8 9 11 15 17 19 22 25 29 29 27 25 20 21 21 22 16 14 14 18 22 23 23 24 25 24 23 21 19 17 15 14 13 13 14 14
4 4 7 7 19 12 9 7 6 10 12 10 12 18 25 26 27 28 28 26 22 19 20 22 18 13 15 17 20 20 20 22 22 22 22 22 20 18 17 14 15 15 16 15
4 1 3 22 14 9 7 6 7 7 10 14 16 17 21 23 23 25 26 26 22 20 18 18 19 13 12 12 11 12 14 16 18 20 21 22 20 19 18 17 17 17 18 18
2 2 14 9 6 6 6 8 11 10 10 12 14 17 18 21 21 22 23 25 23 21 18 18 18 17 12 12 11 10 11 13 15 16 19 18 18 18 18 17 17 17 17 16
4 5 2 1 7 5 8 10 10 12 15 13 14 17 18 20 21 20 21 20 20 18 16 18 16 18 17 16 15 14 14 14 14 14 16 17 17 17 18 16 17 18 17 19
6 2 4 4 3 5 15 13 14 15 16 16 14 15 16 20 20 20 21 20 22 21 19 19 19 18 18 21 21 20 20 17 16 18 18 19 18 19 20 18 17 17 19 18
3 3 3 2 5 11 12 15 17 20 20 19 17 17 19 20 22 22 21 20 21 21 20 20 19 18 18 16 19 20 19 19 20 20 21 20 21 20 20 20 19 16 18 18
4 6 5 9 10 12 16 18 22 22 22 24 22 20 20 21 28 27 24 21 19 21 21 20 19 16 17 21 18 19 19 20 20 23 22 22 21 20 20 20 20 18 17 19
5 6 8 12 16 18 20 22 24 28 29 28 27 21 20 26 29 27 24 21 21 21 20 21 22 21 19 20 24 21 21 22 20 22 23 23 22 22 22 21 21 21 21 16
10 14 16 18 20 21 22 23 24 26 28 29 30 24 27 27 29 28 27 23 21 23 21 20 21 19 21 20 22 26 24 23 24 23 23 23 24 24 24 24 22 23 23 23
8 11 13 17 21 22 23 23 24 26 28 27 26 28 28 30 31 29 26 25 25 23 20 18 17 16 16 17 20 23 25 27 26 25 23 23 23 23 24 24 25 25 24 23
11 14 17 18 18 19 21 24 25 26 26 26 25 27 29 30 30 29 25 24 24 24 19 16 16 16 15 14 14 17 19 21 24 22 23 22 22 23 23 22 23 24 24 24
13 14 17 19 17 19 23 23 25 27 27 25 25 27 27 29 29 27 24 23 20 21 17 17 17 17 15 13 11 12 13 16 19 22 22 23 23 22 21 20 20 20 20 20
17 19 21 21 21 21 20 23 25 27 27 24 24 27 27 27 26 26 23 23 19 19 17 17 18 17 15 13 11 12 12 13 15 17 19 21 20 20 19 18 18 18 17 17
17 20 22 21 20 22 21 20 19 21 23 24 25 25 27 28 26 23 20 21 19 17 16 16 15 14 12 11 12 12 12 13 11 13 14 14 15 15 14 15 15 15 14 15
18 21 23 23 22 22 18 11 13 21 26 26 27 25 25 27 24 22 23 20 16 16 16 14 13 12 12 10 10 8 9 10 11 9 8 11 13 13 14 14 14 15 15 14
20 23 25 25 23 22 18 12 15 22 24 27 27 25 24 27 24 18 17 13 14 13 14 11 11 12 10 6 6 6 6 7 7 8 8 8 8 9 11 12 12 11 11 11
25 30 30 28 26 25 24 20 21 22 22 25 27 27 23 23 19 18 16 13 12 11 10 8 8 9 6 4 5 5 5 5 5 6 6 7 8 9 10 10 10 10 11 12
29 32 30 26 28 27 26 24 25 24 24 25 27 28 27 22 18 15 13 10 9 8 6 6 5 5 4 2 4 5 5 5 5 5 5 5 5 4 5 6 6 7 8 8
30 26 25 28 29 27 24 21 23 25 24 23 27 29 28 24 19 14 11 7 9 7 3 4 4 4 3 2 1 1 1 2 3 3 3 3 3 4 3 4 4 4 4 4

GFSNGP_850_spd_072.txt.gz
Wind_Speed
2 2 3 2 3 5 5 4 4 3 6 2 4 6 8 8 7 6 6 8 11 14 15 16 14 14 16 16 16 16 19 20 20 20 21 20 19 18 18 18 19 20 22 22
5 3 5 0 1 3 4 3 3 4 2 4 6 9 9 8 7 8 10 11 14 16 18 19 16 16 15 20 19 17 20 21 20 20 20 20 19 18 18 19 20 21 22 22
2 5 5 5 3 3 1 1 4 6 4 5 4 6 7 9 11 13 14 17 19 20 19 21 21 19 18 18 23 22 19 19 20 21 22 21 20 19 19 19 20 21 21 21
2 3 1 4 4 2 7 5 6 7 5 5 3 2 12 13 17 19 19 21 22 22 21 22 23 21 19 18 21 26 23 21 22 22 24 23 22 21 20 19 20 20 20 20
4 3 3 1 1 2 2 2 4 4 4 7 10 10 6 8 23 21 21 22 23 22 23 23 23 22 21 21 20 26 28 24 22 23 24 25 24 21 20 19 19 19 19 18
2 3 4 4 2 1 3 3 1 8 4 5 7 2 3 14 23 24 24 23 23 24 23 22 22 21 21 20 20 23 27 27 22 22 24 26 23 22 22 20 19 19 18 15
2 1 5 4 3 1 4 4 6 4 3 1 3 6 15 20 24 25 26 26 23 22 22 20 20 19 19 18 19 20 26 28 24 23 23 23 24 24 23 21 20 19 14 13
2 2 6 3 2 5 4 7 4 2 6 11 14 19 21 24 27 28 26 24 22 22 21 18 16 18 17 19 15 15 20 26 25 23 23 24 25 25 24 22 21 18 15 16
6 4 4 3 6 7 7 5 2 7 11 13 16 19 20 23 23 22 22 23 20 19 20 18 14 16 16 16 14 14 16 20 23 24 24 24 24 25 24 23 22 19 17 18
2 1 4 10 8 5 3 2 5 7 10 11 16 16 19 20 23 22 22 20 22 22 21 19 13 14 14 14 14 13 15 16 18 19 21 22 24 24 24 24 23 20 20 21
1 4 8 4 3 1 2 6 7 7 9 12 15 18 19 22 22 22 23 22 19 20 21 19 16 15 13 13 14 14 13 13 15 16 16 17 20 21 20 20 20 20 18 19
4 7 4 4 2 1 5 8 9 11 14 15 15 17 18 20 20 22 22 24 24 21 23 24 22 17 15 15 16 16 17 16 16 17 16 15 17 17 18 18 18 20 20 21
5 6 1 1 2 3 9 9 10 12 14 18 17 16 17 21 21 20 22 23 24 24 23 22 22 20 19 16 16 19 19 21 21 21 20 19 18 19 20 19 19 20 21 21
5 3 4 3 2 6 8 11 13 15 17 19 20 19 22 20 21 20 27 26 24 24 23 21 21 21 19 17 16 18 20 22 23 23 22 22 21 21 20 21 20 20 21 22
1 1 1 2 4 7 10 13 16 18 19 21 21 21 22 21 21 24 30 28 25 24 24 22 22 21 20 22 18 17 19 21 21 21 22 22 23 22 22 22 21 19 19 19
1 2 3 6 9 11 14 15 18 19 20 22 23 23 23 24 26 27 27 27 27 29 24 24 24 23 22 20 22 22 21 22 22 21 19 20 23 24 24 23 22 20 20 20
5 6 12 15 17 18 18 18 18 20 23 24 24 25 27 29 32 30 29 28 28 29 26 24 24 22 21 18 20 22 24 24 24 24 24 22 21 23 24 25 24 22 20 18
8 11 13 15 19 20 19 18 19 21 22 23 24 25 24 26 31 35 32 30 30 28 27 24 23 19 18 18 19 20 21 22 24 27 26 25 23 22 22 25 25 23 22 20
11 13 13 16 18 19 20 20 21 22 23 24 25 25 25 25 28 30 30 32 30 30 26 23 22 19 18 19 18 18 18 19 20 23 27 26 24 23 23 24 24 23 22 22
11 12 15 18 19 20 22 21 22 24 23 22 23 25 28 26 27 28 28 30 29 27 24 21 19 20 19 18 17 18 17 16 18 20 22 24 23 23 22 23 23 22 22 21
11 14 17 20 23 23 23 22 23 21 16 17 21 25 27 29 26 27 28 29 25 23 21 20 20 19 18 17 15 16 16 17 17 17 19 20 21 22 22 21 21 21 20 19
11 15 18 21 24 26 24 23 21 18 15 19 21 24 28 31 28 29 26 24 22 19 18 16 18 17 15 11 16 16 16 16 16 14 14 15 15 18 18 18 19 19 18 17
13 15 20 24 28 31 30 27 22 19 19 20 21 24 27 30 28 29 27 21 20 15 16 18 17 14 13 15 16 14 12 12 13 12 10 9 10 11 13 14 15 15 15 15
16 20 25 28 31 31 29 27 25 23 24 21 21 22 27 30 31 27 24 21 17 15 17 18 15 12 13 13 10 8 9 9 10 9 8 8 8 9 11 13 14 15 16 16
23 28 31 31 30 27 27 28 28 25 23 25 22 21 23 26 28 29 25 19 16 15 15 14 12 12 10 9 8 7 7 6 6 6 6 6 7 7 8 10 12 12 13 13
28 31 31 28 26 26 29 30 29 27 24 23 23 23 23 26 28 27 23 18 15 14 14 11 8 8 8 7 7 7 7 6 5 5 5 6 6 8 7 7 9 8 8 9
27 26 26 26 26 27 28 27 25 26 22 21 24 22 23 26 27 26 22 15 13 14 10 6 6 7 6 4 2 3 3 3 5 5 5 5 5 4 4 5 4 4 4 5

GFSNGP_850_spd_075.txt.gz
Wind_Speed
4 4 2 1 2 4 3 3 4 2 6 1 5 6 5 6 7 7 9 10 12 13 13 14 15 14 13 13 15 14 13 13 14 13 15 16 17 17 17 17 17 17 17 18
4 5 4 2 1 4 3 3 2 5 3 4 6 10 10 9 7 8 8 9 11 12 13 15 17 18 17 15 14 17 16 15 15 16 16 16 17 17 17 17 16 17 18 19
2 4 2 3 2 3 4 4 5 5 6 5 3 7 8 8 6 4 6 10 13 15 17 17 19 20 21 19 18 18 20 17 16 17 17 17 17 18 18 17 18 18 18 19
2 3 1 3 2 4 2 3 1 5 5 6 6 7 12 7 3 6 10 14 17 20 21 20 20 21 22 21 19 20 19 20 18 18 19 18 19 20 20 19 18 17 18 19
3 1 5 2 3 4 3 3 1 4 4 3 1 12 9 9 8 13 16 19 21 22 23 24 22 22 23 24 21 19 19 21 21 20 19 21 22 23 22 20 19 18 18 19
1 2 4 2 0 3 2 4 4 7 4 2 5 2 3 8 15 21 23 25 27 26 25 24 22 21 22 22 23 18 18 18 22 23 21 21 21 22 23 22 21 20 20 19
1 2 6 3 1 2 3 4 6 5 4 0 1 4 12 18 20 22 23 23 23 23 23 23 22 21 22 21 21 19 18 18 18 22 23 21 21 22 23 23 22 21 20 19
2 1 6 3 1 4 3 5 7 3 1 6 9 13 16 18 19 21 21 22 21 23 22 21 20 20 22 21 19 18 17 16 17 19 22 23 22 22 24 24 24 22 21 21
6 4 1 3 0 4 4 5 2 3 6 9 13 15 18 20 21 22 22 22 22 22 26 23 20 18 20 20 18 17 16 15 13 15 19 22 23 23 24 25 25 24 23 23
1 1 1 3 4 4 3 2 3 7 9 11 15 18 21 23 23 23 23 25 25 23 24 25 24 20 19 20 18 17 15 15 16 18 19 22 23 24 24 25 25 24 24 23
2 1 2 6 4 2 1 4 6 7 8 10 14 17 19 21 22 22 23 24 23 27 27 26 27 26 22 21 20 17 16 15 16 16 17 17 19 20 21 22 22 21 21 18
4 4 2 2 8 4 3 7 7 8 10 10 13 16 18 20 22 25 25 24 26 27 29 29 27 25 23 20 21 20 18 18 18 17 17 17 19 19 18 17 15 16 17 19
2 9 2 3 4 5 6 7 8 11 12 16 17 17 19 22 23 22 26 26 28 30 28 29 29 27 23 20 21 20 21 21 21 22 21 21 21 22 21 18 18 17 19 20
4 3 2 4 2 5 8 9 12 13 14 16 17 18 19 21 22 23 25 28 28 31 29 27 29 29 26 23 23 24 22 21 21 24 25 24 25 24 22 22 20 20 20 20
1 2 2 3 4 6 9 13 15 17 17 18 18 20 20 22 24 25 25 25 25 27 29 31 31 28 26 25 24 23 26 23 20 21 22 24 25 24 24 23 22 21 20 20
4 4 4 5 8 11 14 16 18 18 18 19 21 21 22 24 25 26 26 27 26 30 30 31 32 28 27 27 23 22 21 24 25 23 21 22 24 24 24 25 24 24 22 20
5 5 7 11 12 14 16 17 17 19 20 21 21 22 24 25 26 27 27 29 31 31 30 31 33 28 28 28 22 21 21 21 23 26 24 23 24 25 24 23 25 24 22 20
7 9 11 13 15 17 19 19 19 20 21 22 23 24 24 23 26 28 29 31 33 36 36 29 28 26 25 26 23 22 22 20 20 22 23 25 25 25 26 25 24 24 22 21
10 12 12 13 15 18 21 22 21 22 22 22 21 20 19 21 24 27 30 32 32 36 37 28 25 23 24 23 21 22 22 21 19 19 20 23 25 26 26 26 26 25 22 22
14 13 13 13 14 17 20 22 24 25 23 22 20 19 22 22 24 28 30 31 30 32 30 27 23 23 22 21 20 21 21 19 19 18 18 19 22 25 27 26 26 25 24 23
15 13 12 13 16 19 22 26 29 28 25 23 21 21 23 22 23 27 31 34 32 28 26 26 22 21 20 21 19 17 17 18 19 18 19 19 20 21 24 26 25 24 23 23
15 14 15 17 20 25 27 29 30 28 27 25 23 21 22 22 23 26 28 30 31 28 25 21 19 19 20 18 15 18 21 21 20 18 17 18 18 19 21 22 23 23 22 21
19 19 21 23 25 29 31 31 26 25 26 25 25 27 25 24 23 27 32 32 31 26 22 21 21 21 18 16 18 21 21 17 16 15 14 15 14 14 16 18 19 19 19 20
23 25 28 28 31 34 36 30 24 26 28 28 25 25 26 25 26 24 28 32 31 25 22 22 20 17 15 18 19 16 13 12 13 12 11 11 10 10 10 12 13 13 14 15
23 26 28 31 33 33 29 25 27 30 29 26 23 22 19 20 24 26 28 30 30 24 20 20 20 16 16 14 11 11 10 9 9 9 9 9 9 8 8 9 11 11 13 14
25 27 27 26 26 25 25 26 29 28 26 26 25 23 21 19 21 25 26 27 27 21 18 19 16 13 12 11 10 9 9 8 8 8 7 7 8 8 9 10 9 9 10 11
27 25 24 24 23 24 25 24 22 24 22 22 26 25 23 22 22 24 24 25 22 18 15 15 13 11 9 9 8 6 6 7 7 6 6 7 7 7 6 5 5 6 6 7

GFSNGP_850_spd_078.txt.gz
Wind_Speed
5 5 3 1 1 3 2 4 4 5 6 7 7 7 6 9 8 8 8 9 11 11 12 12 13 13 14 14 15 17 15 14 11 10 12 14 15 16 17 18 18 18 17 17
5 6 6 3 4 2 3 2 3 5 1 1 5 9 7 6 4 6 8 10 12 12 12 13 15 16 16 16 16 17 18 17 15 13 15 16 16 17 17 17 18 17 17 16
3 5 4 4 2 2 1 0 2 3 4 6 4 6 7 5 5 7 9 12 15 17 18 18 19 20 20 20 18 18 18 19 19 18 17 18 18 17 17 17 17 17 16 15
1 4 2 4 2 2 1 2 3 2 4 6 6 5 6 5 4 7 12 16 19 22 23 23 23 21 22 22 21 20 19 19 19 22 20 18 19 19 19 19 18 18 16 15
3 1 4 2 2 1 1 2 1 4 3 6 5 4 1 4 5 12 16 19 22 24 25 26 25 24 24 24 23 22 20 19 19 20 23 20 20 20 20 20 19 18 17 16
1 3 2 2 1 3 1 4 1 4 3 3 3 1 2 2 12 18 21 22 23 22 22 23 22 22 23 23 22 22 21 19 19 19 24 24 20 20 20 20 21 20 19 17
2 1 5 2 4 3 2 3 4 5 5 3 1 1 9 15 16 16 18 20 20 20 21 21 21 22 22 22 21 21 21 19 18 18 19 24 22 20 19 21 22 21 20 19
2 2 6 3 1 3 2 4 5 4 2 2 5 9 11 13 14 16 17 18 18 20 19 20 20 21 22 21 21 20 20 19 17 16 17 21 23 22 22 22 23 23 22 21
6 4 1 2 2 3 4 7 5 3 3 6 8 9 12 14 15 15 16 17 18 20 20 23 22 21 23 22 22 22 20 17 16 15 14 17 21 23 24 24 24 24 24 22
1 1 2 3 3 4 4 3 3 4 4 6 8 10 13 13 15 17 18 22 21 21 23 24 26 25 23 22 22 20 23 19 16 15 15 15 18 21 24 25 25 25 25 23
4 4 3 10 9 6 3 2 3 5 6 8 10 12 14 17 18 20 22 23 24 27 27 27 28 27 25 23 21 22 20 22 18 16 16 17 19 21 22 23 23 22 22 22
4 4 3 2 6 7 5 5 7 8 8 9 12 15 17 19 20 21 23 24 25 27 28 27 28 28 28 27 24 23 24 22 22 18 18 19 18 20 21 21 21 19 17 15
2 4 3 1 4 6 6 6 8 10 12 15 15 16 17 19 21 22 22 23 23 25 28 30 31 30 28 30 28 25 25 24 25 22 21 20 20 20 22 22 21 19 17 16
3 3 2 3 3 5 7 8 11 13 14 16 17 17 19 21 22 21 22 22 22 24 25 25 28 32 31 29 29 28 26 24 24 24 22 21 20 23 23 24 24 22 20 18
3 3 3 3 4 5 8 11 15 16 17 16 16 18 19 21 22 23 23 23 23 26 27 31 32 30 27 31 29 29 29 25 23 21 22 21 20 21 23 24 24 24 21 20
4 4 4 5 7 9 12 14 17 18 18 20 20 21 21 22 25 25 24 23 24 29 31 31 32 33 28 28 29 29 29 24 21 22 21 22 21 19 20 21 23 23 23 22
5 5 5 9 12 14 14 16 17 19 21 23 23 24 24 24 23 21 22 25 27 29 31 30 33 29 25 25 26 27 25 26 23 23 22 21 23 23 21 21 21 22 22 22
6 7 10 13 15 16 16 17 19 20 23 25 25 26 26 23 21 21 23 25 27 29 28 26 28 28 27 24 24 23 25 25 23 23 21 21 20 22 24 22 21 21 21 21
8 11 14 15 15 15 15 15 17 21 24 25 26 27 27 25 22 23 23 24 25 29 30 27 28 25 26 24 23 22 25 25 23 22 21 21 20 20 22 24 23 22 22 22
12 15 17 17 15 15 16 16 21 25 28 31 29 29 30 27 24 24 23 24 24 25 29 29 28 27 24 23 20 21 23 23 21 18 19 20 20 19 19 21 22 21 22 22
16 18 19 18 18 17 19 20 25 29 32 32 29 29 29 28 26 24 24 26 25 25 29 29 25 24 22 21 21 21 20 17 18 21 23 22 21 19 19 20 20 20 21 20
18 19 20 21 22 24 23 26 29 33 34 32 28 28 30 31 29 31 28 26 28 27 30 30 26 23 22 20 20 19 19 19 22 26 23 19 19 18 18 17 19 18 18 19
19 21 23 24 26 29 31 33 33 33 30 27 28 30 30 30 29 29 32 25 25 27 30 28 24 21 20 19 19 19 20 21 20 17 16 16 16 15 15 14 14 14 15 17
22 23 25 26 27 29 31 30 27 25 25 27 29 26 25 27 27 22 21 24 25 26 29 25 22 20 19 18 20 20 17 14 14 13 13 11 11 10 10 9 8 8 10 12
22 26 29 28 28 27 26 26 27 27 26 25 24 22 22 21 21 23 21 23 23 25 26 21 18 19 17 15 15 14 12 12 12 12 10 8 8 8 8 7 6 7 7 8
26 26 25 23 22 23 24 23 22 23 24 24 24 25 24 22 21 22 21 20 21 22 21 17 16 16 15 13 12 11 10 10 10 9 8 7 6 7 7 6 6 6 6 7
24 22 21 23 23 24 24 22 22 24 23 24 27 25 25 25 23 21 21 20 19 18 16 13 13 13 12 10 10 9 9 9 9 8 6 6 6 6 5 5 5 5 6 6

GFSNGP_850_spd_081.txt.gz
Wind_Speed
3 4 2 2 2 3 4 2 3 2 4 5 6 7 11 11 10 11 11 11 12 12 12 11 10 10 11 12 14 14 14 14 13 13 13 11 11 11 12 13 15 16 17 18
5 6 5 4 4 4 3 2 3 5 1 2 5 8 8 8 8 9 9 10 10 11 11 12 14 15 15 16 16 17 17 16 15 15 15 15 15 15 14 15 16 18 18 19
2 4 3 4 2 2 2 2 3 3 1 3 3 7 9 9 8 6 6 10 13 15 17 18 18 18 18 19 19 19 19 19 18 17 17 18 18 18 18 18 17 18 17 17
2 4 3 4 1 2 3 3 1 2 2 4 5 7 8 6 5 8 13 16 18 19 20 20 20 19 19 19 20 19 18 19 19 19 18 20 21 20 20 20 20 20 19 18
3 1 3 2 3 2 2 1 1 5 4 4 9 8 3 1 6 11 14 16 18 19 20 20 20 21 21 19 18 18 18 17 18 19 18 19 23 22 22 21 21 20 19 18
2 3 1 3 2 2 1 3 1 6 5 5 5 1 2 1 8 10 11 13 15 15 16 16 17 19 20 20 20 20 19 19 18 19 18 19 22 24 23 22 21 21 21 20
2 1 5 3 4 4 1 2 3 4 5 3 2 2 2 8 10 11 13 13 13 13 15 15 18 20 20 20 20 20 19 20 20 20 18 17 20 26 24 22 22 23 23 22
1 1 5 1 1 2 3 3 4 4 3 2 2 5 8 10 12 13 14 14 14 16 16 16 18 19 20 20 21 21 20 18 19 19 19 18 18 22 27 25 25 25 24 25
6 4 1 2 3 3 5 4 5 5 4 5 7 7 10 11 10 10 11 13 15 16 17 17 18 20 21 21 22 22 20 17 17 18 17 16 16 18 25 28 28 27 26 25
1 2 4 5 4 5 5 4 5 5 6 7 8 8 10 11 12 14 15 17 18 19 20 20 18 19 19 21 22 23 22 20 18 17 18 16 15 16 20 25 28 29 27 26
4 4 4 8 9 6 5 5 5 6 7 7 9 10 12 14 15 16 17 17 18 19 21 21 21 21 20 22 23 24 24 23 21 20 17 16 17 17 20 21 24 26 26 25
4 1 1 1 3 10 8 6 6 6 7 8 10 12 14 16 18 19 20 19 20 19 20 21 22 23 22 23 24 26 26 24 24 23 21 18 17 19 20 21 24 25 24 23
3 1 3 1 3 6 6 6 7 8 9 12 13 14 15 17 18 20 20 20 20 21 21 21 22 22 20 23 25 26 26 26 26 25 24 21 19 19 22 20 21 22 24 23
6 5 2 4 3 5 6 7 7 9 12 14 16 16 17 20 21 20 20 20 21 22 23 23 25 28 25 24 22 26 29 25 25 26 25 22 21 19 20 22 22 23 24 25
5 4 3 3 4 4 6 8 11 13 15 15 15 17 19 21 22 23 22 22 21 21 21 23 26 27 24 26 30 27 26 28 25 23 22 21 21 20 20 20 23 25 25 24
7 4 4 5 6 7 9 11 14 15 15 17 20 21 22 24 26 26 24 21 21 23 22 24 27 27 24 26 27 28 27 24 20 21 25 22 21 21 22 20 20 21 23 25
6 6 6 6 8 11 14 14 16 16 17 18 20 23 25 27 28 28 25 21 22 22 21 24 25 25 26 27 25 26 26 24 22 21 25 21 22 21 21 22 21 20 20 20
6 5 6 10 14 16 17 17 16 16 17 20 23 26 29 30 31 30 27 25 25 24 21 21 22 24 27 27 26 26 24 23 23 26 24 21 22 21 20 20 21 21 18 18
5 7 10 14 18 20 21 18 17 18 20 23 26 29 32 32 30 29 28 27 27 27 23 22 22 25 27 25 22 23 22 21 24 25 24 21 19 19 19 19 20 21 20 18
7 10 15 19 20 21 21 20 21 24 25 27 30 34 36 33 29 29 29 29 30 26 24 25 25 26 27 25 21 21 20 21 23 23 18 17 19 22 21 18 17 18 19 19
10 14 17 19 20 21 23 24 27 30 32 32 36 37 34 32 30 31 32 32 31 28 28 23 25 27 27 24 21 20 21 21 19 19 19 19 25 24 20 19 17 17 18 18
13 17 19 20 21 23 23 25 27 30 33 33 32 30 29 32 32 32 29 28 28 20 21 24 26 27 25 20 22 23 21 21 20 22 23 23 22 19 17 16 16 16 16 17
14 18 20 21 24 26 28 27 27 28 28 28 29 28 28 29 28 27 29 24 21 20 21 24 26 25 20 20 22 22 21 21 21 19 17 17 16 15 14 14 14 13 13 14
16 19 22 23 24 25 26 26 26 26 24 24 24 22 22 24 25 20 21 23 22 22 22 23 24 21 17 19 19 17 16 15 14 13 13 12 12 10 9 9 9 8 8 11
18 20 21 21 23 24 26 26 26 24 24 25 24 23 24 23 22 25 24 22 21 21 21 21 18 15 16 15 14 13 13 12 11 12 12 11 8 6 6 6 6 6 5 5
18 18 18 20 21 21 22 23 23 25 24 25 25 22 22 22 23 22 21 20 20 20 20 18 14 13 13 12 10 11 10 9 9 10 9 7 6 6 5 5 5 5 5 6
14 15 17 16 16 20 21 21 23 24 23 21 23 24 23 22 21 20 18 17 17 18 16 13 11 11 10 9 9 10 9 8 8 8 7 5 5 5 5 5 5 6 6 6

GFSNGP_850_spd_084.txt.gz
Wind_Speed
5 4 1 3 5 7 5 4 5 5 6 11 8 8 9 8 7 7 10 11 13 13 14 14 13 13 13 14 14 14 13 13 14 15 15 14 13 14 15 16 16 16 16 18
2 5 4 5 7 4 6 4 7 6 8 4 9 9 8 5 5 6 7 9 11 12 12 14 16 17 17 18 18 17 17 17 16 15 15 16 17 16 16 17 19 19 20 21
2 2 1 3 6 6 3 3 2 2 4 7 7 8 8 7 5 3 2 6 9 12 14 17 19 20 20 21 20 20 19 19 18 18 15 15 18 20 19 20 20 22 23 24
1 2 2 3 2 3 3 3 2 1 3 1 5 7 7 6 4 0 4 7 9 10 11 13 16 17 19 19 20 20 20 19 19 19 18 17 17 21 23 23 22 23 23 24
0 1 1 2 1 0 2 1 2 2 4 6 10 8 4 5 2 3 6 9 10 11 12 13 13 15 17 17 18 19 19 18 18 19 19 18 19 19 24 25 24 23 24 24
1 1 2 3 3 0 1 2 3 3 4 6 7 5 3 6 4 6 9 10 11 12 12 12 13 15 15 15 16 17 18 19 20 20 20 20 19 20 21 26 25 25 24 24
2 2 1 2 1 1 3 3 7 7 7 7 4 2 2 5 7 9 11 11 12 12 13 12 14 15 15 16 17 18 17 17 17 18 20 20 21 20 22 25 27 26 26 26
1 2 1 3 2 3 3 2 5 5 5 5 3 4 5 6 7 9 9 9 10 11 12 12 15 16 17 17 18 19 19 18 17 17 19 20 20 19 20 23 28 28 28 29
3 1 2 3 2 2 3 2 4 5 5 5 5 5 7 7 9 9 10 11 12 14 16 15 16 16 17 18 19 21 21 21 20 19 18 18 20 19 18 19 26 32 32 31
3 3 6 5 6 6 6 5 6 6 6 6 6 8 9 10 10 11 13 14 16 18 18 18 17 18 18 19 20 21 21 21 23 22 21 18 19 19 19 20 22 30 35 35
4 5 3 8 9 6 7 6 5 5 6 7 7 8 10 12 13 14 16 17 18 19 20 20 19 18 17 18 18 19 20 22 22 24 24 22 21 21 21 21 23 24 30 33
3 4 1 2 3 11 9 7 6 6 7 8 9 11 13 16 16 19 20 20 20 20 20 20 20 19 18 20 22 22 21 21 23 25 24 26 25 24 23 20 22 23 25 28
2 5 5 4 3 6 7 7 7 8 9 10 12 14 15 18 20 21 21 21 22 23 24 23 22 22 20 20 22 23 24 24 25 25 22 23 26 25 25 24 23 21 25 27
9 6 4 6 3 7 7 7 7 9 10 13 14 15 17 19 21 23 24 24 25 26 27 23 22 23 23 24 23 22 22 22 22 24 23 23 24 24 22 23 25 24 22 25
10 9 5 5 6 5 5 7 9 12 13 15 15 16 17 19 23 25 27 27 27 28 26 22 22 22 21 22 22 23 25 27 25 22 22 23 24 26 24 24 25 24 23 23
12 8 6 5 5 6 7 10 14 16 17 17 16 16 18 20 24 27 29 29 28 29 26 25 24 21 20 21 22 24 27 28 26 22 23 25 26 27 24 24 24 25 25 23
12 7 7 7 6 7 11 14 17 19 19 18 18 18 20 22 26 29 30 29 29 30 29 28 26 22 20 21 23 25 28 29 27 23 23 26 26 26 23 24 25 24 25 24
7 5 4 5 8 12 15 18 19 20 21 20 21 23 26 27 30 33 33 30 29 29 29 29 25 23 22 22 24 26 28 27 25 22 22 27 26 25 24 22 23 23 24 24
7 5 5 8 12 16 20 21 20 22 24 25 27 30 32 33 35 36 32 30 30 29 30 26 24 23 24 24 25 25 26 24 23 23 25 25 24 22 20 19 21 21 21 22
6 6 9 13 16 18 20 21 22 25 27 28 31 34 35 32 30 28 26 27 29 28 27 24 22 25 27 26 24 24 24 21 22 24 24 23 21 21 21 22 24 24 22 21
6 9 12 15 17 18 19 21 23 25 26 27 28 28 26 27 25 25 25 24 27 23 22 22 20 19 22 24 23 23 22 25 26 26 24 22 22 22 23 26 25 21 21 19
8 11 13 16 18 20 22 23 24 24 24 24 23 22 23 23 20 21 20 22 23 22 21 20 20 20 20 22 23 23 26 26 25 24 25 26 25 25 24 22 20 20 20 19
9 12 15 17 19 21 22 21 22 22 22 22 22 22 20 20 19 20 22 22 23 23 23 22 21 22 21 21 21 24 26 25 23 21 20 19 19 19 20 19 18 18 18 17
10 14 16 17 17 19 20 19 20 20 20 21 20 19 19 21 20 18 20 22 23 22 23 22 22 21 18 18 21 23 21 19 18 17 16 16 17 17 15 14 13 13 12 13
12 13 14 15 17 17 18 19 19 19 20 19 18 17 17 17 19 22 22 21 20 20 21 20 19 16 15 16 17 16 15 15 14 13 15 14 13 11 9 9 9 9 8 6
10 11 12 13 13 15 16 16 15 16 18 19 18 20 21 21 20 20 20 18 18 18 19 18 15 14 14 15 13 13 14 13 13 12 12 10 9 8 8 8 8 6 4 3
9 10 9 9 10 11 12 12 13 15 17 19 21 21 21 21 20 19 19 20 18 16 16 15 14 14 14 12 12 12 12 12 11 11 9 7 7 7 7 7 6 5 4 4

GFSNGP_850_spd_087.txt.gz
Wind_Speed
4 4 3 5 7 10 11 9 6 6 8 9 9 10 12 11 10 10 9 8 7 7 7 9 11 11 10 11 11 11 10 11 13 13 12 11 12 14 15 14 15 16 17 19
2 5 3 4 7 5 8 8 7 7 7 3 7 8 6 7 6 6 5 5 7 7 8 9 10 12 13 14 14 14 13 13 14 15 15 15 14 14 17 17 17 17 16 18
2 4 3 3 8 7 4 5 6 2 6 3 4 4 4 3 3 5 4 6 7 8 10 11 13 15 17 17 18 18 17 15 15 15 16 17 16 16 17 19 20 20 20 20
2 3 2 3 3 2 4 2 4 2 5 3 3 3 2 2 2 3 6 8 10 12 13 14 14 14 16 17 17 17 17 18 18 19 18 18 17 17 17 19 22 23 22 23
3 3 1 1 2 3 5 2 2 2 2 3 3 3 5 3 2 3 6 7 8 8 10 12 14 16 17 18 17 17 16 18 19 19 20 19 20 20 18 20 22 25 24 24
2 2 2 4 4 1 2 3 2 1 1 2 3 4 5 2 4 4 5 6 7 7 8 8 9 12 13 14 16 17 18 19 19 17 16 18 20 21 21 20 22 24 27 26
3 3 0 4 3 1 3 4 2 1 1 0 2 4 2 3 6 10 11 12 13 11 11 11 12 15 14 14 15 18 20 20 21 21 21 19 20 19 19 20 21 25 27 28
1 3 2 5 4 3 3 1 0 1 2 3 3 3 4 7 8 10 12 13 13 15 15 16 16 18 18 17 16 18 19 20 20 21 20 20 20 20 18 19 18 21 25 29
3 2 2 5 2 0 1 1 2 3 2 2 4 6 7 9 10 11 13 14 14 15 17 16 15 18 21 20 20 22 21 20 19 21 21 20 21 21 22 18 19 20 23 29
3 5 7 7 5 4 4 3 3 2 4 5 5 7 9 10 11 12 13 14 16 18 19 18 17 18 19 18 19 19 20 19 19 21 21 22 21 21 22 22 21 21 22 25
7 9 4 10 9 5 5 5 5 6 6 6 8 8 10 11 12 14 15 17 18 20 21 22 21 20 20 19 18 20 20 21 20 20 20 22 23 24 24 22 21 22 24 24
4 4 3 3 3 7 7 6 7 7 6 8 9 10 11 14 14 15 16 17 18 19 21 23 23 24 23 21 19 20 20 21 20 22 24 25 24 27 26 26 24 24 24 24
3 4 2 3 3 5 7 8 8 8 9 10 10 13 14 17 19 19 20 18 19 21 22 24 24 24 23 20 19 21 22 21 22 23 23 24 25 24 29 33 25 25 24 24
9 6 3 6 3 5 6 7 8 10 11 13 16 17 19 19 19 19 18 19 21 22 25 26 24 25 21 19 19 21 20 21 23 23 22 21 22 25 26 26 30 30 24 22
10 10 7 5 5 6 6 8 10 12 13 15 16 20 20 20 20 19 20 22 24 25 28 27 26 25 20 19 21 21 19 19 20 23 24 24 20 24 27 27 27 27 28 24
12 9 7 6 5 6 7 9 12 15 14 17 20 22 21 20 23 24 25 26 23 26 31 31 29 29 26 23 24 22 20 19 20 22 22 22 24 26 26 26 26 26 26 25
14 9 9 8 7 7 9 11 14 19 22 24 25 24 24 26 28 31 32 31 34 36 34 32 31 28 26 26 24 23 20 23 23 22 26 22 21 25 26 28 28 27 26 26
9 6 5 5 6 7 11 14 19 22 24 26 27 28 31 33 35 37 38 37 37 34 32 29 24 24 23 22 23 22 24 25 24 24 23 22 23 24 26 26 27 25 26 26
9 7 6 6 8 11 14 18 20 23 25 26 27 30 31 31 29 29 28 28 28 28 29 25 26 26 25 26 23 24 27 27 26 22 22 22 23 25 26 25 25 22 24 25
10 7 7 8 11 13 16 18 20 23 23 23 25 26 24 23 26 28 27 27 27 26 25 25 25 25 22 19 20 21 23 22 21 20 21 23 25 26 26 25 25 26 28 27
9 7 8 10 12 14 16 19 21 22 23 22 22 22 22 23 23 24 23 24 23 22 23 24 22 21 19 18 19 20 21 22 24 23 25 28 27 26 26 28 29 28 28 26
7 8 10 12 14 16 17 18 19 20 20 20 19 19 21 21 21 22 19 21 24 24 25 25 25 21 21 21 22 22 23 23 21 26 28 25 24 25 26 25 25 25 24 24
7 9 10 13 13 14 15 16 16 17 18 19 19 18 19 20 18 20 23 22 25 25 24 24 22 22 21 22 21 18 20 21 25 23 21 20 21 21 21 21 22 22 21 21
8 9 11 11 12 13 12 13 14 13 14 14 15 15 18 21 21 18 20 23 22 22 22 21 21 20 18 16 17 17 21 19 18 17 17 16 17 19 18 18 17 16 17 18
9 10 9 10 10 10 11 12 11 11 12 12 14 16 17 18 20 23 23 22 22 21 21 20 18 17 17 16 17 17 16 16 17 16 17 18 18 16 15 14 13 13 12 12
9 8 8 8 8 8 9 10 9 11 13 15 16 17 19 20 20 21 21 21 21 19 18 18 18 18 18 17 16 16 16 17 17 17 15 16 15 13 12 12 11 10 9 7
8 7 6 7 7 7 7 8 9 10 12 16 18 17 20 20 20 20 21 22 21 18 16 16 16 17 17 17 17 17 17 16 15 15 14 13 12 11 10 9 9 7 6 4

GFSNGP_850_spd_090.txt.gz
Wind_Speed
3 3 3 5 7 9 9 8 6 9 7 6 8 8 12 16 14 13 13 10 9 7 5 5 6 8 9 9 10 10 9 11 12 12 12 11 12 13 14 15 16 16 18 21
2 4 2 4 9 7 7 8 7 10 7 7 14 16 12 11 11 12 10 6 4 4 5 7 9 10 11 12 13 13 14 15 15 15 15 15 14 15 16 18 17 18 19 20
2 5 4 2 5 6 2 7 4 5 4 7 6 7 10 12 9 9 5 3 3 5 8 9 9 11 13 14 14 14 14 13 14 15 16 16 16 16 15 17 20 21 21 22
3 3 2 3 3 2 4 3 4 6 5 7 9 15 11 8 7 7 3 2 4 4 6 6 8 11 12 12 12 12 14 15 16 16 17 17 18 18 18 18 19 21 24 23
1 2 4 3 2 2 3 3 4 3 5 6 6 8 9 6 7 7 4 4 7 9 10 10 10 13 14 13 13 13 14 14 15 15 15 16 18 18 18 19 19 19 21 24
3 1 2 2 3 1 3 2 3 3 5 5 3 1 3 5 4 4 4 7 9 10 11 12 13 16 17 17 17 17 19 19 19 17 16 17 19 18 18 19 21 20 22 22
3 2 2 4 4 1 1 3 4 4 5 2 1 3 5 1 2 6 7 8 9 8 9 11 13 15 16 17 18 21 22 22 22 21 21 20 19 19 20 18 18 18 19 21
1 1 5 5 1 2 1 1 1 1 2 2 2 1 3 5 7 10 11 11 11 12 13 13 14 16 19 20 19 21 23 23 23 21 21 21 20 19 19 19 18 18 19 22
2 3 2 8 2 3 2 1 2 2 4 4 3 4 7 9 11 13 14 15 15 15 18 19 19 18 21 23 22 22 24 24 22 21 22 21 22 22 22 21 19 18 18 20
3 1 5 7 7 6 5 4 6 5 6 5 5 7 11 12 14 16 16 16 18 22 23 24 24 23 23 23 23 24 24 23 22 23 23 22 22 22 24 24 23 21 20 22
5 8 5 11 9 6 8 6 6 5 5 6 9 11 13 16 17 17 19 21 24 25 26 27 28 27 27 26 25 24 24 25 24 23 23 25 25 24 23 22 23 24 23 22
5 1 4 5 7 9 8 6 5 6 8 9 11 13 14 17 19 21 23 25 26 26 26 28 29 31 31 30 28 26 25 25 25 24 24 25 26 27 24 26 25 19 20 21
4 8 5 5 5 6 6 6 7 7 8 10 12 14 17 20 23 25 26 26 25 25 26 28 30 32 32 31 29 27 27 27 26 24 25 27 26 24 27 26 25 25 22 22
14 9 4 6 4 4 6 6 6 7 9 11 14 17 20 23 25 26 26 25 25 27 28 29 30 33 33 30 27 26 27 28 26 24 24 22 22 22 22 24 27 31 27 23
12 11 6 5 7 5 4 5 5 8 11 14 16 21 23 26 26 27 27 28 29 30 31 29 34 38 37 32 27 27 29 30 25 20 19 20 20 23 22 24 26 26 30 25
15 13 9 7 6 5 4 5 7 10 13 17 20 22 23 24 26 28 30 30 31 29 31 38 37 37 33 30 28 27 29 29 22 20 20 21 22 24 21 23 27 28 27 27
18 13 12 10 8 5 4 6 9 13 17 19 22 24 26 26 28 29 29 29 29 30 32 32 31 27 24 23 24 24 25 25 21 21 21 23 25 22 21 23 23 27 28 28
10 7 9 7 7 6 5 8 12 15 18 20 23 24 25 26 26 26 25 26 28 31 29 27 26 26 30 30 28 25 26 25 26 29 27 26 24 23 23 24 27 28 27 25
11 10 8 6 4 4 7 11 14 17 19 21 22 22 22 22 24 26 25 25 25 26 26 25 26 28 28 24 22 22 22 23 25 23 24 23 21 20 22 24 26 25 25 25
12 9 6 3 4 7 10 13 16 17 17 19 19 20 22 23 23 22 23 24 21 21 23 26 27 27 25 24 20 20 19 19 22 21 23 23 22 22 27 27 27 26 26 28
10 7 4 4 7 10 12 15 16 16 16 16 18 18 19 20 19 20 21 24 22 22 25 27 25 27 25 22 23 25 24 23 24 25 26 22 20 29 26 24 25 26 26 27
9 6 4 6 8 12 13 13 13 13 14 14 14 14 16 18 20 20 19 20 24 25 25 28 27 23 25 24 25 25 22 19 20 21 20 27 24 22 22 22 22 22 22 23
7 6 6 7 10 11 12 11 10 12 11 11 12 14 16 18 20 22 26 23 24 25 25 26 23 24 25 23 22 19 19 16 19 22 19 19 19 19 20 21 22 22 21 20
6 7 8 9 9 10 9 9 10 9 8 9 11 14 17 20 20 20 22 24 24 24 25 22 22 22 21 20 20 21 20 18 17 18 18 18 19 20 20 19 18 17 17 16
8 9 9 8 9 8 8 8 9 8 8 10 12 13 14 17 21 23 24 24 24 24 24 20 18 17 20 21 20 20 20 19 18 17 19 17 17 18 17 15 15 15 15 15
10 9 8 8 8 7 7 8 9 9 10 11 11 13 14 17 19 20 22 22 23 23 21 19 17 17 20 21 21 22 21 20 18 18 17 17 16 15 15 14 13 13 12 11
10 9 9 9 7 7 8 9 9 8 10 13 14 13 16 18 19 20 22 21 22 23 21 18 17 16 18 21 22 22 21 19 19 17 17 16 15 14 13 12 11 10 10 8

GFSNGP_850_spd_093.txt.gz
Wind_Speed
4 5 2 3 5 8 8 4 4 6 5 6 7 7 9 15 13 11 10 8 7 7 7 8 7 8 8 9 9 10 10 11 13 14 14 14 15 15 16 16 16 17 18 18
3 4 3 1 6 5 6 7 6 6 4 5 12 16 14 14 13 12 9 6 3 5 6 7 9 10 10 11 11 11 11 12 14 15 16 17 18 19 19 19 20 20 19 19
4 4 4 3 1 3 2 4 1 2 2 4 6 8 13 13 12 9 5 1 2 5 8 9 11 12 14 15 15 15 15 17 17 18 18 18 19 20 21 21 21 22 22 21
3 4 3 4 0 1 2 3 4 4 4 4 5 11 11 7 8 6 1 2 5 6 7 9 10 12 13 14 15 16 17 16 17 18 18 19 20 21 21 22 22 22 22 23
2 1 3 2 2 1 2 1 1 5 5 6 9 5 3 2 2 2 5 6 7 9 11 12 14 15 17 18 18 18 18 17 18 18 19 18 19 21 22 22 23 21 20 22
0 1 3 3 2 2 2 3 1 4 6 7 8 2 4 6 5 5 6 8 10 12 14 15 16 19 19 18 18 20 21 22 23 23 22 22 21 22 22 23 24 24 21 18
2 3 5 2 5 4 2 4 4 3 5 6 4 5 6 7 6 6 8 10 11 13 14 15 16 18 20 22 22 22 23 24 24 24 24 24 24 23 23 23 24 25 23 19
2 1 5 7 4 5 4 6 6 5 5 5 6 6 5 6 7 8 9 10 11 12 13 14 15 17 18 21 22 24 25 26 27 25 22 21 21 22 21 21 21 24 25 23
6 5 4 12 5 8 9 8 8 8 8 6 8 8 7 7 7 8 9 10 11 14 15 17 17 17 19 21 22 21 23 26 27 26 25 23 21 21 22 21 21 22 23 24
2 2 6 11 10 9 8 7 7 6 7 6 7 6 6 7 8 10 11 13 15 18 20 22 21 21 22 23 23 24 25 27 27 27 26 24 23 23 23 22 21 22 22 24
5 7 7 11 14 12 10 8 8 7 6 5 5 5 6 8 10 12 14 16 18 21 22 23 21 21 22 24 25 27 27 26 26 26 26 25 24 25 25 23 21 22 23 20
5 9 6 2 10 10 9 8 6 5 4 4 4 6 8 10 13 16 19 20 22 22 22 23 23 25 26 25 26 26 27 28 26 25 25 26 26 26 25 25 22 20 18 19
12 11 8 7 8 8 8 6 5 4 4 4 5 8 11 15 18 20 22 23 23 23 24 26 28 29 29 30 32 30 29 27 25 25 27 27 25 26 25 20 18 20 15 16
21 15 7 10 6 8 7 6 4 3 3 5 8 11 15 19 21 22 24 24 25 27 28 29 30 27 28 36 32 31 29 26 24 25 27 26 25 23 22 23 25 25 23 25
17 16 12 7 9 8 7 5 3 2 5 7 10 14 17 20 22 24 24 25 26 28 29 28 29 30 27 26 26 27 26 26 25 24 26 23 22 21 22 24 25 25 25 26
16 12 10 8 9 8 6 4 3 3 7 11 14 16 19 20 21 23 23 24 24 26 26 27 27 25 25 25 27 29 29 28 23 22 24 24 22 23 24 25 24 23 24 25
17 14 14 13 12 9 6 5 4 6 10 13 15 17 19 21 21 21 22 23 22 22 20 19 20 22 23 25 28 27 25 25 23 23 24 25 23 27 26 26 23 22 24 25
10 7 11 9 12 10 7 5 6 9 11 14 15 17 18 18 19 20 19 19 19 17 15 18 21 22 25 25 25 24 22 23 23 22 21 23 25 25 24 23 22 24 26 25
11 9 11 10 10 7 6 6 8 10 12 13 14 14 14 15 16 16 16 18 17 19 19 20 23 25 25 24 23 20 21 24 23 19 18 22 22 23 22 22 21 26 27 25
13 12 10 8 6 5 5 6 8 9 10 10 11 11 11 12 14 15 16 17 16 19 20 23 23 24 23 21 22 25 27 27 27 26 24 23 24 26 26 23 25 27 25 25
12 10 8 5 4 4 6 8 9 9 8 9 9 9 10 11 13 16 18 19 20 21 22 22 24 23 22 23 27 28 27 23 23 23 22 21 21 21 25 25 23 22 22 21
12 10 7 5 6 7 8 8 9 8 8 7 7 8 10 12 14 14 15 20 23 24 24 26 24 21 22 24 25 23 21 23 23 21 21 23 22 20 20 20 20 21 21 22
12 9 7 7 7 8 8 8 8 7 7 6 7 9 11 12 15 19 23 21 23 23 24 24 20 21 20 21 22 21 22 22 21 20 21 20 19 20 21 22 22 21 20 19
12 10 8 8 7 7 8 7 7 6 6 6 8 11 13 15 13 14 17 20 22 23 22 21 20 18 16 18 22 22 23 23 22 20 19 20 21 18 19 20 19 17 17 17
12 11 10 8 8 8 7 7 6 5 6 7 8 10 11 13 17 18 19 21 21 22 22 20 17 15 16 18 21 24 24 23 21 20 19 19 18 17 17 16 16 15 15 15
14 12 11 10 10 9 7 7 6 6 6 7 9 11 11 12 14 16 17 19 20 20 20 20 17 16 16 17 21 25 24 22 22 20 19 18 17 16 15 13 13 13 12 12
16 14 12 12 12 9 8 8 7 6 8 10 10 11 12 13 14 16 17 19 20 20 21 20 17 15 15 16 21 22 22 21 20 20 18 18 16 15 14 12 11 11 10 8

GFSNGP_850_spd_096.txt.gz
Wind_Speed
6 8 5 3 5 8 6 2 3 5 4 5 5 5 5 6 7 7 6 6 6 8 8 9 9 9 10 11 12 13 14 14 15 15 15 15 15 15 15 16 18 19 19 18
4 3 4 4 5 5 3 4 4 3 2 3 5 7 8 9 8 6 5 3 4 6 7 9 10 11 11 12 13 14 14 15 16 16 17 19 20 20 19 18 19 19 20 21
4 4 4 4 3 2 1 0 1 3 4 4 3 7 12 12 8 4 2 2 3 6 8 10 12 13 15 16 17 17 17 18 20 21 22 23 23 23 22 22 22 21 21 23
4 4 2 4 2 2 2 1 1 3 2 2 5 6 8 10 11 7 4 4 6 6 7 9 11 13 14 16 18 19 20 20 20 21 20 20 21 24 26 27 27 26 24 22
1 1 5 2 4 4 4 5 3 4 3 6 10 5 3 8 9 7 6 5 5 9 11 13 14 15 16 17 18 18 19 19 19 20 22 23 24 25 25 27 28 29 29 27
1 1 5 3 3 4 3 5 6 6 6 6 5 1 4 10 6 4 4 6 8 11 13 15 17 19 22 23 23 22 23 24 24 24 25 26 27 26 25 26 28 28 28 27
3 3 6 4 5 4 2 5 9 10 10 9 4 8 5 5 4 6 8 10 12 14 16 16 18 19 21 23 25 26 27 27 28 28 28 28 27 25 25 24 24 24 27 28
1 2 6 8 5 5 4 5 9 9 10 11 11 7 5 5 6 8 10 12 14 16 17 18 21 24 26 28 29 30 31 31 31 31 31 31 30 29 28 27 27 26 25 26
7 5 4 16 5 9 8 7 9 9 9 8 8 8 7 6 7 8 11 13 14 16 18 20 21 23 24 23 22 23 24 25 27 31 34 33 31 31 29 26 27 28 27 28
2 3 7 15 16 12 12 10 9 9 9 8 7 6 6 6 7 9 10 12 14 16 19 22 22 22 22 22 24 25 26 28 29 30 31 31 29 28 28 28 28 27 26 27
6 8 13 17 18 14 14 11 10 8 8 7 6 6 6 6 7 8 11 14 17 19 21 22 21 22 23 25 27 28 29 31 31 31 30 29 28 27 27 27 27 29 28 25
7 13 11 10 11 16 15 11 9 9 9 7 6 5 4 5 8 11 14 16 18 19 20 21 22 24 26 27 28 29 33 36 33 33 32 28 27 28 28 28 26 21 20 20
16 20 19 11 9 11 13 11 10 9 8 7 5 4 5 7 10 13 16 18 19 20 20 22 25 27 28 27 29 30 30 30 30 29 30 27 24 25 30 30 27 20 18 18
19 19 10 15 10 15 13 12 10 8 7 5 4 5 8 11 14 16 18 19 20 21 21 22 23 23 22 22 22 22 23 24 25 25 25 24 24 24 26 24 26 26 21 22
32 25 18 12 15 15 14 14 13 10 8 6 5 8 11 13 14 15 15 16 17 18 18 18 18 17 17 18 19 23 25 25 24 25 25 24 23 25 25 26 25 29 29 26
11 18 14 13 16 16 15 14 12 10 7 5 7 9 11 12 12 12 13 14 14 15 15 15 16 17 18 20 23 24 24 22 21 22 24 24 25 24 29 23 24 27 26 25
15 14 16 17 18 17 15 12 9 6 5 7 8 10 10 10 10 9 10 11 13 13 13 15 18 18 20 23 24 24 23 22 20 23 23 23 22 20 21 25 24 23 23 22
15 8 12 11 17 17 14 10 6 5 6 8 8 8 8 8 8 8 10 12 12 11 13 16 18 20 22 23 21 21 21 24 26 27 27 23 19 21 23 25 25 25 25 23
10 8 11 13 15 14 11 8 7 7 8 7 6 6 6 7 7 9 10 12 14 17 18 19 20 21 22 18 18 21 27 29 29 26 24 23 23 23 24 24 23 21 21 26
8 10 12 14 13 11 8 7 7 7 6 5 5 4 5 6 8 10 11 12 15 18 20 20 22 23 18 16 20 26 27 26 24 25 25 22 21 19 20 19 20 23 27 25
10 11 10 9 8 6 6 7 7 6 6 5 5 5 5 7 8 11 13 15 16 19 20 20 22 20 19 19 24 26 24 24 24 25 24 22 22 23 23 22 21 22 23 22
12 10 9 8 6 6 7 8 7 6 5 6 5 6 6 8 10 9 11 16 18 19 21 22 22 19 20 19 21 22 22 25 26 26 25 22 23 22 22 23 23 24 24 24
13 12 11 9 8 8 9 9 8 7 8 7 7 7 7 8 11 14 16 16 19 20 20 21 21 19 18 17 17 21 23 26 27 25 23 23 23 24 23 22 23 23 23 22
15 14 12 11 11 10 11 9 7 9 9 8 9 9 10 10 7 11 15 16 18 19 19 20 21 19 17 16 18 20 24 27 25 24 25 23 23 23 22 22 21 20 19 18
16 15 14 14 12 11 11 8 9 10 9 9 10 11 11 13 14 14 16 17 18 19 20 19 18 17 16 16 17 20 25 25 24 24 24 23 23 22 21 19 18 17 17 17
20 17 15 13 13 12 11 9 9 10 10 10 10 12 12 12 13 14 14 16 17 18 19 19 18 18 17 18 19 21 22 23 23 23 22 22 21 20 19 18 16 15 15 15
22 21 19 16 15 14 12 11 10 10 11 10 11 12 13 12 12 13 14 15 16 17 17 18 18 17 18 18 19 19 20 21 21 20 20 18 17 20 20 19 17 15 14 13

GFSNGP_850_spd_099.txt.gz
Wind_Speed
7 9 4 6 7 7 3 2 2 4 4 4 5 7 8 7 7 6 5 5 4 4 6 7 7 8 9 10 10 11 13 13 15 16 16 16 16 17 18 19 19 20 20 20
5 3 3 6 8 6 5 2 1 3 5 3 5 7 8 9 9 8 6 3 2 4 6 7 9 9 10 12 13 14 15 16 17 18 19 20 20 20 20 21 20 20 20 21
5 4 6 7 6 5 3 4 4 5 6 4 4 7 11 12 11 8 5 1 2 5 6 8 10 11 12 14 15 15 16 16 17 17 17 19 22 24 25 26 25 24 23 23
4 5 2 4 1 2 5 6 5 3 3 6 5 9 9 9 10 7 4 2 4 6 8 9 11 12 13 15 16 17 17 18 19 21 22 23 23 24 24 25 26 28 29 27
0 2 7 3 4 5 5 6 8 6 3 2 3 2 6 10 9 7 4 4 5 6 8 10 11 12 12 13 14 15 18 20 23 25 27 27 27 28 28 28 28 27 27 27
0 0 5 4 1 3 3 5 4 7 7 8 9 2 4 10 9 7 5 4 6 8 9 11 13 15 17 19 21 23 26 28 28 28 29 32 33 34 33 32 30 28 28 27
4 4 8 5 4 3 2 5 6 8 9 11 5 7 0 8 6 4 3 5 8 9 11 13 15 19 23 26 28 29 30 30 30 29 30 31 32 31 33 33 33 32 30 27
2 3 7 7 4 6 5 2 6 6 8 10 9 5 4 5 4 5 6 8 11 14 15 17 20 23 25 24 24 24 26 28 30 31 33 35 37 37 33 30 30 30 31 32
8 6 5 14 9 10 6 7 11 11 10 10 9 8 7 6 6 7 9 11 13 15 17 18 21 24 27 26 27 28 29 29 30 30 31 32 34 35 35 32 30 29 29 30
0 5 9 21 23 23 17 14 10 11 11 11 10 8 8 7 7 8 9 11 15 18 22 24 24 24 22 23 25 27 29 31 32 34 37 36 34 32 32 28 27 28 30 30
7 9 14 22 21 21 18 16 13 11 10 10 10 9 8 7 7 9 11 14 17 19 21 21 21 22 23 26 29 31 32 33 34 34 32 31 30 30 27 25 23 26 28 28
10 16 14 18 21 14 21 20 16 15 13 11 10 9 8 7 8 10 13 15 18 19 20 21 22 24 25 27 28 28 28 27 27 29 29 29 30 32 23 23 23 26 27 24
26 27 20 22 17 14 15 18 17 15 12 12 10 9 8 8 10 12 14 17 19 20 20 21 22 22 21 22 22 22 23 25 27 28 28 29 29 28 31 27 25 29 27 21
33 31 19 24 15 16 15 15 15 14 12 11 10 9 9 10 11 14 16 17 17 17 17 17 16 16 16 18 20 21 22 23 24 24 24 25 27 27 27 28 29 28 27 28
16 19 30 22 19 15 16 16 16 14 13 12 11 10 11 11 13 13 14 15 14 13 13 14 14 15 17 19 21 23 25 25 24 24 23 25 27 26 26 27 27 28 27 25
29 20 15 17 19 20 19 18 17 17 15 13 11 11 11 12 12 12 12 11 10 11 11 13 15 18 19 21 22 24 24 22 21 22 26 29 28 26 24 22 22 22 27 25
15 15 13 15 18 20 21 18 15 14 14 12 11 11 11 11 10 10 10 8 8 10 12 15 18 20 21 21 23 21 20 20 24 25 25 26 26 26 26 24 26 28 29 25
12 17 14 15 19 19 18 16 14 13 12 10 11 11 11 10 10 9 8 8 10 10 13 16 19 20 20 21 18 17 19 23 26 25 26 26 26 25 26 24 26 27 28 25
4 8 9 13 15 16 15 14 13 12 11 11 11 10 11 9 10 8 8 10 12 14 15 17 20 20 21 16 15 17 21 27 27 24 24 24 25 26 24 23 23 23 24 25
5 6 8 10 14 14 14 13 11 11 11 10 10 10 10 9 10 10 10 11 13 16 18 19 20 21 19 16 13 17 25 25 25 26 27 25 26 24 25 25 24 23 24 24
7 8 10 12 13 13 12 11 11 10 10 10 10 10 10 10 10 11 12 13 13 16 17 18 19 21 19 17 19 25 24 23 25 27 28 27 25 24 24 24 25 26 26 27
11 12 12 13 12 11 12 12 11 11 11 10 11 11 10 12 12 11 12 15 16 17 19 19 20 21 20 19 23 21 21 23 26 27 26 26 26 27 27 26 25 23 26 26
14 15 16 15 14 12 13 13 13 12 12 12 11 10 11 12 13 13 11 12 16 18 20 20 21 22 20 20 19 19 21 23 26 26 24 27 26 27 27 26 25 25 24 23
17 19 18 17 16 15 15 14 15 14 14 13 9 10 12 12 12 14 13 15 17 18 20 21 21 22 22 19 19 19 21 23 25 24 24 25 25 26 25 24 24 23 21 20
19 19 20 21 20 17 14 15 16 15 16 14 12 12 12 12 12 12 13 14 16 18 20 20 21 22 21 20 20 21 22 22 23 23 23 23 23 22 24 24 23 22 21 20
21 24 23 21 19 17 16 16 16 15 16 15 15 14 12 13 13 14 14 15 16 18 20 21 21 21 20 19 19 19 20 20 21 21 21 20 19 23 25 24 22 20 19 18
20 24 26 26 25 22 19 16 17 16 16 16 15 14 13 13 13 14 14 14 16 18 19 20 20 20 19 19 19 18 19 19 18 18 18 17 19 22 23 21 20 21 20 18

GFSNGP_850_spd_102.txt.gz
Wind_Speed
7 11 6 8 9 5 6 6 5 4 5 5 8 9 12 9 5 4 3 2 0 2 4 5 5 6 8 9 10 11 11 13 14 15 16 17 18 18 19 20 21 21 21 21
5 4 3 6 9 8 6 4 6 4 6 5 4 8 10 10 9 7 5 3 2 1 2 3 5 6 8 10 11 13 15 15 16 17 18 19 20 22 23 23 22 22 22 23
5 5 7 7 6 8 5 4 5 6 7 4 4 8 12 12 12 10 7 5 4 3 2 4 6 7 10 12 14 15 16 18 19 20 22 23 24 25 26 27 28 28 28 29
4 6 3 5 1 2 5 5 8 5 5 6 5 8 10 11 12 12 10 8 5 4 4 6 9 10 12 13 15 16 16 18 19 21 22 23 24 25 27 27 27 28 27 27
1 2 8 4 1 4 5 6 7 8 4 3 3 2 8 11 11 10 9 7 5 4 6 8 9 11 12 13 14 16 18 19 20 22 23 25 27 28 29 31 32 32 30 29
0 0 5 4 2 3 3 5 3 9 7 7 7 2 4 7 11 11 9 7 6 7 8 10 10 10 11 14 16 18 19 20 20 22 25 27 28 30 31 32 32 31 31 30
4 4 8 6 4 4 1 5 4 10 11 13 5 10 3 7 11 9 9 8 8 8 8 8 9 11 14 17 18 19 21 23 25 27 29 30 32 33 34 34 33 32 31 29
3 3 7 6 4 5 5 2 6 10 12 18 17 9 8 10 11 10 9 8 8 7 7 9 12 16 18 19 20 21 24 27 30 31 32 32 33 33 33 32 31 28 26 27
7 6 5 10 12 11 10 9 8 11 11 12 13 13 11 12 11 9 8 8 9 9 10 12 16 18 20 21 23 26 27 28 28 29 29 29 29 28 28 27 26 25 24 23
1 5 8 15 20 27 28 24 18 14 14 14 14 12 13 13 12 11 10 10 11 12 14 16 19 20 22 23 25 26 27 27 25 25 25 24 23 24 24 24 23 23 21 22
6 13 21 26 22 26 23 23 22 19 16 15 13 12 12 12 12 11 10 11 13 17 19 21 21 22 22 23 24 24 23 23 23 23 24 25 25 25 25 23 22 23 24 25
7 16 14 19 20 17 21 22 21 18 16 14 13 13 12 12 11 11 11 13 15 18 19 20 20 19 18 19 19 20 21 23 24 25 26 26 27 28 25 23 21 21 21 22
17 25 26 28 29 19 24 19 15 16 15 13 13 13 12 11 11 11 13 15 17 17 18 18 17 16 15 16 18 20 22 25 26 26 27 27 27 29 32 33 28 24 22 19
26 22 21 22 18 15 14 13 14 15 15 14 13 12 11 11 12 13 14 15 15 15 14 13 14 14 16 19 20 22 24 25 26 25 26 27 26 28 32 32 32 31 25 22
24 14 19 24 20 17 17 16 18 18 17 15 14 12 12 11 12 14 15 14 14 12 12 13 13 15 18 20 22 24 25 25 25 26 27 27 29 29 29 29 27 29 28 25
29 28 24 20 15 13 15 17 18 18 16 14 13 12 11 12 14 14 13 13 12 11 12 13 14 17 20 22 24 25 23 21 22 26 29 29 28 29 29 28 28 28 28 30
25 24 17 17 14 13 15 16 15 13 13 13 12 12 12 13 13 13 12 12 11 12 14 15 17 19 21 22 25 23 21 21 23 26 28 26 27 28 29 32 31 29 26 25
19 17 14 13 12 14 15 15 15 15 14 12 12 12 13 13 12 12 12 12 12 13 14 15 18 20 20 21 22 22 20 22 25 30 30 28 28 28 31 30 27 28 28 26
4 4 8 12 11 12 14 14 14 13 13 12 13 13 14 13 12 12 12 12 14 15 12 16 18 18 19 19 18 18 20 22 28 30 29 29 28 30 28 26 27 28 26 26
7 8 9 9 11 13 14 14 13 13 13 13 13 12 12 12 12 13 13 13 14 15 16 17 19 19 19 20 17 18 21 26 28 27 29 28 29 29 27 26 25 26 26 26
10 9 10 10 10 12 13 12 12 12 12 12 13 13 12 12 13 14 14 15 13 15 16 17 18 19 20 22 22 22 24 25 25 26 30 30 28 29 28 29 29 27 25 24
11 11 11 12 12 13 14 13 13 13 13 13 13 14 14 13 12 14 14 17 15 16 17 18 18 19 21 21 23 22 21 21 22 26 28 28 27 28 29 28 27 26 25 25
13 14 15 15 15 15 15 15 14 14 15 15 14 14 15 14 13 13 13 15 16 17 18 18 19 20 21 22 22 21 21 22 24 25 26 26 25 26 25 26 28 27 25 24
13 17 19 19 20 21 21 18 16 16 16 16 16 16 16 17 14 13 14 14 16 17 18 19 19 20 21 22 22 21 21 22 23 24 24 24 22 21 24 27 27 25 23 22
14 15 20 25 26 25 21 19 20 19 18 18 17 17 17 16 14 13 14 15 16 17 17 18 19 20 20 21 20 20 20 21 21 22 22 21 20 21 24 25 23 23 25 23
16 18 21 24 25 24 21 22 23 19 18 19 18 17 17 16 15 14 13 14 15 17 18 18 19 19 19 19 19 19 19 20 20 19 19 18 20 21 22 21 21 25 23 22
18 20 23 25 27 28 27 26 24 21 19 18 18 16 17 16 16 14 14 14 15 16 17 18 18 18 18 18 17 17 18 18 17 18 18 18 19 19 20 20 21 22 21 22

GFSNGP_850_spd_105.txt.gz
Wind_Speed
7 14 8 14 15 8 8 7 5 3 5 7 9 10 16 13 10 9 7 5 3 2 1 3 4 5 6 7 8 9 9 9 11 13 14 14 15 17 18 18 19 19 20 19
6 6 5 7 11 12 14 8 9 8 12 10 6 14 14 16 13 12 10 8 5 3 2 2 3 4 6 8 9 9 11 12 13 14 15 17 19 20 21 22 22 23 24 24
5 4 9 6 5 7 5 5 6 7 8 4 4 9 17 18 16 16 13 11 8 6 5 4 4 5 6 7 9 10 12 15 17 19 21 22 22 21 22 22 23 23 24 24
4 6 4 5 3 5 7 6 8 6 4 5 6 11 11 14 16 16 14 13 11 8 7 6 5 6 7 9 11 14 16 18 19 19 19 20 21 23 24 25 26 26 26 25
2 2 7 2 2 3 3 6 4 9 4 4 3 3 11 13 14 14 14 11 10 8 7 6 7 8 10 12 15 17 18 18 18 20 21 23 25 26 27 29 30 30 29 29
1 2 5 4 2 5 5 4 3 6 6 7 7 2 4 5 12 12 13 12 10 8 8 8 10 12 13 16 18 18 17 17 19 21 24 26 27 29 29 29 29 29 29 27
4 3 8 6 3 3 2 5 3 7 10 13 6 9 3 4 8 11 12 11 9 9 9 11 12 13 15 16 16 16 16 19 21 23 25 26 26 26 27 27 27 26 26 26
2 3 7 7 5 5 4 3 5 8 12 14 17 12 9 8 10 11 11 10 10 10 10 11 12 14 15 16 16 17 20 22 23 23 22 22 23 23 23 23 24 25 24 23
8 6 5 13 11 9 8 12 15 12 12 14 15 18 15 14 14 13 13 12 12 11 10 12 14 15 15 16 17 18 19 19 20 20 20 20 22 24 25 25 24 24 24 24
2 5 12 25 20 20 22 24 25 26 21 16 17 15 16 16 16 15 13 11 10 10 10 12 13 14 15 15 16 16 16 17 18 20 21 21 22 23 24 24 24 24 26 29
7 13 25 24 15 19 26 18 16 18 18 19 17 17 15 16 15 14 12 11 10 11 12 13 13 13 13 13 13 14 16 18 20 22 23 24 24 24 24 23 20 23 25 26
7 11 15 17 23 24 25 29 26 22 21 19 18 16 15 15 15 15 13 11 10 12 13 12 12 11 10 11 14 17 19 21 22 23 24 24 25 26 24 21 22 23 22 22
17 19 23 29 32 26 23 27 27 27 20 17 15 14 14 13 13 11 10 9 10 11 12 12 10 9 10 12 15 17 20 21 22 21 21 21 25 24 26 29 26 23 20 22
22 22 28 23 19 21 22 20 18 16 15 16 15 13 12 12 12 10 10 10 11 11 11 9 8 9 11 14 17 18 20 20 19 19 20 23 24 24 24 25 28 31 27 24
16 19 24 23 29 31 23 18 18 17 16 15 14 12 12 11 9 9 11 11 11 10 9 8 9 10 12 16 18 19 21 20 19 19 20 22 25 24 23 25 28 32 32 28
13 22 26 27 25 19 14 13 15 16 16 15 14 12 11 10 10 11 12 11 10 9 8 9 9 12 15 17 19 21 20 18 17 18 21 23 25 24 26 29 31 32 31 29
25 25 15 14 10 8 10 10 12 14 14 15 13 12 11 10 11 12 12 11 10 9 9 10 10 13 16 17 20 21 21 18 18 20 23 25 23 24 26 29 32 29 27 28
18 17 16 13 10 10 9 9 11 13 14 13 13 12 11 12 12 13 12 11 10 10 11 11 12 14 16 17 19 20 20 21 22 22 25 23 24 27 29 30 30 28 30 29
12 9 7 8 10 11 10 11 11 12 13 14 13 12 12 13 13 11 11 11 11 11 11 11 13 15 16 17 18 20 19 22 24 26 23 24 27 30 29 29 27 29 31 31
10 10 9 9 8 9 11 12 13 14 14 14 13 14 13 12 11 10 10 12 12 13 12 13 14 15 16 17 19 19 22 25 25 23 22 23 27 29 28 27 27 29 30 30
10 12 11 10 10 11 12 13 13 13 13 14 13 13 13 12 11 11 11 12 11 14 14 14 15 16 17 18 19 21 23 22 21 21 22 24 26 27 26 27 27 29 30 30
11 12 12 12 12 12 13 13 14 14 14 14 13 14 14 13 12 12 12 12 12 14 14 14 15 16 18 19 19 20 21 21 21 21 23 23 24 25 25 25 28 29 28 27
12 12 13 14 14 13 15 15 16 16 15 14 13 14 14 13 13 13 12 14 13 13 14 15 16 17 18 19 19 20 21 20 20 20 21 21 22 23 23 24 26 25 25 27
10 11 13 14 17 20 22 20 19 17 16 16 15 15 15 15 14 13 13 14 14 14 15 15 16 17 19 19 19 19 19 19 18 19 19 19 20 20 21 23 23 23 27 25
12 12 15 18 22 24 22 21 22 22 20 18 16 16 16 15 14 13 14 14 14 15 14 14 15 17 18 18 18 18 18 17 18 18 18 18 19 20 20 20 21 25 25 25
20 18 18 20 21 22 22 22 26 24 23 21 18 17 17 15 14 14 14 13 14 14 14 13 15 16 16 17 17 16 16 16 17 16 15 16 19 18 17 18 20 22 22 24
26 25 24 25 24 24 26 25 26 28 26 23 20 16 17 16 16 15 14 13 13 13 13 13 15 15 15 15 15 15 15 15 16 15 14 16 18 16 16 16 19 20 21 22

GFSNGP_850_spd_108.txt.gz
Wind_Speed
15 20 17 20 19 17 18 19 11 14 12 11 6 13 18 16 14 13 12 11 9 7 5 4 3 2 2 4 5 6 8 10 11 11 11 12 14 15 16 17 17 18 19 18
8 16 13 13 15 16 18 21 20 23 26 19 19 12 16 18 16 16 15 14 12 10 8 7 6 5 4 5 6 8 9 10 12 13 15 15 16 16 17 18 18 19 20 21
6 7 14 12 7 11 8 8 15 15 16 9 6 10 17 19 19 18 16 14 13 12 10 8 7 6 6 7 8 9 10 12 15 16 17 18 18 19 20 21 21 21 21 21
6 11 4 2 1 4 10 11 13 14 10 7 6 7 11 16 17 18 17 17 16 14 12 11 10 9 9 9 9 12 14 17 18 18 18 19 20 21 22 22 22 22 22 21
4 4 14 1 2 1 3 5 4 13 13 14 9 5 14 17 19 17 16 16 15 14 14 13 11 10 9 10 11 14 16 17 17 18 19 21 21 22 22 22 22 22 22 22
1 4 5 2 2 5 3 3 3 7 7 8 6 6 6 8 16 18 17 17 17 15 14 12 11 10 10 12 14 16 17 16 17 19 20 20 19 20 20 21 22 23 23 23
11 8 9 7 5 4 4 3 0 3 6 7 7 10 7 6 9 13 14 15 16 15 13 12 11 11 13 15 18 18 17 17 17 16 16 16 17 19 20 21 22 23 23 22
5 7 9 10 6 6 4 6 3 5 9 13 17 16 16 12 11 12 14 15 15 14 13 12 13 14 15 17 17 16 15 15 14 13 15 17 18 19 20 19 20 20 21 21
8 6 1 13 11 8 8 6 11 15 17 19 18 19 20 19 15 15 15 15 14 13 13 13 13 14 15 16 15 14 12 12 12 14 16 16 18 19 19 18 16 17 16 17
2 9 19 22 18 19 21 19 18 18 14 15 21 21 22 19 17 17 16 15 14 13 12 13 14 16 16 15 13 10 10 12 13 15 16 17 18 18 18 15 14 14 16 19
13 20 25 27 21 13 11 14 19 21 21 18 18 19 18 17 18 17 17 16 14 13 12 13 15 15 14 11 9 9 11 13 15 18 18 19 18 18 18 16 14 18 21 21
8 14 15 15 13 16 18 23 19 20 22 19 17 16 16 16 16 17 17 15 13 12 13 14 13 12 10 8 9 11 14 15 18 19 18 18 18 19 17 18 20 22 20 18
20 17 21 22 22 24 25 17 16 19 14 17 15 14 14 15 15 15 15 14 13 13 13 12 11 10 8 9 10 13 15 17 19 19 18 17 16 17 22 25 22 23 21 21
28 24 23 26 18 13 18 20 25 20 15 11 11 12 13 14 14 15 14 12 12 12 12 11 9 8 9 10 13 15 16 18 18 18 16 15 15 18 20 21 26 30 27 25
26 26 30 26 23 24 25 23 18 15 14 12 12 12 13 13 13 11 11 11 12 12 11 9 9 9 9 11 14 16 17 18 19 18 15 15 18 19 20 22 24 27 28 25
5 12 17 20 26 25 20 15 13 12 12 12 13 14 13 13 12 11 11 11 11 10 10 10 9 10 10 12 15 16 17 17 17 16 16 17 17 19 19 22 26 26 25 23
14 16 17 14 14 12 9 10 10 10 11 12 13 13 13 13 12 11 10 11 11 10 10 10 10 10 11 13 14 16 18 19 17 17 17 17 20 18 21 26 26 25 24 23
26 23 18 16 13 12 9 9 9 11 12 11 13 14 14 13 11 11 11 11 10 10 10 10 10 11 12 13 14 16 17 18 18 17 16 18 18 20 23 24 23 24 25 25
16 13 12 10 7 9 10 9 10 10 11 13 14 13 12 13 13 12 12 11 10 10 10 10 11 11 12 13 15 15 16 17 18 19 19 18 18 19 22 21 22 23 24 25
11 10 10 9 10 10 9 10 12 12 12 13 14 15 15 14 13 13 12 12 11 11 11 11 11 12 13 13 14 15 16 18 21 21 20 18 20 22 21 20 20 21 22 23
9 9 10 11 11 11 11 12 12 13 13 14 15 14 13 14 14 13 14 13 11 11 12 11 12 12 13 14 15 16 18 20 20 20 20 20 21 20 19 19 20 21 22 25
9 10 10 11 11 12 12 12 13 14 15 15 15 15 15 15 15 15 14 13 13 12 12 12 12 13 14 15 15 17 18 19 19 19 20 20 20 20 19 21 23 24 25 27
11 11 11 11 10 10 13 15 15 16 17 17 16 15 15 14 16 16 16 14 13 13 13 13 14 14 14 14 15 16 17 18 18 18 18 18 19 19 20 23 23 23 25 25
14 14 13 12 14 14 16 16 17 18 18 18 17 17 16 17 17 17 16 16 14 13 13 13 14 15 15 14 14 15 16 16 16 17 17 16 17 18 20 20 20 21 23 24
16 17 18 19 20 17 16 16 18 21 23 22 21 20 19 18 18 16 16 16 14 13 13 13 14 15 14 14 14 14 14 15 15 16 16 16 16 18 18 18 18 20 22 24
21 22 24 24 22 19 21 22 22 22 24 26 25 23 21 19 18 18 17 16 15 14 13 12 13 14 13 13 13 13 13 13 14 14 14 14 16 17 17 17 17 18 20 22
25 24 28 31 32 24 26 30 26 25 25 26 27 24 22 21 19 19 18 17 16 14 12 12 13 13 13 12 12 12 12 13 14 14 13 14 16 15 15 16 16 18 19 20

GFSNGP_850_spd_111.txt.gz
Wind_Speed
16 19 18 20 20 19 20 20 17 22 22 19 13 10 14 17 18 17 17 15 13 11 8 7 5 6 7 8 9 10 11 12 13 14 15 16 17 17 17 17 17 18 18 18
10 18 15 17 18 19 20 22 24 25 28 22 26 23 18 17 19 20 19 18 15 13 11 10 8 7 9 9 9 10 11 12 15 16 17 17 17 17 18 19 19 20 19 19
7 9 16 16 14 18 14 13 15 17 21 16 13 9 14 14 18 20 19 17 16 15 13 11 9 10 9 9 10 11 12 14 15 17 17 17 18 18 18 19 19 18 18 17
7 12 5 3 4 3 11 14 14 16 17 16 14 14 11 13 17 20 19 17 15 13 12 10 10 11 11 11 11 11 11 12 15 16 17 18 20 19 18 17 17 17 16 16
4 7 17 19 3 5 6 7 8 12 10 10 11 12 22 21 16 16 14 14 13 11 11 10 10 11 10 11 12 13 13 15 18 19 20 20 18 17 17 17 17 17 17 17
5 5 5 4 8 5 3 6 9 6 4 5 2 5 3 7 4 10 11 10 12 12 13 11 11 11 11 11 12 13 17 19 19 20 19 17 16 16 17 17 18 18 18 17
12 9 10 13 10 8 3 2 4 6 3 4 6 11 8 11 9 8 10 11 13 14 12 11 13 11 10 10 12 17 18 19 19 17 16 16 17 17 18 19 20 20 20 18
7 8 11 14 10 7 3 3 1 5 6 11 16 18 17 12 10 11 12 13 13 12 13 14 13 11 11 13 17 18 18 17 15 14 14 16 17 17 17 17 17 17 18 19
10 7 3 19 14 15 6 5 7 12 15 15 16 18 17 14 13 13 13 13 14 14 14 13 13 12 14 17 17 17 15 13 12 13 15 16 17 18 17 15 16 17 18 19
6 10 18 25 23 22 17 14 14 11 12 13 14 15 15 15 14 14 15 15 15 15 13 13 13 14 15 16 16 14 12 12 13 14 15 15 16 16 16 16 16 16 17 21
17 22 27 31 30 28 25 17 13 13 14 16 18 18 16 14 13 15 16 17 16 14 13 13 14 14 16 15 14 12 11 12 13 15 16 16 16 16 16 16 16 19 21 23
9 12 17 17 6 7 9 11 12 14 16 16 17 18 13 13 13 15 16 16 15 15 14 15 15 15 15 14 12 11 12 12 14 16 16 16 17 19 15 16 18 20 19 20
26 23 14 16 15 12 18 17 14 15 15 18 14 15 13 12 13 14 14 14 14 13 13 14 14 14 13 12 11 11 13 14 16 17 16 17 17 18 23 22 21 21 20 20
27 23 23 22 15 11 13 14 15 20 23 20 15 13 12 13 13 13 13 12 13 13 12 13 14 13 12 11 11 13 14 15 17 17 17 17 18 18 20 24 27 27 23 23
21 22 27 20 21 22 22 22 22 22 15 12 12 13 13 13 13 12 12 13 12 13 13 13 13 13 12 12 13 14 15 15 16 18 17 16 18 19 20 21 22 27 30 28
13 22 22 21 19 18 19 19 16 13 12 11 11 13 13 13 13 14 13 13 12 12 12 12 12 12 12 13 14 15 15 17 17 17 16 18 18 18 21 20 23 26 27 27
15 14 14 16 16 13 14 11 10 11 11 12 12 13 15 15 15 14 13 12 12 13 13 12 11 13 13 13 14 14 15 16 16 16 18 18 18 21 20 22 25 25 26 26
24 20 15 17 16 16 14 11 10 10 12 12 14 15 16 16 15 13 13 13 13 14 13 12 12 13 13 13 14 15 15 16 16 17 18 20 20 20 22 21 23 23 25 26
30 25 22 17 14 12 12 13 11 11 13 14 16 16 15 15 15 14 14 14 15 14 13 13 12 12 14 14 15 15 15 16 17 17 20 20 18 18 19 20 21 22 23 25
16 17 16 13 13 12 11 12 12 13 14 15 16 17 18 17 17 16 16 16 15 14 14 12 12 13 13 15 16 16 16 16 17 20 20 20 17 18 19 18 19 20 21 23
10 11 12 12 12 12 12 12 13 14 15 17 18 18 18 17 17 17 18 18 15 15 15 14 13 13 14 15 16 16 15 17 19 20 20 20 18 18 17 18 19 20 22 23
12 12 11 12 12 12 13 13 13 14 17 18 18 19 20 20 19 19 18 18 17 15 15 14 14 13 13 15 16 16 15 17 19 19 18 18 18 18 17 18 20 20 21 23
16 15 14 14 12 11 12 13 14 14 17 19 19 21 21 19 18 20 20 17 19 18 16 15 14 13 14 15 15 16 16 17 17 17 17 17 17 16 16 18 18 18 21 23
22 20 18 16 17 17 16 13 12 13 16 19 21 22 22 23 22 20 20 19 18 18 17 15 14 14 14 15 15 16 16 15 16 16 17 16 15 15 15 17 17 17 19 21
27 24 23 24 23 22 17 16 15 13 17 23 25 26 26 25 24 21 20 20 19 19 18 16 15 14 15 14 15 16 15 14 15 15 15 15 15 14 15 15 15 16 19 20
29 33 32 29 27 25 21 19 18 19 22 28 29 30 29 28 26 24 22 21 20 19 18 17 15 15 15 14 15 15 14 14 14 14 15 15 13 14 14 13 13 14 16 18
33 33 32 32 31 28 23 27 31 32 29 26 32 31 29 28 28 26 24 23 22 21 19 17 16 16 15 14 14 14 14 13 14 14 14 13 12 13 12 13 12 13 14 16

GFSNGP_850_spd_114.txt.gz
Wind_Speed
9 13 12 16 17 14 15 15 13 19 16 17 12 12 21 23 24 21 21 20 19 17 14 12 12 11 8 8 8 10 11 13 14 15 17 17 17 17 17 18 18 18 18 16
7 13 16 18 19 19 20 21 20 21 26 17 24 24 9 11 10 23 21 20 20 18 16 14 13 12 12 10 9 9 9 12 14 16 18 19 19 20 20 20 18 17 16 16
5 8 12 13 12 20 17 8 9 15 20 9 6 7 10 11 13 14 18 20 20 19 18 17 15 15 13 11 9 11 12 14 15 17 18 19 20 20 19 18 17 16 16 16
5 7 3 6 0 4 3 11 12 15 11 9 13 16 16 15 15 15 16 18 17 17 18 18 18 18 14 12 11 12 12 13 15 17 18 19 18 16 16 17 17 17 16 16
3 3 12 12 3 4 6 7 12 14 8 10 2 7 11 9 12 17 15 10 15 16 17 18 19 17 14 12 12 12 13 14 16 18 19 18 15 15 15 16 16 16 16 16
2 4 5 1 5 5 4 6 7 9 5 3 5 2 4 5 6 8 11 15 12 15 17 19 19 17 13 12 12 13 15 16 18 19 17 14 14 15 16 16 17 16 16 16
11 7 8 8 10 7 1 6 8 8 9 8 5 10 10 16 18 11 11 12 14 17 18 17 17 14 11 12 14 15 15 17 18 16 14 14 15 16 17 19 19 18 18 16
5 5 10 14 7 6 5 7 10 12 12 12 14 16 19 20 16 16 12 13 13 14 15 16 15 12 12 14 14 14 17 18 16 13 13 14 16 17 18 18 17 18 18 19
10 7 9 28 12 17 11 7 9 10 12 15 18 18 19 18 16 17 16 15 14 15 16 15 14 13 13 14 14 15 17 15 13 12 13 15 17 17 18 17 18 18 19 21
1 7 18 28 28 23 25 21 19 16 16 15 17 18 17 17 16 18 18 18 16 17 17 15 14 12 12 14 15 16 15 12 12 14 15 16 17 17 18 18 19 19 21 24
13 18 26 36 42 36 31 25 19 17 14 16 16 19 20 20 18 19 20 19 18 17 16 15 14 13 14 14 16 15 13 11 12 14 15 17 17 17 18 18 18 19 22 24
11 12 18 12 6 9 10 12 13 14 16 19 18 17 17 19 17 18 19 19 19 17 16 16 15 15 15 16 15 14 12 12 13 15 16 18 18 20 18 17 16 17 20 20
29 30 26 24 21 14 13 15 16 19 22 21 18 18 17 15 15 17 19 18 17 16 15 16 15 15 16 15 14 13 13 13 14 16 17 17 18 20 22 22 20 20 19 18
32 30 28 28 20 19 19 17 18 17 18 22 23 22 17 16 18 18 18 15 15 15 15 15 15 15 15 13 12 12 13 14 15 16 16 17 18 19 21 24 26 26 22 23
40 35 31 25 16 14 16 20 23 23 22 22 17 15 15 16 17 16 16 16 15 15 14 15 15 14 14 13 12 13 14 14 14 15 16 17 16 19 21 23 24 25 27 28
15 14 21 26 25 25 22 19 21 21 16 13 13 13 15 15 15 16 15 15 15 14 14 15 15 14 13 13 13 13 14 14 15 15 16 17 18 19 20 22 23 25 27 28
26 23 17 20 19 16 17 15 16 14 11 13 13 12 14 16 16 17 16 14 15 15 15 15 13 14 13 13 14 14 14 14 15 15 16 17 19 19 21 21 24 25 27 26
35 28 17 14 11 14 15 15 14 12 12 12 13 14 16 18 18 16 16 15 16 16 16 15 14 14 14 14 14 15 15 15 16 16 16 17 19 19 20 22 22 25 25 23
22 29 27 22 18 16 15 14 12 12 12 13 15 17 16 16 17 17 17 17 17 18 15 15 15 15 14 15 15 16 15 16 17 17 16 17 20 20 19 21 22 21 22 22
13 19 23 25 22 17 14 13 13 14 13 15 16 18 19 19 19 20 19 19 17 17 16 15 15 14 14 15 16 16 16 17 17 16 16 18 19 21 20 19 19 19 20 20
7 9 11 15 16 15 14 14 15 14 13 15 18 19 19 18 20 20 22 22 17 17 17 17 17 15 15 15 17 17 16 17 15 16 17 18 19 19 19 18 18 19 18 18
17 18 17 18 19 17 15 15 16 15 15 16 18 18 20 21 22 23 22 21 17 18 18 17 17 16 16 16 17 18 17 15 16 17 17 18 18 18 18 17 17 18 16 17
27 27 27 25 24 21 17 19 18 16 16 15 17 18 20 20 22 23 24 19 19 19 18 17 17 17 16 17 18 18 16 15 15 16 16 17 17 16 16 15 17 16 16 16
41 38 38 34 28 27 26 25 21 19 17 15 14 16 17 23 25 25 24 22 19 19 19 17 18 18 17 18 18 17 15 15 15 16 16 16 15 15 15 15 15 14 14 15
41 39 37 35 35 34 31 28 25 24 23 21 19 14 17 27 28 25 25 23 21 21 20 18 19 19 19 19 18 16 15 15 15 15 15 15 13 14 14 14 12 13 13 14
43 39 35 34 34 34 34 33 32 29 27 26 23 19 25 27 28 28 28 26 24 23 21 20 20 19 18 18 17 15 15 14 14 13 15 14 12 13 13 11 11 10 12 13
43 40 39 38 37 36 34 34 34 33 31 29 32 34 30 29 25 27 28 28 27 25 23 21 20 19 18 18 17 15 15 14 14 13 13 13 11 11 11 10 11 10 11 13

GFSNGP_850_spd_117.txt.gz
Wind_Speed
7 9 8 13 16 15 17 18 11 19 13 20 8 8 19 28 26 29 29 28 25 20 16 15 16 15 14 13 11 10 10 11 12 14 15 15 15 15 16 16 15 14 13 13
5 9 9 14 17 18 21 22 20 23 26 21 28 23 16 13 13 14 25 32 26 18 16 22 20 19 19 16 13 11 11 12 14 14 15 16 17 17 16 13 12 12 12 12
5 5 10 10 10 8 6 6 14 16 23 10 8 7 14 15 16 15 15 23 25 20 19 22 22 21 20 17 14 12 12 13 14 15 17 17 17 16 14 13 14 14 14 14
4 5 3 6 4 6 9 8 15 13 11 7 10 18 14 13 15 19 13 10 17 24 21 21 20 20 18 16 15 13 13 14 14 15 16 16 15 12 13 14 14 14 13 13
2 2 11 12 4 3 4 7 8 14 13 10 9 4 11 9 5 5 8 13 15 16 19 20 21 20 17 16 15 14 14 14 15 17 17 15 12 12 13 13 14 14 13 13
1 2 6 5 2 5 3 6 5 10 7 9 8 1 6 13 10 10 10 11 12 12 16 18 19 19 17 16 15 14 14 14 15 16 16 12 11 11 12 13 15 14 13 13
9 6 9 9 6 3 3 6 4 11 15 14 5 12 17 11 14 15 15 14 13 13 16 18 19 18 17 15 15 13 14 14 15 15 13 11 11 13 15 16 16 16 16 15
4 5 10 7 4 7 7 4 11 10 11 14 16 16 16 18 20 19 17 16 15 15 17 18 18 17 15 15 14 14 14 15 15 14 11 11 12 13 14 16 16 16 17 16
11 9 10 20 14 15 9 9 12 13 14 15 17 19 20 20 19 19 18 17 16 17 17 17 16 15 15 15 14 14 14 15 14 11 10 12 13 15 16 17 17 18 18 19
2 10 25 29 33 32 24 23 21 23 22 22 21 19 18 20 19 19 19 21 18 17 19 18 17 16 15 14 13 14 15 14 12 11 11 12 14 16 17 17 17 18 19 21
13 21 23 32 32 31 32 29 34 33 28 26 20 20 19 20 20 20 20 21 21 19 19 18 17 16 14 13 13 14 15 14 12 12 12 13 14 16 17 17 17 18 19 21
11 21 19 26 28 18 15 16 15 16 17 21 20 22 22 22 20 19 19 19 21 20 19 19 18 16 14 14 14 14 14 12 12 13 14 15 16 16 16 16 16 16 17 18
28 34 34 35 35 27 23 23 20 19 21 23 24 25 23 23 21 18 17 18 20 19 18 19 18 16 15 15 15 14 12 12 12 14 15 16 16 18 20 19 18 18 19 18
25 28 29 36 27 26 21 21 20 21 23 23 23 22 25 26 23 21 21 18 17 18 19 19 17 17 16 16 15 14 13 12 13 14 15 15 17 17 18 21 23 22 19 19
29 27 34 36 36 37 29 21 19 22 26 26 25 27 23 19 18 18 17 18 18 18 18 18 18 17 16 16 14 14 13 13 13 14 15 15 15 16 18 19 20 22 23 21
40 36 32 32 28 24 22 22 26 27 22 22 21 17 15 15 15 17 19 19 20 19 17 17 16 15 17 15 15 14 14 13 14 14 14 15 15 17 18 19 20 21 23 23
36 32 28 27 27 25 23 21 20 21 19 17 15 13 15 16 17 18 19 18 18 17 17 17 16 17 16 16 15 14 14 13 13 14 14 15 16 17 18 19 21 22 22 21
24 28 28 26 24 17 14 18 19 19 17 13 14 15 16 17 16 15 16 17 19 19 19 17 17 17 17 16 15 15 15 14 13 14 15 15 16 16 17 19 20 21 20 18
22 20 15 13 17 21 25 24 20 17 15 15 15 16 15 15 14 15 17 20 21 21 19 18 17 18 18 16 16 16 16 15 14 15 15 14 15 16 16 17 19 18 18 18
25 22 17 15 17 22 26 26 21 19 17 18 18 18 18 18 17 17 19 23 22 20 17 19 19 19 17 17 18 17 16 15 15 15 14 14 15 17 16 16 17 17 17 17
27 26 27 25 24 24 25 23 23 22 18 19 21 21 18 16 17 17 21 24 22 20 21 21 21 19 18 18 19 18 16 16 16 16 13 13 15 16 15 15 15 15 16 14
31 33 34 34 35 36 32 28 27 26 23 23 22 22 20 17 18 18 18 22 23 20 23 21 20 19 19 20 20 18 17 17 15 15 14 14 15 15 15 15 14 14 14 13
39 41 41 38 35 36 35 32 31 31 28 26 25 24 24 19 13 15 21 25 24 23 23 21 20 19 20 22 21 19 18 16 15 15 14 14 14 14 14 13 13 13 13 12
41 37 38 40 40 41 40 35 31 33 31 29 28 26 26 28 25 20 20 22 25 23 23 19 21 21 21 23 21 19 18 16 16 16 15 14 13 13 13 12 11 12 11 11
43 42 41 41 44 45 44 37 32 30 30 31 31 31 32 33 33 24 20 25 23 25 25 22 22 22 23 23 21 20 18 16 16 16 14 12 12 12 12 11 11 10 10 10
47 45 46 45 43 45 44 40 37 31 31 35 38 38 39 37 35 31 26 27 25 27 27 24 23 24 24 22 21 19 17 16 16 16 14 12 11 11 12 11 9 9 10 11
50 50 50 48 45 42 39 38 40 40 40 40 42 41 38 38 38 34 30 33 31 29 28 26 25 25 23 22 21 19 17 16 15 15 13 11 11 11 12 10 9 9 10 11